[[{"header":{"parameterUnit":"m.s-1","parameterCategory":1,"la1":30.6,"la2":28.766,"lo1":-90.7593,"lo2":-88.6598,"dy":0.0162,"dx":0.0183,"nx":116,"ny":114,"refTime":"2024-06-05T06:00:00:Z","depth":0,"parameterNumber":2,"parameterNumberName":"U-component_of_WINDS"},"data":[0.0,0.0,0.0,0.0,0.0,0.0,0.0,0.0,0.0,0.0,0.0,0.0,0.0,0.0,0.0,0.0,0.0,0.0,0.0,0.0,0.0,0.0,0.0,0.0,0.0,0.0,0.0,0.0,0.0,0.0,0.0,0.0,0.0,0.0,0.0,0.0,0.0,0.0,0.0,0.0,0.0,0.0,0.0,0.0,0.0,0.0,0.0,0.0,0.0,0.0,0.0,0.0,0.0,0.0,0.0,0.0,0.0,0.0,0.0,0.0,0.0,0.0,0.0,0.0,0.0,0.0,0.0,0.0,0.0,0.0,0.0,0.0,0.0,0.0,0.0,0.0,0.0,0.0,0.0,0.0,0.0,0.0,0.0,0.0,0.0,0.0,0.0,0.0,0.0,0.0,0.0,0.0,0.0,0.0,0.0,0.0,0.0,0.0,0.0,0.0,0.0,0.0,0.0,0.0,0.0,0.0,0.0,0.0,0.0,0.0,0.0,0.0,0.0,0.0,0.0,0.0,0.0,0.0,0.0,0.0,0.0,0.0,0.0,0.0,0.0,0.0,0.0,0.0,0.0,0.0,0.0,0.0,0.0,0.0,0.0,0.0,0.0,0.0,0.0,0.0,0.0,0.0,0.0,0.0,0.0,0.0,0.0,0.0,0.0,0.0,0.0,0.0,0.0,0.0,0.0,0.0,0.0,0.0,0.0,0.0,0.0,0.0,0.0,0.0,0.0,0.0,0.0,0.0,0.0,0.0,0.0,0.0,0.0,0.0,0.0,0.0,0.0,0.0,0.0,0.0,0.0,0.0,0.0,0.0,0.0,0.0,0.0,0.0,0.0,0.0,0.0,0.0,0.0,0.0,0.0,0.0,0.0,0.0,0.0,0.0,0.0,0.0,0.0,0.0,0.0,0.0,0.0,0.0,0.0,0.0,0.0,0.0,0.0,0.0,0.0,0.0,0.0,0.0,0.0,0.0,0.0,0.0,0.0,0.0,0.0,0.0,0.0,0.0,0.0,0.0,0.0,0.0,0.0,0.0,0.0,0.0,0.0,0.0,0.0,0.0,0.0,0.0,0.0,0.0,0.0,0.0,0.0,0.0,0.0,0.0,0.0,0.0,0.0,0.0,0.0,0.0,0.0,0.0,0.0,0.0,0.0,0.0,0.0,0.0,0.0,0.0,0.0,0.0,0.0,0.0,0.0,0.0,0.0,0.0,0.0,0.0,0.0,0.0,0.0,0.0,0.0,0.0,0.0,0.0,0.0,0.0,0.0,0.0,0.0,0.0,0.0,0.0,0.0,0.0,0.0,0.0,0.0,0.0,0.0,0.0,0.0,0.0,0.0,0.0,0.0,0.0,0.0,0.0,0.0,0.0,0.0,0.0,0.0,0.0,0.0,0.0,0.0,0.0,0.0,0.0,0.0,0.0,0.0,0.0,0.0,0.0,0.0,0.0,0.0,0.0,0.0,0.0,0.0,0.0,0.0,0.0,0.0,0.0,0.0,0.0,0.0,0.0,0.0,0.0,0.0,0.0,0.0,0.0,0.0,0.0,0.0,0.0,0.0,0.0,0.0,0.0,0.0,0.0,0.0,0.0,0.0,0.0,0.0,0.0,0.0,0.0,0.0,0.0,0.0,0.0,0.0,0.0,0.0,0.0,0.0,0.0,0.0,0.0,0.0,0.0,0.0,0.0,0.0,0.0,0.0,0.0,0.0,0.0,0.0,0.0,0.0,0.0,0.0,0.0,0.0,0.0,0.0,0.0,0.0,0.0,0.0,0.0,0.0,0.0,0.0,0.0,0.0,0.0,0.0,0.0,0.0,0.0,0.0,0.0,0.0,0.0,0.0,0.0,0.0,0.0,0.0,0.0,0.0,0.0,0.0,0.0,0.0,0.0,0.0,0.0,0.0,0.0,0.0,0.0,0.0,0.0,0.0,0.0,0.0,0.0,0.0,0.0,0.0,0.0,0.0,0.0,0.0,0.0,0.0,0.0,0.0,0.0,0.0,0.0,0.0,0.0,0.0,0.0,0.0,0.0,0.0,0.0,0.0,0.0,0.0,0.0,0.0,0.0,0.0,0.0,0.0,0.0,0.0,0.0,0.0,0.0,0.0,0.0,0.0,0.0,0.0,0.0,0.0,0.0,0.0,0.0,0.0,0.0,0.0,0.0,0.0,0.0,0.0,0.0,0.0,0.0,0.0,0.0,0.0,0.0,0.0,0.0,0.0,0.0,0.0,0.0,0.0,0.0,0.0,0.0,0.0,0.0,0.0,0.0,0.0,0.0,0.0,0.0,0.0,0.0,0.0,0.0,0.0,0.0,0.0,0.0,0.0,0.0,0.0,0.0,0.0,0.0,0.0,0.0,0.0,0.0,0.0,0.0,0.0,0.0,0.0,0.0,0.0,0.0,0.0,0.0,0.0,0.0,0.0,0.0,0.0,0.0,0.0,0.0,0.0,0.0,0.0,0.0,0.0,0.0,0.0,0.0,0.0,0.0,0.0,0.0,0.0,0.0,0.0,0.0,0.0,0.0,0.0,0.0,0.0,0.0,0.0,0.0,0.0,0.0,0.0,0.0,0.0,0.0,0.0,0.0,0.0,0.0,0.0,0.0,0.0,0.0,0.0,0.0,0.0,0.0,0.0,0.0,0.0,0.0,0.0,0.0,0.0,0.0,0.0,0.0,0.0,0.0,0.0,0.0,0.0,0.0,0.0,0.0,0.0,0.0,0.0,0.0,0.0,0.0,0.0,0.0,0.0,0.0,0.0,0.0,0.0,0.0,0.0,0.0,0.0,0.0,0.0,0.0,0.0,0.0,0.0,0.0,0.0,0.0,0.0,0.0,0.0,0.0,0.0,0.0,0.0,0.0,0.0,0.0,0.0,0.0,0.0,0.0,0.0,0.0,0.0,0.0,0.0,0.0,0.0,0.0,0.0,0.0,0.0,0.0,0.0,0.0,0.0,0.0,0.0,0.0,0.0,0.0,0.0,0.0,0.0,0.0,0.0,0.0,0.0,0.0,0.0,0.0,0.0,0.0,0.0,0.0,0.0,0.0,0.0,0.0,0.0,0.0,0.0,0.0,0.0,0.0,0.0,0.0,0.0,0.0,0.0,0.0,0.0,0.0,0.0,0.0,0.0,0.0,0.0,0.0,0.0,0.0,0.0,0.0,0.0,0.0,0.0,0.0,0.0,0.0,0.0,0.0,0.0,0.0,0.0,0.0,0.0,0.0,0.0,0.0,0.0,0.0,0.0,0.0,0.0,0.0,0.0,0.0,0.0,0.0,0.0,0.0,0.0,0.0,0.0,0.0,0.0,0.0,0.0,0.0,0.0,0.0,0.0,0.0,0.0,0.0,0.0,0.0,0.0,0.0,0.0,0.0,0.0,0.0,0.0,0.0,0.0,0.0,0.0,0.0,0.0,0.0,0.0,0.0,0.0,0.0,0.0,0.0,0.0,0.0,0.0,0.0,0.0,0.0,0.0,0.0,0.0,0.0,0.0,0.0,0.0,0.0,0.0,0.0,0.0,0.0,0.0,0.0,0.0,0.0,0.0,0.0,0.0,0.0,0.0,0.0,0.0,0.0,0.0,0.0,0.0,0.0,0.0,0.0,0.0,0.0,0.0,0.0,0.0,0.0,0.0,0.0,0.0,0.0,0.0,0.0,0.0,0.0,0.0,0.0,0.0,0.0,0.0,0.0,0.0,0.0,0.0,0.0,0.0,0.0,0.0,0.0,0.0,0.0,0.0,0.0,0.0,0.0,0.0,0.0,0.0,0.0,0.0,0.0,0.0,0.0,0.0,0.0,0.0,0.0,0.0,0.0,0.0,0.0,0.0,0.0,0.0,0.0,0.0,0.0,0.0,0.0,0.0,0.0,0.0,0.0,0.0,0.0,0.0,0.0,0.0,0.0,0.0,0.0,0.0,0.0,0.0,0.0,0.0,0.0,0.0,0.0,0.0,0.0,0.0,0.0,0.0,0.0,0.0,0.0,0.0,0.0,0.0,0.0,0.0,0.0,0.0,0.0,0.0,0.0,0.0,0.0,0.0,0.0,0.0,0.0,0.0,0.0,0.0,0.0,0.0,0.0,0.0,0.0,0.0,0.0,0.0,0.0,0.0,0.0,0.0,0.0,0.0,0.0,0.0,0.0,0.0,0.0,0.0,0.0,0.0,0.0,0.0,0.0,0.0,0.0,0.0,0.0,0.0,0.0,0.0,0.0,0.0,0.0,0.0,0.0,0.0,0.0,0.0,0.0,0.0,0.0,0.0,0.0,0.0,0.0,0.0,0.0,0.0,0.0,0.0,0.0,0.0,0.0,0.0,0.0,0.0,0.0,0.0,0.0,0.0,0.0,0.0,0.0,0.0,0.0,0.0,0.0,0.0,0.0,0.0,0.0,0.0,0.0,0.0,0.0,0.0,0.0,0.0,0.0,0.0,0.0,0.0,0.0,0.0,0.0,0.0,0.0,0.0,0.0,0.0,0.0,0.0,0.0,0.0,0.0,0.0,0.0,0.0,0.0,0.0,0.0,0.0,0.0,0.0,0.0,0.0,0.0,0.0,0.0,0.0,0.0,0.0,0.0,0.0,0.0,0.0,0.0,0.0,0.0,0.0,0.0,0.0,0.0,0.0,0.0,0.0,0.0,0.0,0.0,0.0,0.0,0.0,0.0,0.0,0.0,0.0,0.0,0.0,0.0,0.0,0.0,0.0,0.0,0.0,0.0,0.0,0.0,0.0,0.0,0.0,0.0,0.0,0.0,0.0,0.0,0.0,0.0,0.0,0.0,0.0,0.0,0.0,0.0,0.0,0.0,0.0,0.0,0.0,0.0,0.0,0.0,0.0,0.0,0.0,0.0,0.0,0.0,0.0,0.0,0.0,0.0,0.0,0.0,0.0,0.0,0.0,0.0,0.0,0.0,0.0,0.0,0.0,0.0,0.0,0.0,0.0,0.0,0.0,0.0,0.0,0.0,0.0,0.0,0.0,0.0,0.0,0.0,0.0,0.0,0.0,0.0,0.0,0.0,0.0,0.0,0.0,0.0,0.0,0.0,0.0,0.0,0.0,0.0,0.0,0.0,0.0,0.0,0.0,0.0,0.0,0.0,0.0,0.0,0.0,0.0,0.0,0.0,0.0,0.0,0.0,0.0,0.0,0.0,0.0,0.0,0.0,0.0,0.0,0.0,0.0,0.0,0.0,0.0,0.0,0.0,0.0,0.0,0.0,0.0,0.0,0.0,0.0,0.0,0.0,0.0,0.0,0.0,0.0,0.0,0.0,0.0,0.0,0.0,0.0,0.0,0.0,0.0,0.0,0.0,0.0,0.0,0.0,0.0,0.0,0.0,0.0,0.0,0.0,0.0,0.0,0.0,0.0,0.0,0.0,0.0,0.0,0.0,0.0,0.0,0.0,0.0,0.0,0.0,0.0,0.0,0.0,0.0,0.0,0.0,0.0,0.0,0.0,0.0,0.0,0.0,0.0,0.0,0.0,0.0,0.0,0.0,0.0,0.0,0.0,0.0,0.0,0.0,0.0,0.0,0.0,0.0,0.0,0.0,0.0,0.0,0.0,0.0,0.0,0.0,0.0,0.0,0.0,0.0,0.0,0.0,0.0,0.0,0.0,0.0,0.0,0.0,0.0,0.0,0.0,0.0,0.0,0.0,0.0,0.0,0.0,0.0,0.0,0.0,0.0,0.0,0.0,0.0,0.0,0.0,0.0,0.0,0.0,0.0,0.0,0.0,0.0,0.0,0.0,0.0,0.0,0.0,0.0,0.0,0.0,0.0,0.0,0.0,0.0,0.0,0.0,0.0,0.0,0.0,0.0,0.0,0.0,0.0,0.0,0.0,0.0,0.0,0.0,0.0,0.0,0.0,0.0,0.0,0.0,0.0,0.0,0.0,0.0,0.0,0.0,0.0,0.0,0.0,0.0,0.0,0.0,0.0,0.0,0.0,0.0,0.0,0.0,0.0,0.0,0.0,0.0,0.0,0.0,0.0,0.0,0.0,0.0,0.0,0.0,0.0,0.0,0.0,0.0,0.0,0.0,0.0,0.0,0.0,0.0,0.0,0.0,0.0,0.0,0.0,0.0,0.0,0.0,0.0,1.4856,1.4615,0.0,0.0,0.0,0.0,0.0,0.0,0.0,0.0,0.0,0.0,0.0,0.0,0.0,0.0,0.0,0.0,0.0,0.0,0.0,0.0,0.0,0.0,0.0,0.4343,0.4632,0.4632,0.5164,0.5439,0.5263,0.0,0.0,0.0,0.0,0.0,0.5439,0.5613,0.5957,0.6416,0.6416,0.6963,0.8008,0.7754,0.7422,0.7005,0.0,0.0,0.0,0.0,0.0,0.0,0.0,0.0,0.0,0.0,0.0,0.0,0.0,0.0,0.0,0.0,0.0,0.0,0.0,0.0,0.0,0.0,0.0,0.0,0.0,0.0,0.0,0.0,0.0,0.0,0.0,0.0,0.0,0.0,0.0,0.0,0.0,0.0,0.0,0.0,0.0,0.0,0.0,0.0,0.0,0.0,0.0,0.0,0.0,0.0,0.0,0.0,0.0,0.0,0.0,0.0,0.0,0.0,0.0,0.0,0.0,0.0,0.0,0.0,0.0,0.0,0.0,0.0,0.0,0.0,1.6599,1.593,0.0,0.0,0.0,0.0,0.0,0.0,0.0,0.0,0.0,0.0,0.0,0.0,0.0,0.0,0.0,0.0,0.0,0.0,0.0,0.0,0.0,0.3667,0.395,0.452,0.4903,0.4969,0.5742,0.6012,0.5493,0.5745,0.0,0.0,0.0,0.5911,0.5911,0.6309,0.6787,0.7324,0.7617,0.8311,0.9346,0.9766,0.9369,0.8389,0.8133,0.0,0.0,0.0,0.0,0.0,0.0,0.0,0.0,0.0,0.0,0.0,0.0,0.0,0.0,0.0,0.0,0.0,0.0,0.0,0.0,0.0,0.0,0.0,0.0,0.0,0.0,0.0,0.0,0.0,0.0,0.0,0.0,0.0,0.0,0.0,0.0,0.0,0.0,0.0,0.0,0.0,0.0,0.0,0.0,0.0,0.0,0.0,0.0,0.0,0.0,0.0,0.0,0.0,0.0,0.0,0.0,0.0,0.0,0.0,0.0,0.0,0.0,0.0,2.0601,2.1149,2.1693,2.1693,2.1453,2.0926,1.8811,1.7866,1.7738,1.7328,0.0,0.0,0.0,0.0,0.0,0.0,0.0,0.0,0.0,0.0,0.0,0.0,0.0,0.0,0.0,0.0,0.0,0.0,0.0,0.398,0.4305,0.4426,0.4561,0.4796,0.5256,0.5582,0.5737,0.6102,0.0,0.0,0.6289,0.6318,0.6318,0.6768,0.7402,0.8244,0.9687,1.0498,1.0664,1.1103,1.1263,1.1047,0.9883,0.931,0.9184,0.0,0.0,0.0,0.0,0.0,0.0,0.0,0.0,0.0,0.0,0.0,0.0,0.0,0.0,0.0,0.0,0.0,0.0,0.0,0.0,0.0,0.0,0.0,0.0,0.0,0.0,0.0,0.0,0.0,0.0,0.0,0.0,0.0,0.0,0.0,0.0,0.0,0.0,0.0,0.0,0.0,1.3057,1.3854,0.0,0.0,0.0,0.0,0.0,0.0,0.0,0.0,0.0,0.0,0.0,0.0,0.0,1.8786,2.0295,2.0866,2.1424,2.1926,2.2483,2.2786,2.2862,2.2862,2.2862,2.2732,2.2425,0.0,2.0074,1.8976,0.0,0.0,0.0,0.0,0.0,0.0,0.0,0.0,0.0,0.0,0.0,0.0,0.0,0.0,0.0,0.0,0.0,0.0,0.0,0.0,0.0,0.4814,0.5307,0.5413,0.6367,0.6824,0.6426,0.6858,0.6898,0.6426,0.666,0.6904,0.7112,0.7822,0.8711,0.9795,1.1045,1.165,1.166,1.21,1.2351,1.2322,1.1709,1.1045,1.0303,0.9502,0.0,0.0,0.0,0.0,0.0,0.0,0.0,0.0,0.0,0.0,0.0,0.0,0.0,0.0,0.0,0.0,0.0,0.0,0.0,0.0,0.0,0.0,0.0,0.0,0.0,0.0,0.0,0.0,0.0,0.0,0.0,0.0,0.0,0.0,0.0,0.0,0.0,0.0,0.0,1.322,1.4701,1.4979,1.5467,1.548,0.0,0.0,0.0,0.0,0.0,0.0,0.0,0.0,0.0,2.0012,2.0351,2.1004,2.2046,2.2611,2.3012,2.3263,2.3816,2.4079,2.4079,2.4079,2.4079,2.4079,2.4079,2.3649,2.2834,2.1354,2.0565,2.0247,0.0,0.0,0.0,0.0,1.9043,1.9078,0.0,0.0,0.0,0.0,0.0,0.0,0.0,0.0,0.0,0.0,0.0,0.0,0.4308,0.5283,0.5981,0.6154,0.7306,0.7842,0.7306,0.7668,0.754,0.6802,0.7085,0.7404,0.7731,0.8878,1.0068,1.125,1.2021,1.2451,1.2559,1.2891,1.3096,1.3203,1.3203,1.2539,1.1377,1.084,1.0097,0.0,0.0,0.0,0.0,0.0,0.0,0.0,0.0,0.0,0.0,0.0,0.0,0.0,0.0,0.0,0.0,0.0,0.0,0.0,0.0,0.0,0.0,0.0,0.0,0.0,0.0,0.0,0.0,0.0,0.0,0.0,0.0,0.0,0.0,0.0,0.0,0.0,0.0,1.4726,1.607,1.5919,1.6773,1.6974,0.0,0.0,0.0,0.0,0.0,0.0,1.9045,2.0338,2.1405,2.2108,2.2673,2.3288,2.3979,2.4556,2.4908,2.5059,2.546,2.5661,2.5661,2.5661,2.5661,2.5661,2.5661,2.5661,2.5473,2.3551,2.2441,2.1912,2.168,2.1565,2.1395,2.1108,2.1017,2.1042,0.0,0.0,0.0,0.0,0.0,0.0,0.0,0.0,0.0,0.0,0.0,0.4733,0.5185,0.565,0.6169,0.6899,0.7356,0.7825,0.8277,0.8337,0.8163,0.7766,0.769,0.7711,0.778,0.9772,1.126,1.2112,1.2617,1.3047,1.3447,1.3467,1.3691,1.4019,1.4019,1.3594,1.2725,1.191,1.1508,1.1292,0.0,0.0,0.0,0.0,0.0,0.0,0.0,0.0,0.0,0.0,0.0,0.0,0.0,0.0,0.0,0.0,0.0,0.0,0.0,0.0,0.0,0.0,0.0,0.0,0.0,0.0,0.0,0.0,0.0,0.0,0.0,0.0,0.0,0.0,0.0,0.0,0.0,0.0,0.0,1.6547,1.8342,0.0,0.0,0.0,0.0,1.8154,1.961,2.0819,2.1292,2.1895,2.2736,2.3841,2.4406,2.5209,2.6345,2.6841,2.7381,2.7896,2.7934,2.7934,2.7934,2.7934,2.7934,2.7934,2.7934,2.7934,2.7733,2.5061,2.3588,2.2949,2.2455,2.1914,2.1567,2.2052,2.2241,2.2259,0.0,0.0,0.0,0.0,0.0,0.3527,0.3626,0.3569,0.3546,0.3674,0.43,0.4809,0.4963,0.6387,0.7168,0.6765,0.7929,0.8554,0.816,0.7991,0.8,0.8308,0.7783,0.8175,0.9587,1.0989,1.2051,1.2646,1.3076,1.3359,1.3516,1.3789,1.3941,1.4077,1.4077,1.3912,1.3633,1.2773,1.2126,1.1528,1.0586,0.9842,0.0,0.0,0.0,0.0,0.0,0.0,0.0,0.0,0.0,0.0,0.0,0.0,0.0,0.0,0.0,0.0,0.0,0.0,0.0,0.0,0.0,0.0,0.0,0.0,0.0,0.0,0.0,0.0,0.0,0.0,0.0,0.0,0.0,0.0,0.0,0.0,0.0,1.9083,2.0188,0.0,1.9798,2.0752,2.1255,2.0878,2.2397,2.3427,2.3615,2.4833,2.5699,2.6101,2.664,2.713,2.7519,2.7708,2.7908,2.8109,2.8109,2.8109,2.8109,2.8109,2.8109,2.8109,2.8109,2.8109,2.8034,2.7042,2.6101,2.5222,2.4644,2.4104,2.3653,2.3853,2.3929,2.3954,0.0,0.0,0.0,0.0,0.3744,0.3668,0.3744,0.3605,0.3594,0.3908,0.4567,0.5103,0.5384,0.6919,0.778,0.7328,0.8489,0.9005,0.8407,0.8161,0.8067,0.8181,0.8015,0.8844,1.0899,1.1909,1.2656,1.3096,1.3516,1.3799,1.3945,1.4219,1.4424,1.4561,1.4561,1.4482,1.4316,1.376,1.3018,1.2178,1.1748,1.1055,1.0205,0.0,0.0,0.0,0.0,0.0,0.0,0.0,0.0,0.0,0.0,0.0,0.0,0.0,0.0,0.0,0.0,0.0,0.0,0.0,0.0,0.0,0.0,0.0,0.0,0.0,0.0,0.0,0.0,0.0,0.0,0.0,0.0,0.0,0.0,0.0,1.9861,2.063,2.182,2.2385,2.182,2.2774,2.3351,2.3175,2.4707,2.5649,2.5649,2.6866,2.7557,2.7557,2.8097,2.8386,2.8386,2.8574,2.8674,2.8674,2.8674,2.8674,2.8674,2.8674,2.8674,2.8674,2.8674,2.8674,2.8674,2.8674,2.8122,2.7243,2.6666,2.6239,2.5925,2.5925,2.5925,2.5925,0.0,0.0,0.0,0.3911,0.3911,0.3986,0.4232,0.3828,0.3824,0.4701,0.5147,0.571,0.6562,0.7236,0.7925,0.8621,0.8931,0.909,0.9066,0.8844,0.832,0.7447,0.8407,0.9787,1.1558,1.2461,1.3105,1.3525,1.3945,1.4365,1.4785,1.4795,1.5029,1.541,1.541,1.5186,1.4805,1.4805,1.4316,1.3506,1.3076,1.243,1.1596,0.0,0.0,0.0,0.0,0.0,0.0,0.0,0.0,0.0,0.0,0.0,0.0,0.0,0.0,0.0,0.0,0.0,0.0,0.0,0.0,0.0,0.0,0.0,0.0,0.0,0.0,0.0,0.0,0.0,0.0,0.0,0.0,0.0,1.8254,2.0627,2.1945,2.0995,2.3213,2.4243,2.2623,2.4406,2.546,2.4958,2.6427,2.7331,2.7331,2.7858,2.816,2.816,2.8674,2.895,2.895,2.9515,2.9792,2.9792,2.9792,2.9792,2.9792,2.9792,2.9792,2.9792,2.9792,2.9792,2.9792,2.9792,2.9465,2.89,2.8348,2.8122,2.8109,2.8109,2.8109,2.8109,0.0,0.0,0.3911,0.3911,0.3911,0.3869,0.3751,0.3584,0.3883,0.494,0.5233,0.5884,0.7312,0.8105,0.8409,0.8162,0.8617,0.8766,0.8238,0.7594,0.7291,0.7453,0.929,1.0685,1.1512,1.2733,1.3545,1.3965,1.4394,1.4668,1.4795,1.5098,1.5303,1.541,1.541,1.5352,1.5244,1.5244,1.4922,1.4365,1.3633,1.3008,1.2479,0.0,0.0,0.0,0.0,0.0,0.0,0.0,0.0,0.0,0.0,0.0,0.0,0.0,0.0,0.0,0.0,0.0,0.0,0.0,0.0,0.0,0.0,0.0,0.0,0.0,0.0,0.0,0.0,0.0,0.0,0.0,1.9811,2.1004,2.1167,2.1832,2.2799,2.4092,2.5285,2.5988,2.5925,2.6829,2.7356,2.7218,2.7996,2.8473,2.8473,2.9013,2.9327,2.9327,2.9478,2.9553,2.9553,2.9716,2.9792,2.9792,2.9792,2.9792,2.9792,2.9792,2.9792,2.9792,2.9792,2.9792,2.9792,2.9792,2.9691,2.9503,2.8925,2.8461,2.8109,2.8109,2.8109,2.8109,0.0,0.3911,0.4027,0.3931,0.3986,0.4007,0.3869,0.3647,0.3868,0.4897,0.5196,0.5809,0.7135,0.7921,0.822,0.7916,0.8443,0.8527,0.776,0.7265,0.7387,0.8268,0.996,1.1038,1.1403,1.3143,1.399,1.3902,1.4665,1.5049,1.5049,1.5293,1.541,1.541,1.541,1.541,1.541,1.541,1.5273,1.499,1.4316,1.3789,1.335,1.2832,1.2266,1.1743,1.1704,1.1809,1.1958,1.1548,0.0,0.0,0.0,0.0,0.0,0.0,0.0,0.0,0.0,0.0,0.0,0.0,0.0,0.0,0.0,0.0,0.0,0.0,0.0,0.0,0.0,0.0,0.0,0.0,2.0824,2.1632,2.2922,2.343,2.4053,2.5129,2.6164,2.6876,2.6967,2.7902,2.8448,2.8448,2.8976,2.9289,2.9289,2.9616,2.9792,2.9792,2.9792,2.9792,2.9792,2.9792,2.9792,2.9792,2.9792,2.9792,2.9792,2.9792,2.9792,2.9792,2.9792,2.9792,2.9792,2.9792,2.9792,2.9767,0.0,0.0,0.0,0.0,2.8812,2.8812,0.0,0.3911,0.4191,0.3952,0.4089,0.4252,0.4252,0.3828,0.3837,0.477,0.5136,0.5678,0.668,0.7193,0.7614,0.7856,0.8346,0.8307,0.758,0.7594,0.8122,0.9256,1.0322,1.1044,1.1255,1.3405,1.4232,1.3699,1.4753,1.5294,1.541,1.541,1.5439,1.5488,1.5488,1.5508,1.5566,1.5566,1.5566,1.5518,1.5098,1.4639,1.4145,1.4097,1.3672,1.3067,1.3486,1.315,1.2508,1.239,0.0,0.0,0.0,0.0,0.0,0.0,0.0,0.0,0.0,0.0,0.0,0.0,0.0,0.0,0.0,0.0,0.0,0.0,0.0,0.0,0.0,0.0,0.0,0.0,2.0915,2.1023,2.378,2.4929,2.5318,2.4802,2.6117,2.6895,2.6458,2.7834,2.8774,2.8622,2.9247,2.9546,2.9456,2.9534,0.0,0.0,0.0,2.9792,2.9792,2.9792,2.9792,2.9792,2.9792,2.9792,2.9792,2.9792,2.9792,2.9792,2.9792,2.9792,2.9792,2.9792,2.9792,2.9792,2.9792,2.9792,2.9792,2.9792,2.9792,2.9792,0.0,0.3744,0.3973,0.3911,0.3952,0.3965,0.3965,0.371,0.3997,0.5343,0.5382,0.5946,0.7706,0.7659,0.7616,0.7874,0.8014,0.7997,0.7842,0.807,0.8349,0.8564,0.9799,1.0632,1.0961,1.2241,1.3258,1.4096,1.4296,1.4746,1.541,1.541,1.5596,1.5937,1.5937,1.6143,1.6475,1.6475,1.6475,1.6436,1.5996,1.5352,1.4619,1.4214,1.398,1.3896,1.3992,1.3993,1.3945,1.3399,1.3397,1.3453,1.2882,0.0,0.0,0.0,0.0,0.0,0.0,0.0,0.0,0.0,0.0,0.0,0.0,0.0,0.0,0.0,0.0,0.0,0.0,0.0,0.0,2.0654,2.1756,2.2922,2.4021,2.4612,2.4824,2.4378,2.5279,2.587,2.5814,2.7317,2.7873,2.7071,2.7888,2.8028,2.7221,2.7947,2.8426,2.8426,2.9287,2.9792,2.9792,2.9792,2.9792,2.9792,2.9792,0.0,2.9792,2.9792,2.9792,2.9792,2.9792,2.9792,2.9792,2.9792,2.9792,2.9792,2.9792,2.9792,2.9792,2.9792,2.9792,2.9792,0.3506,0.371,0.3911,0.3911,0.4007,0.4048,0.3931,0.3786,0.4029,0.4919,0.5044,0.5522,0.6815,0.6891,0.6915,0.704,0.7305,0.7669,0.8123,0.829,0.8437,0.8584,0.9886,1.0524,1.0293,1.1878,1.2827,1.2992,1.3786,1.4392,1.4815,1.5225,1.5644,1.6125,1.6125,1.6309,1.6665,1.6665,1.6665,1.6626,1.624,1.587,1.5381,1.4941,1.4639,1.4463,1.4463,1.4245,1.3882,1.3598,1.3459,1.3361,1.3046,1.2782,1.2594,0.0,0.0,0.0,0.0,0.0,0.0,0.0,0.0,0.0,0.0,0.0,0.0,0.0,0.0,1.8051,0.0,0.0,2.0588,2.1674,2.2071,2.2629,2.3619,2.3716,2.3766,2.4025,2.4952,2.5488,2.5239,2.6467,2.7046,2.6565,2.6964,2.7046,2.6565,2.7533,2.7844,2.729,2.8949,2.9534,2.8937,2.8937,2.8937,2.8937,2.8383,2.845,2.8937,2.8937,2.9275,2.9792,2.9792,2.9792,2.9792,2.9792,2.9792,2.9792,2.9792,2.9792,2.9792,2.9792,2.9792,2.9792,0.3584,0.371,0.3848,0.3973,0.4068,0.4109,0.3986,0.389,0.3951,0.4274,0.4595,0.5007,0.5571,0.5981,0.6243,0.635,0.68,0.7468,0.8317,0.843,0.8564,0.8798,1.0014,1.0351,0.9737,1.1571,1.2266,1.1834,1.3105,1.3906,1.4213,1.4949,1.5652,1.6201,1.6279,1.6572,1.6982,1.6982,1.6982,1.6943,1.6494,1.6331,1.6143,1.5703,1.5273,1.4893,1.4814,1.4287,1.3613,1.3535,1.3232,1.2881,1.2881,1.2949,1.2985,1.2983,1.2988,0.0,0.0,0.0,0.0,0.0,0.0,0.0,0.0,0.0,1.7167,1.6949,1.7763,1.8768,1.9717,1.996,2.0625,2.2507,2.206,2.1826,2.2941,2.2828,2.2883,2.3698,2.4583,2.4959,2.4501,2.5462,2.6058,2.5902,2.6058,2.6058,2.5808,2.686,2.7023,2.6224,2.8131,2.87,2.7775,2.7763,2.7763,2.7763,2.6883,2.7046,2.8096,2.8096,2.8688,2.9792,2.9792,2.9792,2.9792,2.9792,2.9792,2.9792,2.9792,2.9792,2.9792,2.9792,2.9792,2.9792,0.0,0.3689,0.3689,0.4171,0.389,0.3751,0.4191,0.3848,0.3662,0.3998,0.4496,0.4934,0.5291,0.586,0.6404,0.688,0.7228,0.7735,0.838,0.8617,0.8778,0.8804,0.9478,0.9795,0.9686,1.0438,1.117,1.1834,1.195,1.281,1.4213,1.4696,1.5532,1.667,1.7061,1.7471,1.7861,1.7861,1.7861,1.7832,1.7402,1.7002,1.6611,1.6162,1.5723,1.5293,1.4922,1.4473,1.3951,1.3633,1.3232,1.2881,1.2881,1.289,1.2907,1.2995,0.0,1.3091,1.3521,1.3915,1.4345,1.4683,1.526,1.6131,0.0,0.0,1.8545,1.8775,1.9814,2.029,1.9003,2.0317,2.1504,2.0991,2.1735,2.2383,2.2591,2.2889,2.3066,2.3153,2.3317,2.3327,2.3299,2.4296,2.4542,2.356,2.4382,2.4542,2.3551,2.4542,2.5115,2.4957,2.6213,2.6812,2.6719,2.6637,2.6637,2.6637,2.6565,2.7046,2.8096,2.8096,2.8688,2.9792,2.9792,2.9792,2.9792,2.9792,2.9792,2.9792,2.9792,2.9792,2.9792,2.9792,2.9792,2.9792,0.0,0.3807,0.3807,0.4027,0.4007,0.3931,0.3848,0.3911,0.3966,0.3998,0.4182,0.4509,0.497,0.5397,0.5914,0.6466,0.6941,0.7468,0.8076,0.855,0.8804,0.8804,0.9372,0.9686,0.9686,1.0261,1.0744,1.1108,1.1586,1.2135,1.281,1.3622,1.4755,1.601,1.6346,1.7111,1.7988,1.7744,1.7793,1.793,1.6992,1.666,1.666,1.5947,1.542,1.5029,1.4844,1.4346,0.0,0.0,1.3232,1.2881,1.2881,1.2881,1.289,1.2932,1.309,0.0,1.4154,1.4481,1.4734,0.0,1.6481,1.748,1.7782,1.862,1.9299,1.9222,1.9839,2.0225,1.9856,2.0916,2.179,0.0,2.2207,2.2881,2.2881,2.3027,2.3047,2.2803,2.2988,2.3135,2.3135,2.3551,2.3637,2.3135,2.3551,2.3637,2.3135,2.4211,2.4542,2.379,2.5557,2.6141,2.5546,2.5546,2.5546,2.5462,2.4808,2.5473,2.7209,2.7209,2.7775,2.8767,2.8767,2.845,2.7879,2.7879,2.7879,2.7879,2.7879,2.8279,2.8767,2.8767,2.9197,2.9702,0.0,0.4068,0.3986,0.3911,0.413,0.415,0.3689,0.3869,0.4035,0.389,0.3945,0.4213,0.4741,0.5104,0.5517,0.6028,0.6567,0.7161,0.7762,0.8357,0.8724,0.8804,0.9292,0.9599,0.9686,1.018,1.0481,1.0624,1.1163,1.1593,1.1834,1.2743,1.3805,1.4976,1.5564,1.6248,1.7005,1.7127,1.7242,1.7226,1.6558,1.6367,1.6465,1.5703,1.5078,1.4609,1.4609,1.4131,0.0,0.0,1.3027,1.2861,1.2744,1.2783,1.293,1.3164,1.3613,1.4111,1.4502,1.4951,0.0,1.624,1.751,1.842,1.8154,1.9023,1.9809,1.9688,1.9883,2.0195,2.0508,2.1289,2.1885,2.1885,2.2598,2.3135,2.3135,2.3037,2.2852,2.2549,2.2676,2.2832,2.2959,2.3066,2.3135,2.3135,2.3135,2.3135,2.3135,2.3877,2.3963,2.3135,2.4723,2.5136,2.4382,2.4296,2.4296,2.4296,2.3464,2.4145,2.6058,2.6389,2.6964,2.7683,2.7683,2.7209,2.6483,2.6483,2.6483,2.6483,2.6483,2.6953,2.7602,2.7348,2.8279,2.9624,0.0,0.0,0.4211,0.3952,0.413,0.4211,0.3931,0.3689,0.3527,0.3519,0.3794,0.4213,0.4741,0.5104,0.5397,0.5698,0.6266,0.6854,0.7486,0.8098,0.851,0.8798,0.9092,0.9385,0.9679,0.9973,1.0274,1.0624,1.0624,1.1045,1.1841,1.2243,1.2852,1.3697,1.4967,1.5089,1.451,1.6028,1.6284,1.5615,1.6392,1.6465,1.6096,1.5586,1.4893,1.4097,1.4097,0.0,0.0,0.0,1.2539,1.2812,1.2383,1.2539,0.0,1.3857,1.4687,1.5176,0.0,0.0,1.6777,1.7227,1.7978,1.8818,1.9648,1.9853,2.0,2.0439,2.0537,2.0547,2.0566,2.1289,2.1885,2.1885,2.2598,2.3135,2.3135,2.2783,2.2529,2.251,2.2168,2.209,0.0,2.29,2.3135,2.3135,2.3135,2.3135,2.3135,2.3135,2.3135,2.3135,2.3135,2.3222,2.3135,2.3135,2.3135,2.3135,2.3135,2.3714,2.4872,2.5975,2.6483,2.6554,2.6554,2.6565,2.6483,2.6483,2.6483,2.6483,2.6483,2.6483,2.6389,2.5294,2.6953,2.9624,0.0,0.0,0.0,0.4211,0.4252,0.4211,0.3952,0.3828,0.371,0.3527,0.3955,0.0,0.0,0.0,0.0,0.0,0.6072,0.6592,0.7134,0.7742,0.821,0.851,0.8985,0.923,0.9385,0.9679,0.9973,1.0267,1.0267,1.0547,1.0989,1.186,1.2708,1.368,1.4822,1.5588,1.5918,1.622,1.6495,1.6644,1.5778,1.5693,1.6047,1.5273,1.4463,1.3721,0.0,0.0,0.0,1.2422,1.252,1.2852,1.2705,0.0,0.0,1.3834,1.4541,1.5117,1.5703,0.0,1.7754,1.8467,1.9072,1.9639,2.0215,2.0342,2.0391,2.0537,2.0332,2.0137,2.0137,2.0615,2.1103,2.1406,2.2168,2.2822,2.3096,2.3018,2.2822,2.2549,2.2637,0.0,0.0,0.0,0.0,2.3115,2.3135,2.3135,2.3135,2.3135,2.3135,2.3135,2.3135,2.3135,2.3135,2.3135,2.3135,2.3135,2.3887,2.4457,2.4872,2.5975,2.6058,2.5378,2.5378,2.4967,2.4221,2.4221,2.4221,2.4221,2.4221,2.4723,2.5294,2.4957,2.5953,2.7464,0.0,0.0,0.0,0.0,0.0,0.0,0.0,0.0,0.0,0.0,0.0,0.0,0.0,0.0,0.0,0.0,0.0,0.0,0.668,0.7275,0.7742,0.8084,0.8517,0.8771,0.8931,0.9118,0.9412,0.98,0.98,0.9953,1.0315,1.0974,1.1618,1.2243,1.3498,1.4232,1.4599,1.5126,1.5515,1.5747,1.4886,1.4883,1.5303,1.46,1.3994,0.0,0.0,0.0,0.0,1.2197,1.2285,0.0,0.0,0.0,1.3633,1.4023,1.4883,1.5898,1.6738,1.7695,1.8633,1.9336,1.9834,2.0225,2.0498,2.0449,2.0332,2.0332,1.9863,1.9502,1.9658,1.9795,2.0176,2.1084,2.1699,2.2314,2.3037,2.3008,2.2812,2.2549,2.2617,2.2646,0.0,0.0,0.0,2.3105,2.3135,2.3135,2.3135,2.3135,2.3135,2.3135,2.3135,2.3135,2.3135,2.3135,2.3135,2.3135,2.38,2.4211,2.4211,2.4978,2.4893,2.4211,2.4211,2.38,2.3135,2.3135,2.3135,2.3135,2.3135,2.3551,2.4211,2.4211,2.4638,2.5221,0.0,0.0,0.0,0.0,0.0,0.0,0.0,0.0,0.0,0.0,0.0,0.0,0.0,0.0,0.0,0.0,0.0,0.0,0.6156,0.6667,0.7114,0.7473,0.7742,0.8043,0.8343,0.835,0.8631,0.9143,0.9157,0.9372,0.9659,0.9731,0.9737,0.9795,1.1287,1.1511,1.0963,1.3132,1.3648,1.3059,1.379,1.4058,1.4038,1.3662,0.0,0.0,0.0,0.0,0.0,0.0,0.0,0.0,0.0,0.0,0.0,1.4375,1.5762,1.7422,1.7471,1.8398,1.9453,1.9844,2.0254,2.0557,2.0537,2.0195,1.9873,1.9853,1.915,1.8662,0.0,0.0,1.916,2.0859,2.1211,2.1709,2.2959,2.2793,2.2549,0.0,0.0,0.0,0.0,0.0,0.0,2.3105,2.3135,2.3135,2.3135,2.3135,2.3135,2.3135,2.3135,2.3135,2.3135,2.3135,2.3135,2.3135,2.3135,2.3135,2.3135,2.3135,2.3135,2.3135,2.3135,2.3135,2.3135,2.3135,2.3135,2.3135,2.3135,2.3135,2.3135,2.3135,2.3135,2.3212,0.0,0.0,0.0,0.0,0.0,0.0,0.0,0.0,0.0,0.0,0.0,0.0,0.0,0.0,0.0,0.0,0.0,0.0,0.0,0.6172,0.6607,0.7114,0.7422,0.7729,0.8036,0.8043,0.8223,0.8597,0.8811,0.9065,0.9359,1.018,1.0572,1.0629,1.1584,1.2197,1.2529,1.3086,1.3708,1.4285,0.0,1.3857,1.4038,0.0,0.0,0.0,0.0,0.0,0.0,0.0,0.0,0.0,0.0,1.4648,1.5361,0.0,0.0,1.7988,1.8633,1.9502,2.0264,2.0371,2.0478,2.0478,2.0156,1.9746,1.9355,1.9023,1.8027,1.7256,0.0,0.0,0.0,1.9609,2.0869,0.0,2.3008,2.3047,0.0,2.2978,0.0,2.2861,2.2969,2.2978,0.0,2.3135,2.3135,2.3135,2.3135,2.3135,2.3135,2.3135,2.3135,2.3135,2.3135,2.3135,2.3135,2.3135,2.3135,2.3135,2.3135,2.3135,2.3135,2.3135,2.3135,2.3135,2.3135,2.3135,2.3135,2.3135,2.3135,2.3135,2.3135,2.3135,2.3135,2.3135,0.0,0.0,0.0,0.0,0.0,0.0,0.0,0.0,0.0,0.0,0.0,0.0,0.0,0.0,0.0,0.0,0.0,0.0,0.0,0.6165,0.6383,0.6688,0.7134,0.7368,0.7335,0.7595,0.7809,0.8024,0.0,0.0,0.8664,0.9292,0.9731,0.9986,1.0705,1.1379,1.2045,1.2295,0.0,0.0,0.0,0.0,0.0,0.0,0.0,0.0,0.0,0.0,0.0,0.0,0.0,1.4531,1.5146,1.5644,1.6162,1.7031,0.0,1.8721,1.9385,2.0049,2.0566,2.0566,2.042,2.0117,1.9502,1.8887,1.8271,1.7637,1.6641,0.0,1.6123,1.6543,0.0,0.0,0.0,0.0,2.2685,2.3027,2.3135,0.0,2.3135,0.0,2.3135,2.3135,2.3135,2.3135,2.3135,2.3135,2.3135,2.3135,2.3135,2.3135,2.3135,2.3135,2.3135,2.3135,2.3135,2.3135,2.3135,2.3135,2.3135,2.3135,2.3135,2.3135,2.3135,2.3135,2.3135,2.3135,2.3135,2.3135,2.3135,2.3135,2.3135,2.3135,2.3135,2.3135,0.0,0.0,0.0,0.0,0.0,0.0,0.0,0.0,0.0,0.0,0.0,0.0,0.0,0.0,0.0,0.0,0.0,0.0,0.0,0.0,0.0,0.6368,0.6841,0.6996,0.6777,0.7257,0.7544,0.0,0.0,0.0,0.0,0.0,0.0,0.0,0.0,0.0,0.0,0.0,0.0,0.0,0.0,0.0,0.0,0.0,0.0,0.0,0.0,0.0,0.0,0.0,1.4863,1.5117,1.6035,1.6631,1.7093,1.8018,1.8789,1.9463,1.9883,2.0273,2.0566,2.0566,2.0244,1.9678,1.876,1.79,1.7031,1.6154,0.0,1.4727,1.5088,1.5293,1.6084,1.8135,0.0,2.0518,2.2266,2.2822,2.3076,2.3135,2.3135,2.3135,2.3135,2.3135,2.3135,2.3135,2.3135,2.3135,2.3135,2.3135,2.3135,2.3135,2.3135,2.3135,2.3135,2.3135,2.3135,2.3135,2.3135,2.3135,2.3135,2.3135,2.3135,2.3135,2.3135,2.3135,2.3135,2.3135,2.3135,2.3135,2.3135,2.3135,2.3135,2.3135,2.3135,2.3135,0.0,0.0,0.0,0.0,0.0,0.0,0.0,0.0,0.0,0.0,0.6025,0.6026,0.0,0.0,0.0,0.0,0.0,0.0,0.0,0.0,0.0,0.6778,0.6575,0.6866,0.7732,0.0,0.0,0.0,0.0,0.0,0.0,0.0,0.0,0.0,0.0,0.0,0.0,0.0,0.0,0.0,0.0,0.0,0.0,0.0,0.0,0.0,0.0,0.0,0.0,0.0,1.5254,1.6055,1.7285,1.7959,1.8407,1.9326,1.9687,1.9902,2.0332,2.0508,2.0566,2.0566,2.0244,1.96,1.8398,1.7461,0.0,0.0,1.4326,1.375,1.3828,1.4697,1.5889,1.7363,1.8906,2.0518,0.0,0.0,2.2754,0.0,0.0,0.0,0.0,2.3135,0.0,2.3135,2.3135,2.3135,2.3135,2.3135,2.3135,2.3135,2.3135,2.3135,2.3135,2.3135,2.3135,2.3135,2.3135,2.3135,2.3135,2.3135,2.3135,2.3135,2.3135,2.3135,2.3135,2.3135,2.3135,2.3135,2.3135,2.3135,2.3135,2.3135,2.3135,2.3135,0.0,0.0,0.0,0.0,0.0,0.0,0.0,0.583,0.629,0.6753,0.7091,0.7266,0.7177,0.6972,0.691,0.0,0.0,0.0,0.0,0.0,0.0,0.0,0.0,0.7186,0.0,0.0,0.0,0.0,0.0,0.0,0.0,0.0,0.0,0.0,0.0,0.0,0.0,0.0,0.0,0.0,0.0,0.0,0.0,0.0,0.0,0.0,0.0,0.0,0.0,0.0,1.5019,1.5986,1.7529,1.8301,1.8809,1.9658,1.9912,2.001,2.0449,2.0566,2.0566,2.0566,1.9902,1.8916,1.7637,0.0,0.0,0.0,1.3467,1.3184,1.3184,1.4043,0.0,1.6182,1.7617,1.9277,0.0,0.0,0.0,0.0,0.0,0.0,0.0,2.3135,2.3135,2.3135,2.3135,2.3135,2.3135,2.3135,2.3135,2.3135,2.3135,2.3135,2.3135,2.3135,2.3135,2.3135,2.3135,2.3135,2.3135,2.3135,2.3135,2.3135,2.3135,2.3135,2.3135,2.3135,2.3135,2.3135,2.3135,2.3135,2.3135,2.3135,2.3135,2.3135,0.0,0.0,0.0,0.0,0.0,0.0,0.0,0.634,0.6855,0.7549,0.8078,0.8332,0.821,0.7717,0.7467,0.0,0.0,0.0,0.0,0.0,0.0,0.0,0.0,0.0,0.0,0.0,0.0,0.0,0.0,0.0,0.0,0.0,0.0,0.0,0.0,0.0,0.0,0.0,0.0,0.0,0.0,0.0,0.0,0.0,0.0,0.0,0.0,0.0,0.0,0.0,1.4502,1.5391,1.6855,1.7861,1.8652,1.9414,1.9766,1.999,2.0332,2.0498,2.0566,2.0566,1.959,1.8301,1.7021,1.5723,0.0,0.0,1.2881,1.2881,1.2881,0.0,1.4253,0.0,1.6445,1.8018,2.0254,0.0,0.0,0.0,0.0,0.0,2.3135,2.3135,0.0,2.3135,2.3135,2.3135,2.3135,2.3135,2.3135,2.3135,2.3135,2.3135,2.3135,2.3135,2.3135,2.3135,2.3135,2.3135,2.3135,2.3135,2.3135,2.3135,2.3135,2.3135,2.3135,2.3135,2.3135,2.3135,2.3135,2.3135,2.3135,2.3135,2.3135,2.3135,0.0,0.0,0.0,0.0,0.0,0.0,0.0,0.6958,0.7733,0.9173,0.8746,0.8609,0.9422,0.878,0.8123,0.0,0.0,0.0,0.0,0.0,0.0,0.0,0.0,0.0,0.0,0.0,0.0,0.0,0.0,0.0,0.0,0.0,0.0,0.0,0.0,0.0,0.0,0.0,0.0,0.0,0.0,0.0,0.0,0.0,0.0,0.0,0.0,0.0,0.0,0.0,0.0,1.4291,1.4912,1.6455,1.8154,1.8623,0.0,0.0,1.9961,2.0264,2.0566,2.0566,1.959,1.8301,1.7021,0.0,0.0,1.3145,1.2881,1.2881,1.2881,1.3262,1.3965,1.5205,0.0,1.7676,0.0,0.0,0.0,0.0,0.0,0.0,2.3135,2.3135,2.3135,2.3135,2.3135,2.3135,2.3135,2.3135,2.3135,2.3135,2.3135,2.3135,2.3135,2.3135,2.3135,2.3135,2.3135,2.3135,2.3135,2.3135,2.3135,2.3135,2.3135,2.3135,2.3135,2.3135,2.3135,2.3135,2.3135,2.3135,2.3135,2.3135,2.3135,2.3135,0.0,0.0,0.0,0.0,0.0,0.0,0.6531,0.6703,0.7247,0.8487,0.8557,0.8652,0.9101,0.9092,0.8784,0.8132,0.0,0.0,0.0,0.0,0.0,0.0,0.0,0.0,0.0,0.0,0.0,0.0,0.0,0.0,0.0,0.0,0.0,0.0,0.0,0.0,0.0,0.0,0.0,0.0,0.0,0.0,0.0,0.0,0.0,0.0,0.0,0.0,0.0,0.0,0.0,0.0,1.3965,1.4961,0.0,0.0,1.8301,1.8936,1.9707,2.0234,2.0498,2.0244,1.9209,1.792,1.6621,0.0,1.4111,1.3086,1.2881,1.2881,1.2881,1.3018,1.3467,1.4482,1.4941,1.5986,1.832,1.9238,0.0,0.0,2.2451,0.0,0.0,0.0,2.3135,2.3135,2.3135,2.3135,2.3135,2.3135,2.3135,2.3135,2.3135,2.3135,2.3135,2.3135,2.3135,2.3135,2.3135,2.3135,2.3135,2.3135,2.3135,2.3135,2.3135,2.3135,2.3135,2.3135,2.3135,2.3135,2.3135,2.3135,2.3135,2.3135,2.3135,2.3135,0.0,0.0,0.0,0.0,0.0,0.6427,0.6713,0.692,0.7414,0.8419,0.8563,0.872,0.9175,0.9114,0.8928,0.8656,0.8251,0.0,0.0,0.0,0.0,0.0,0.0,0.0,0.0,0.0,0.0,0.0,0.0,0.0,0.0,0.0,0.0,0.0,0.0,0.0,0.0,0.0,0.0,0.0,0.0,0.0,0.0,0.0,0.0,0.0,0.0,0.0,0.0,0.0,0.0,0.0,0.0,0.0,0.0,0.0,1.7285,1.8047,1.9072,1.9756,2.0117,1.9805,1.8769,1.751,0.0,1.5059,1.3896,1.3057,1.2881,1.2881,1.2881,1.2881,1.3115,1.3828,1.416,1.5088,1.7266,1.8301,0.0,0.0,0.0,2.249,2.291,2.3066,2.3135,2.3135,2.3135,2.3135,2.3135,2.3135,2.3135,2.3135,2.3135,2.3135,2.3135,2.3135,2.3135,2.3135,2.3135,2.3135,2.3135,2.3135,2.3135,2.3135,2.3135,2.3135,2.3135,2.3135,2.3135,2.3135,2.3135,2.3135,2.3135,2.3135,2.3135,2.3135,0.0,0.0,0.0,0.0,0.0,0.0,0.7319,0.7901,0.8675,0.9755,0.907,0.8914,1.0064,0.8897,0.8393,0.9295,0.9008,0.0,0.0,0.0,0.0,0.0,0.0,0.0,0.0,0.0,0.9399,0.9014,1.036,0.0,0.0,0.0,0.0,0.0,0.0,0.0,0.0,0.0,0.0,0.0,0.0,0.0,0.0,0.0,0.0,0.0,0.0,0.0,0.0,0.0,0.0,0.0,0.0,0.0,0.0,0.0,1.6357,1.749,1.791,1.8652,1.9297,1.9297,1.834,1.7158,1.6321,1.5059,1.3896,1.3057,1.2881,1.2881,1.2881,1.2881,1.3018,1.3447,1.4228,1.5537,1.7695,1.874,0.0,0.0,0.0,2.206,2.248,2.2891,2.3135,2.3135,2.3135,2.3135,2.3135,2.3135,2.3135,2.3135,2.3135,2.3135,2.3135,2.3135,2.3135,2.3135,2.3135,2.3135,2.3135,2.3135,2.3135,2.3135,2.3135,2.3135,2.3135,2.3135,2.3135,2.3135,2.3135,2.3135,2.3135,2.3135,2.3135,2.3135,0.0,0.0,0.0,0.0,0.0,0.0,0.0,0.7103,0.7388,0.8102,0.7934,0.8041,0.8824,0.8802,0.8876,0.9169,0.896,0.0,0.0,0.0,0.0,0.0,0.0,0.0,0.0,0.0,1.0005,0.9874,1.0957,1.1411,0.0,0.0,0.0,0.0,0.0,0.0,0.0,0.0,0.0,0.0,0.0,0.0,0.0,0.0,0.0,0.0,0.0,0.0,0.0,0.0,0.0,0.0,0.0,0.0,0.0,0.0,0.0,0.0,1.6484,1.71,1.7471,1.7158,1.6553,1.5811,1.4941,1.4199,1.3545,1.2998,1.2881,1.2881,1.2881,1.2881,1.3311,1.46,1.5039,1.5869,1.7744,0.0,0.0,2.0879,2.2021,2.2793,2.293,2.3057,2.3135,2.3135,2.3135,2.3135,2.3135,2.3135,2.3135,2.3135,2.3135,2.3135,2.3135,2.3135,2.3135,2.3135,2.3135,2.3135,2.3135,2.3135,2.3135,2.3135,2.3135,2.3135,2.3135,2.3135,2.3135,2.3135,2.3135,2.3135,2.3135,2.3135,2.3135,2.3135,0.0,0.0,0.0,0.0,0.0,0.0,0.0,0.7027,0.7206,0.761,0.7586,0.7797,0.8464,0.8568,0.8768,0.9167,0.902,0.0,0.0,0.0,0.0,0.0,0.0,0.0,0.0,0.9992,1.0546,1.0608,1.1752,1.223,1.2103,1.2458,1.2335,0.0,0.0,0.0,0.0,0.0,0.0,0.0,0.0,0.0,0.0,0.0,0.0,0.0,0.0,0.0,0.0,0.0,0.0,0.0,0.0,0.0,0.0,0.0,1.3941,1.4685,0.0,1.6247,1.6466,1.5949,1.5663,1.5263,1.4351,1.3809,1.3389,1.2969,1.2881,1.2881,1.2881,1.2881,1.3223,1.4287,1.4727,1.5537,0.0,0.0,0.0,2.0928,0.0,0.0,2.29,2.3047,2.3135,2.3135,2.3135,2.3135,2.3135,2.3135,2.3135,2.3135,2.3135,2.3135,2.3135,2.3135,2.3135,2.3135,2.3135,2.3135,2.3135,2.3135,2.3135,2.3135,2.3135,2.3135,0.0,2.3135,2.3135,2.3135,2.3135,2.3135,2.3135,2.3135,2.3135,2.3135,0.0,0.0,0.0,0.0,0.0,0.0,0.0,0.7536,0.7811,0.8008,0.7874,0.8027,0.871,0.8203,0.8247,0.9301,0.0,0.0,0.0,0.0,0.0,0.0,0.0,0.0,0.9422,1.0362,1.0961,1.1149,1.2636,1.3127,1.2719,1.371,1.3376,1.2,1.2491,0.0,0.0,0.0,0.0,0.0,0.0,0.0,0.0,0.0,0.0,0.0,0.0,0.0,0.0,0.0,0.0,0.0,0.0,0.0,0.0,0.0,0.0,0.0,0.0,1.5949,1.6136,1.5454,1.5482,1.539,1.4344,1.3834,0.0,1.3008,1.292,1.2988,1.2959,1.292,1.2939,1.3125,1.3779,0.0,0.0,1.8047,0.0,0.0,2.2324,2.2559,2.2559,2.291,2.3135,2.3135,2.3135,2.3135,2.3135,2.3135,2.3135,2.3135,2.3135,2.3135,2.3135,2.3135,2.3135,2.3135,2.3135,2.3135,2.3135,2.3135,2.3135,2.3135,2.3135,2.3135,2.3135,2.3135,2.3135,2.3135,2.3135,2.3135,2.3135,2.3135,2.3135,2.3135,0.0,0.0,0.0,0.0,0.0,0.0,0.0,0.0,0.0,0.0,0.7365,0.7403,0.759,0.7854,0.8336,0.0,0.0,0.0,0.0,0.0,0.0,0.0,0.0,0.0,0.979,1.0854,1.1455,1.1486,1.3057,1.3802,1.3754,1.4353,1.4261,1.3557,1.368,1.3398,0.0,0.0,0.0,0.0,0.0,0.0,0.0,0.0,0.0,0.0,0.0,1.2539,0.0,0.0,0.0,0.0,0.0,0.0,0.0,0.0,1.3591,1.4115,1.4798,0.0,1.4969,1.432,1.4541,1.4762,0.0,1.4153,1.4153,0.0,0.0,0.0,0.0,0.0,0.0,1.5508,0.0,0.0,1.8398,0.0,0.0,2.2705,2.293,2.2988,2.2988,2.3076,2.3135,2.3135,2.3135,2.3135,2.3135,2.3135,2.3135,2.3135,2.3135,2.3135,2.3135,2.3135,2.3135,2.3135,2.3135,2.3135,2.3135,2.3135,2.3135,2.3135,2.3135,2.3135,2.3135,2.3135,2.3135,2.3135,2.3135,2.3135,2.3135,2.3135,2.3135,2.3135,0.0,0.0,0.0,0.0,0.0,0.0,0.0,0.0,0.0,0.0,0.0,0.741,0.7501,0.7785,0.0,0.0,0.0,0.0,0.0,0.0,0.0,0.0,0.0,1.0135,1.0135,1.1096,1.1822,1.2234,1.3456,1.4261,1.476,1.4831,1.458,1.4072,1.3821,1.3509,0.0,0.0,0.0,0.0,0.0,0.0,0.0,0.0,0.0,0.0,1.2626,1.2618,0.0,1.4112,1.3902,1.3325,0.0,0.0,0.0,0.0,1.3643,1.4053,1.4014,1.4541,1.5017,1.465,1.5023,1.5302,1.4704,0.0,0.0,0.0,0.0,0.0,0.0,0.0,0.0,0.0,1.6006,0.0,0.0,0.0,2.2197,2.3037,2.3135,2.3135,2.3135,2.3135,2.3135,2.3135,2.3135,2.3135,2.3135,2.3135,2.3135,2.3135,2.3135,2.3135,2.3135,2.3135,2.3135,2.3135,2.3135,2.3135,2.3135,2.3135,2.3135,2.3135,2.3135,2.3135,2.3135,2.3135,2.3135,2.3135,2.3135,2.3135,2.3135,2.3135,2.3135,2.3135,0.0,0.0,0.0,0.0,0.0,0.0,0.0,0.0,0.0,0.0,0.0,0.0,0.0,0.0,0.0,0.0,0.0,0.0,0.0,0.0,0.0,0.0,0.0,1.0523,1.0641,1.1285,1.2101,1.3111,1.3887,1.4741,1.5634,1.544,1.4993,1.4264,1.3756,1.3395,0.0,0.0,0.0,0.0,0.0,0.0,0.0,0.0,0.0,0.0,0.0,0.0,0.0,1.4274,1.4349,1.4035,1.4513,0.0,0.0,0.0,0.0,0.0,1.3588,1.4612,1.5683,1.5452,1.5975,1.6349,0.0,0.0,0.0,0.0,0.0,0.0,0.0,0.0,0.0,0.0,0.0,0.0,2.043,2.1465,2.2266,2.3047,2.3135,2.3135,2.3135,2.3135,2.3135,2.3135,2.3135,2.3135,2.3135,2.3135,2.3135,2.3135,2.3135,2.3135,2.3135,2.3135,2.3135,2.3135,2.3135,2.3135,2.3135,2.3135,2.3135,2.3135,2.3135,2.3135,2.3135,2.3135,2.3135,2.3135,2.3135,2.3135,2.3135,2.3135,2.3135,2.3135,0.0,0.0,0.0,0.0,0.0,0.0,0.0,0.0,0.0,0.0,0.0,0.0,0.0,0.0,0.0,0.0,0.0,0.0,0.0,0.0,0.0,1.1167,1.094,1.1083,1.1668,1.168,1.232,1.359,1.461,1.5475,1.6181,1.7156,1.6736,1.5128,1.5134,1.4338,1.3024,0.0,0.0,0.0,0.0,0.0,0.0,0.0,0.0,0.0,0.0,0.0,0.0,1.3235,1.3398,1.3336,1.3423,0.0,0.0,0.0,0.0,0.0,1.4935,1.5832,1.6108,1.5128,1.6078,1.6954,1.5813,0.0,0.0,0.0,0.0,0.0,0.0,0.0,0.0,0.0,0.0,1.9961,0.0,0.0,2.2598,2.3076,2.3135,2.3135,2.3135,2.3135,2.3135,2.3135,2.3135,2.3135,2.3135,2.3135,2.3135,2.3135,2.3135,2.3135,2.3135,2.3135,2.3135,2.3135,2.3135,2.3135,2.3135,2.3135,2.3135,2.3135,2.3135,2.3135,2.3135,2.3135,2.3135,2.3135,2.3135,2.3135,2.3135,2.3135,2.3135,2.3135,0.0,0.0,0.0,0.0,0.0,0.0,0.0,0.0,0.0,0.0,0.0,0.0,0.0,0.0,0.0,0.0,0.0,0.0,0.0,0.0,1.1543,1.2547,1.2484,1.2304,1.2121,1.2538,1.3375,1.454,1.5501,1.6376,1.7156,1.7126,1.6123,1.4337,1.4387,1.3768,1.2756,1.3605,0.0,0.0,0.0,0.0,0.0,0.0,0.0,0.0,0.0,0.0,0.0,0.0,1.3433,1.3672,1.3672,0.0,0.0,0.0,0.0,0.0,1.4125,1.5203,1.5923,1.5413,1.6809,1.8097,1.7575,0.0,0.0,0.0,0.0,0.0,0.0,0.0,1.8614,2.0144,0.0,2.1006,2.207,2.2393,2.2666,2.3086,2.3135,2.3135,2.3135,2.3135,2.3135,2.3135,2.3135,2.3135,2.3135,2.3135,2.3135,2.3135,2.3135,2.3135,2.3135,2.3135,2.3135,2.3135,2.3135,2.3135,2.3135,2.3135,2.3135,2.3135,2.3135,2.3135,2.3135,2.3135,2.3135,2.3135,2.3135,2.3135,2.3135,2.3135,2.3135,2.3135,0.0,0.0,0.0,0.0,0.0,0.0,0.0,0.0,0.0,0.0,0.0,0.0,0.0,0.0,0.0,0.0,0.0,0.0,0.0,0.0,1.1889,1.3139,1.3528,1.3518,1.3133,1.3733,1.4645,1.5788,1.6459,1.7233,1.805,1.6943,1.5469,1.381,1.381,1.329,1.2485,1.3234,1.3524,0.0,0.0,0.0,0.0,0.0,0.0,0.0,0.0,0.0,0.0,0.0,0.0,0.0,0.0,0.0,0.0,1.3323,1.3198,1.3261,1.3546,1.4638,1.5756,1.6019,0.0,1.8706,1.892,0.0,0.0,0.0,0.0,0.0,0.0,2.0005,0.0,2.253,2.2224,2.2187,2.2954,2.2817,2.2783,2.3096,2.3135,2.3135,2.3135,2.3135,2.3135,2.3135,2.3135,2.3135,2.3135,2.3135,2.3135,2.3135,2.3135,2.3135,2.3135,2.3135,2.3135,2.3135,2.3135,2.3135,2.3135,2.3135,2.3135,2.3135,2.3135,2.3135,2.3135,2.3135,2.3135,2.3135,2.3135,2.3135,2.3135,2.3135,2.3135,2.3135,0.0,0.0,0.0,0.0,0.0,0.0,0.0,0.0,0.0,0.0,0.0,0.0,0.0,0.0,0.0,0.0,0.0,0.0,0.0,0.0,1.1092,1.1626,1.2959,1.4277,1.5511,1.5302,1.5833,1.7159,1.7451,1.7959,1.8604,1.7305,1.5966,1.4701,1.4701,1.3777,1.2288,1.3333,1.3666,1.3489,0.0,0.0,0.0,0.0,0.0,0.0,0.0,0.0,0.0,0.0,0.0,0.0,0.0,0.0,1.3248,1.321,1.3198,1.3423,1.4475,1.5216,1.5944,1.6999,1.7388,0.0,1.8745,1.8945,0.0,0.0,0.0,0.0,0.0,2.225,2.3477,2.4633,2.4352,2.4106,2.4587,2.375,2.3105,2.3135,2.3135,2.3135,2.3135,2.3135,2.3135,2.3135,2.3135,2.3135,2.3135,2.3135,2.3135,2.3135,2.3135,2.3135,2.3135,2.3135,2.3135,2.3135,2.3135,2.3135,2.3135,2.3135,2.3135,2.3135,2.3135,2.3135,2.3135,2.3135,2.3135,2.3135,2.3135,2.3135,2.3135,2.3135,2.3135,2.3135,0.0,0.0,0.0,0.0,0.0,0.0,0.0,0.0,0.0,0.0,0.0,0.0,0.0,0.0,0.0,0.0,0.0,0.0,0.0,1.0673,1.1623,1.2638,1.378,1.4785,1.5662,1.6482,1.7373,1.8295,1.8625,1.8617,1.8371,1.7471,1.6141,1.4479,1.4479,1.3764,1.2603,1.3014,1.3365,1.3675,0.0,0.0,0.0,0.0,0.0,0.0,0.0,0.0,0.0,0.0,1.2638,1.3283,1.3355,1.3513,1.3648,1.3648,1.3425,1.3286,1.3747,1.4751,1.5881,1.666,0.0,0.0,0.0,0.0,0.0,0.0,0.0,0.0,0.0,0.0,2.4578,2.5721,2.5487,2.4995,2.4809,2.4457,2.3877,2.3222,2.3135,2.3135,2.3135,2.3135,2.3135,2.3135,2.3135,2.3135,2.3135,2.3135,2.3135,2.3135,2.3135,2.3135,2.3135,2.3135,2.3135,2.3135,2.3135,2.3135,2.3135,2.3135,2.3135,2.3135,2.3135,2.3135,2.3135,2.3135,2.3135,2.3135,2.3135,2.3135,2.3135,2.3135,2.3135,2.3135,0.0,0.0,0.0,0.0,0.0,0.0,0.0,0.0,0.0,0.0,0.0,0.0,0.0,0.0,0.0,0.0,0.0,0.0,0.9749,1.0609,1.1616,1.277,1.3849,1.471,1.5337,1.7004,1.8036,1.8361,1.8724,1.8608,1.8063,1.723,1.6109,1.4759,1.4538,1.4077,1.3421,1.3176,1.3412,1.3924,1.3476,1.3112,0.0,0.0,0.0,0.0,0.0,0.0,0.0,0.0,1.2552,1.3413,1.3475,1.3771,1.4084,1.4084,1.4,1.3887,1.3714,1.4776,1.6051,0.0,0.0,0.0,0.0,0.0,0.0,0.0,0.0,0.0,0.0,0.0,0.0,0.0,2.6644,2.63,2.5898,2.5199,2.4542,2.3714,2.3299,2.3135,2.3135,2.3135,2.3135,2.3135,2.3135,2.3135,2.3135,2.3135,2.3135,2.3135,2.3135,2.3135,2.3135,2.3135,2.3135,2.3135,2.3135,2.3135,2.3135,2.3135,2.3135,2.3135,2.3135,2.3135,2.3135,2.3135,2.3135,2.3135,2.3135,2.3135,2.3135,2.3135,2.3135,2.3135,0.0,0.0,0.0,0.0,0.0,0.0,0.0,0.0,0.0,0.0,0.0,0.0,0.0,0.0,0.0,0.0,0.0,0.0,0.9303,0.9988,1.0765,1.1559,1.2881,1.3968,1.4779,1.6748,1.7595,1.7208,1.7583,1.78,1.7768,1.6424,1.5783,1.579,1.5105,1.482,1.475,1.4015,1.3939,1.4171,1.2789,1.2458,0.0,0.0,0.0,0.0,0.0,0.0,0.0,0.0,1.2639,1.3241,1.3426,1.3973,1.4501,1.4501,1.4994,1.5399,1.4865,1.557,0.0,0.0,0.0,0.0,0.0,0.0,0.0,0.0,0.0,2.5963,2.708,0.0,0.0,2.7934,2.8139,2.8084,2.8096,2.6191,2.4872,2.4787,2.38,2.3135,2.3135,2.3135,2.3135,2.3135,2.3135,2.3135,2.3135,2.3135,2.3135,2.3135,2.3135,2.3135,2.3135,2.3135,2.3135,2.3135,2.3135,2.3135,2.3135,2.3135,2.3135,2.3135,2.3135,2.3135,2.3135,2.3135,2.3135,2.3135,2.3135,2.3144,2.3135,2.3135,2.3135,2.3135,0.0,0.0,0.0,0.0,0.0,0.0,0.0,0.0,0.0,0.0,0.0,0.0,0.0,0.0,0.0,0.0,0.0,0.0,0.9303,1.0127,1.0912,1.1571,1.2619,1.3415,1.393,1.5089,1.6433,1.7986,1.7624,1.7411,1.736,1.6506,1.6112,1.6147,1.5934,1.5424,1.4677,1.3994,1.4042,1.4495,1.3606,1.3204,0.0,0.0,0.0,0.0,0.0,0.0,0.0,0.0,0.0,0.0,1.3546,1.427,1.4907,1.4907,1.5529,1.609,1.5408,0.0,0.0,0.0,0.0,0.0,0.0,0.0,0.0,0.0,2.7205,2.7457,2.7795,2.772,0.0,2.8561,2.8636,2.8497,2.8116,2.751,2.686,2.6058,2.5724,2.5147,2.4382,2.5052,2.5136,2.4382,2.4296,2.4296,2.4296,2.4296,2.3963,2.3135,2.3877,2.4296,2.4296,2.4296,2.4723,2.5473,2.5473,2.4638,2.3135,2.3135,2.3135,2.3135,2.3135,2.3135,2.3135,2.3135,2.3135,2.3135,2.3135,2.3551,2.4296,2.4296,2.4296,2.4296,0.0,0.0,0.0,0.0,0.0,0.0,0.0,0.0,0.0,0.0,0.0,0.0,0.0,0.0,0.0,0.0,0.0,0.0,0.0,0.9987,1.0739,1.174,1.2266,1.303,1.4125,1.4633,1.5571,1.698,1.6824,1.6837,1.6984,1.6598,1.657,1.6898,1.6898,1.6354,1.5452,1.4751,1.4619,1.4854,1.4145,1.3709,1.3463,0.0,0.0,0.0,0.0,0.0,0.0,0.0,0.0,0.0,1.3271,0.0,1.4702,1.5213,1.5808,1.6346,1.6465,0.0,0.0,0.0,0.0,0.0,0.0,0.0,0.0,0.0,0.0,2.7908,2.8348,2.8247,2.8285,2.8837,2.9114,2.9135,2.8809,2.8347,2.7844,2.7209,2.6719,2.6224,2.5546,2.6141,2.6224,2.5546,2.5462,2.5462,2.5462,2.5462,2.5136,2.4478,2.5136,2.5462,2.5462,2.5462,2.5797,2.6483,2.6483,2.5808,2.4478,2.4478,2.4478,2.4478,2.4478,2.4478,2.4478,2.4478,2.4221,2.38,2.38,2.3877,2.4211,2.4628,2.4787,2.4872,0.0,0.0,0.0,0.0,0.0,0.0,0.0,0.0,0.0,0.0,0.0,0.0,0.0,0.0,0.0,0.0,0.0,0.0,0.0,0.0,1.0415,1.2021,1.2053,1.2925,1.4872,1.4925,1.4925,1.4909,1.5506,1.6083,1.6618,1.6597,1.7016,1.7811,1.7743,1.7287,1.6563,1.5798,1.5375,1.5069,1.4427,1.3989,1.3746,1.3746,0.0,0.0,0.0,0.0,0.0,0.0,0.0,0.0,1.2786,1.3256,1.4049,1.5349,1.5934,1.6413,0.0,0.0,0.0,0.0,0.0,0.0,0.0,0.0,0.0,0.0,0.0,2.7733,2.875,2.8561,2.8423,2.8925,2.9453,2.9792,2.9792,2.8937,2.8255,2.8255,2.7371,2.673,2.6637,2.673,2.673,2.6637,2.6637,2.6637,2.6637,2.6637,2.6637,2.6483,2.6554,2.6637,2.6637,2.6637,2.673,2.6812,2.6812,2.6812,2.6812,2.6565,2.6483,2.6483,2.6483,2.6483,2.6483,2.6483,2.588,2.4957,2.4957,2.4382,2.3714,2.4702,2.5115,2.5284,0.0,0.0,0.0,0.0,0.0,0.0,0.0,0.0,0.0,0.0,0.0,0.0,0.0,0.0,0.0,0.0,0.0,0.0,0.0,0.0,1.0415,1.2021,1.3116,1.3892,1.4356,1.4356,1.4288,1.4147,1.4755,1.5383,1.6068,1.5894,1.6542,1.7777,1.7185,1.6546,1.5781,1.5054,1.4695,1.4639,1.4489,1.4238,1.4012,1.4012,1.3433,0.0,0.0,0.0,0.0,0.0,0.0,0.0,1.2705,1.3256,1.3974,1.4767,1.6129,1.7504,0.0,0.0,0.0,0.0,0.0,0.0,0.0,0.0,0.0,2.7344,2.8059,2.8649,2.8888,2.9202,2.9465,2.9591,2.9716,2.9792,2.9792,2.9624,2.9443,2.9443,2.9209,2.87,2.7855,2.853,2.87,2.7844,2.7775,2.7775,2.7775,2.7775,2.7371,2.6565,2.729,2.7775,2.7775,2.7775,2.8187,2.9118,2.9118,2.9118,2.904,2.7302,2.6483,2.6483,2.6483,2.6483,2.6483,2.6483,2.6389,2.6141,2.6141,2.6461,2.7012,2.7267,2.7429,2.7429,0.0,0.0,0.0,0.0,0.0,0.0,0.0,0.0,0.0,0.0,0.0,0.0,0.0,0.0,0.0,0.0,0.0,0.0,0.0,0.9768,1.0445,1.2021,1.3541,1.4332,1.4332,1.4332,1.4295,1.4188,1.441,1.4977,1.5901,1.6546,1.7365,1.8302,1.7557,1.6813,1.6072,1.4969,1.4494,1.4494,1.4494,1.4422,1.4293,1.4293,1.3752,1.2944,1.2684,0.0,0.0,0.0,0.0,0.0,0.0,0.0,1.3535,1.4667,1.5652,1.6767,0.0,0.0,0.0,0.0,0.0,0.0,0.0,0.0,0.0,2.6829,2.7557,2.8298,2.8837,2.9176,2.9465,2.9741,2.9792,2.9792,2.9792,2.9792,2.9792,2.9792,2.9792,2.9534,2.8937,2.9456,2.9534,2.8937,2.8937,2.8937,2.8937,2.8937,2.87,2.8131,2.8609,2.8937,2.8937,2.8937,2.9197,2.9792,2.9792,2.9792,2.9792,2.8633,2.8051,2.8051,2.8051,2.8051,2.8051,2.8051,2.7799,2.729,2.729,2.7279,2.7371,2.7924,2.8096,2.8176,0.0,0.0,0.0,0.0,0.0,0.0,0.0,0.0,0.0,0.0,0.0,0.0,0.0,0.0,0.0,0.0,0.0,0.0,0.0,0.9968,1.0639,1.2049,1.3508,1.4297,1.4297,1.4297,1.4297,1.4297,1.4265,1.4916,0.0,1.7348,1.8232,1.8819,1.8085,1.7314,1.6489,1.5146,1.4464,1.431,1.431,1.431,1.431,1.431,1.3921,1.3363,1.3103,1.3031,1.3015,1.2722,0.0,0.0,0.0,0.0,1.3198,1.4483,1.4932,1.5527,0.0,0.0,0.0,0.0,0.0,0.0,0.0,0.0,2.6533,2.6533,2.6904,2.7557,2.8473,2.8725,2.8976,2.9553,2.9641,2.9679,2.9779,2.9792,2.9792,2.9792,2.9792,2.9792,2.9792,2.9792,2.9792,2.9792,2.9792,2.9792,2.9792,2.9792,2.9792,2.9792,2.9792,2.9792,2.9792,2.9792,2.9792,2.9792,2.9792,2.9792,2.9792,2.9792,2.9792,2.9792,2.9792,2.9792,2.9792,2.9792,2.9275,2.8426,2.8426,2.7867,2.7221,2.8108,2.8426,2.8518,0.0,0.0,0.0,0.0,0.0,0.0,0.0,0.0,0.0,0.0,0.0,0.9805,0.9875,0.9875,0.0,0.0,0.0,0.0,0.9893,0.0,0.0,1.2068,1.2968,1.3464,1.3464,1.3464,1.3464,1.3464,1.4128,0.0,0.0,0.0,0.0,1.8612,1.7858,1.6992,1.6042,1.521,1.4332,1.3549,1.3549,1.3549,1.3549,1.3549,1.3498,1.3363,1.3103,1.3156,1.326,1.2762,1.3213,0.0,0.0,0.0,1.3553,1.3495,1.4289,1.5449,0.0,0.0,0.0,0.0,0.0,0.0,0.0,0.0,2.6533,0.0,2.6904,2.7318,2.7469,2.7896,2.8398,2.895,2.9038,2.9214,2.9729,2.9792,2.9792,2.9792,2.9792,2.9792,2.9792,2.9792,2.9792,2.9792,2.9792,2.9792,2.9792,2.9792,2.9792,2.9792,2.9792,2.9792,2.9792,2.9792,2.9792,2.9792,2.9792,2.9792,2.9792,2.9792,2.9792,2.9792,2.9792,2.9792,2.9792,2.9792,2.9702,2.9534,2.9534,2.9456,2.9378,2.9534,2.9534,2.9611,0.0,0.0,0.0,0.0,0.0,0.0,0.0,0.0,0.0,0.0,0.0,0.9875,0.9887,0.9938,0.0,0.0,0.0,0.0,0.9965,1.0653,0.0,1.1475,1.2225,1.2637,1.2637,1.2637,1.2858,1.3298,0.0,0.0,0.0,1.7037,1.8036,0.0,0.0,0.0,1.7326,0.0,0.0,1.3509,1.3509,1.4074,1.4813,1.3868,1.4091,1.4762,1.3632,1.3311,1.3363,1.3122,1.3776,1.4463,1.338,0.0,0.0,0.0,0.0,0.0,0.0,0.0,0.0,0.0,0.0,0.0,0.0,0.0,2.6473,2.6097,2.6427,2.6917,2.7218,2.7482,2.7821,2.8373,2.8461,2.8662,2.9239,2.9315,2.9428,2.9754,2.9792,2.9792,2.9792,2.9792,2.9792,2.9792,2.9792,2.9792,2.9792,2.9792,2.9792,2.9792,2.9792,2.9792,2.9792,2.9792,2.9792,2.9792,2.9792,2.9792,2.9792,2.9792,2.9792,2.9792,2.9792,2.9792,2.9792,2.9792,2.9792,2.9792,2.9792,2.9792,2.9792,2.9792,2.9792,2.9792,0.0,0.0,0.0,0.0,0.0,0.0,0.0,0.0,0.0,0.0,0.0,0.0,0.9949,0.0,0.0,0.0,0.0,0.0,1.0001,0.0,0.0,0.0,0.0,1.1829,1.1829,1.1829,1.2115,1.2752,0.0,0.0,1.8125,1.7693,1.9353,0.0,2.0992,1.9593,0.0,0.0,0.0,0.0,1.4317,1.5065,1.6079,1.524,1.5695,1.6536,1.4744,1.4093,0.0,0.0,0.0,0.0,0.0,1.4115,0.0,0.0,0.0,0.0,0.0,0.0,0.0,0.0,0.0,0.0,0.0,0.0,2.6102,0.0,2.5937,2.6414,2.6967,2.708,2.7256,2.7808,2.7896,2.8084,2.8637,2.8725,2.8875,2.9315,2.9365,2.9365,2.9365,2.949,2.9578,2.9578,2.9704,2.9729,2.9578,2.9578,2.9578,2.9578,2.944,2.9503,2.9792,2.9792,2.9792,2.9792,2.9792,2.9792,2.9792,2.9792,2.9792,2.9792,2.9792,2.9792,2.9792,2.9792,2.9792,2.9792,2.9792,2.9792,2.9792,2.9792,2.9792,2.9792,0.0,0.0,0.0,0.0,0.0,0.0,0.0,0.0,0.0,0.0,0.0,0.0,1.0082,1.009,1.009,1.009,0.0,0.0,0.0,0.0,0.0,0.0,0.0,0.0,1.1068,1.1068,1.1106,0.0,0.0,0.0,1.8204,1.8875,2.0941,2.4023,2.241,2.0257,1.7824,0.0,0.0,0.0,0.0,1.6314,1.6545,1.7968,1.8574,1.8431,1.6607,0.0,0.0,0.0,0.0,0.0,1.4461,1.4459,1.432,0.0,0.0,0.0,0.0,0.0,0.0,0.0,0.0,0.0,0.0,0.0,2.5091,2.5504,2.5624,2.5824,2.6402,2.6571,2.6747,2.7231,2.7318,2.7519,2.8072,2.8147,2.816,2.8185,2.8197,2.8197,2.8197,2.8662,2.8976,2.8976,2.9478,2.9553,2.9001,2.8976,2.8976,2.8976,2.8461,2.8712,2.9779,2.9792,2.9792,2.9792,2.9792,2.9792,2.9792,2.9792,2.9792,2.9792,2.9792,2.9792,2.9792,2.9792,2.9792,2.9792,2.9792,2.9792,2.9792,2.9792,2.9792,2.9792,0.0,0.0,0.0,0.0,0.0,0.0,0.0,0.0,0.0,0.0,0.0,0.0,0.0,1.0094,1.0094,1.0094,1.0094,0.0,0.0,0.0,0.0,0.0,0.0,0.0,0.0,1.0301,0.0,0.0,0.0,1.2715,1.6658,1.6901,1.817,2.0335,2.1345,2.1273,2.0254,1.852,0.0,0.0,0.0,0.0,0.0,1.8965,1.9632,2.03,0.0,0.0,0.0,0.0,0.0,0.0,1.495,1.4834,1.4997,1.3958,1.4259,0.0,0.0,0.0,0.0,0.0,0.0,0.0,2.3694,2.4409,2.5012,2.4676,2.5226,2.5846,2.5933,2.6214,2.6596,2.6798,2.6753,2.6942,2.7494,2.7582,2.7708,2.8059,2.8109,2.8109,2.8109,2.8285,2.8398,2.8398,2.8599,2.8612,2.8411,2.8398,2.8398,2.8398,2.821,2.8298,2.8699,2.8712,2.8712,2.8712,2.9712,3.0177,3.019,3.1182,3.1623,3.1623,3.1623,3.0921,2.9792,2.9792,2.9792,2.9792,2.9792,2.9792,2.9792,2.9792,2.9792,2.9792,0.0,0.0,0.0,0.0,0.0,0.0,0.0,0.0,0.0,1.009,0.0,0.0,0.0,0.0,1.0094,1.0094,1.0094,1.0094,1.0094,1.0061,0.0,0.0,0.0,0.0,0.0,0.9938,0.0,0.0,0.0,0.0,0.0,1.5524,1.6588,1.8194,1.9837,2.0703,0.0,0.0,0.0,1.8715,0.0,0.0,2.0824,0.0,2.1717,2.2209,0.0,0.0,0.0,0.0,0.0,0.0,1.627,1.5522,1.505,1.407,1.4496,1.5489,1.6499,0.0,0.0,0.0,0.0,0.0,2.3536,0.0,2.4309,2.4466,2.5082,2.5747,2.6037,2.6375,2.6644,2.6526,2.6533,2.659,2.6954,2.7005,2.7143,2.7507,2.7557,2.7557,2.7557,2.772,2.7821,2.7821,2.7996,2.8021,2.7846,2.8096,2.8267,2.8425,2.8718,2.8821,2.8698,2.8821,2.8912,2.8925,3.0002,3.0472,3.0485,3.1676,3.2289,3.2303,3.251,3.1901,3.0709,3.0709,3.0709,3.0709,3.0709,3.0709,3.0709,3.0709,3.0709,3.0709,0.0,0.0,0.0,0.0,0.0,0.0,0.0,0.0,1.0094,1.0094,0.0,0.0,0.0,0.0,0.0,1.0133,1.0133,1.0133,1.0094,1.0094,0.0,0.0,0.0,0.0,0.0,0.9997,1.0024,1.0094,1.0812,1.1984,1.3558,0.0,1.6546,1.8056,1.8066,1.8482,1.9305,0.0,2.1216,2.0613,0.0,2.1784,2.2097,0.0,0.0,0.0,2.3138,2.2278,0.0,2.0365,0.0,0.0,0.0,1.6605,1.4428,1.3684,1.4514,1.5586,0.0,0.0,0.0,0.0,0.0,0.0,2.358,0.0,2.297,2.4789,2.5163,2.5548,2.6758,2.6992,2.6931,2.6553,2.6483,2.6508,2.6521,2.6533,2.6533,2.6533,2.6533,2.6533,2.6533,2.6942,2.7256,2.7326,2.7817,2.7893,2.7352,2.8075,2.8665,2.9016,3.0003,3.0333,2.9756,3.0319,3.0541,3.0541,3.0636,3.0636,3.0649,3.1337,3.1682,3.1709,3.2374,3.265,3.265,3.2593,3.2593,3.2593,3.2593,3.2593,3.2593,3.2593,3.2593,3.2593,0.0,0.0,0.0,0.0,0.0,1.0078,1.0094,1.0094,1.0094,0.0,0.0,0.0,1.0171,1.0656,1.1041,1.1041,1.1041,1.0771,1.0133,1.0094,1.009,1.0074,1.0074,1.0074,1.0074,1.0074,1.0082,1.0094,1.0264,1.0861,1.1889,1.2831,1.3794,1.481,1.6522,1.7126,1.691,1.7845,0.0,2.1363,2.0372,2.107,0.0,0.0,0.0,0.0,0.0,2.4723,2.4606,0.0,2.2431,2.1608,0.0,0.0,1.6265,1.5284,1.6035,1.7045,1.6425,0.0,0.0,0.0,0.0,0.0,0.0,0.0,2.1931,2.3453,2.4247,2.4892,2.5563,2.6553,2.7157,2.687,2.6749,2.6791,2.7285,2.6837,2.6533,2.6533,2.6533,2.6533,2.6533,2.6603,2.6942,2.753,2.7741,2.8011,2.8489,2.8736,2.8899,2.9002,2.9256,2.9352,2.9251,2.9352,2.9435,2.9435,3.0509,3.1027,3.1055,3.2367,3.2942,3.2986,3.3695,3.3973,3.3871,3.2988,3.2593,3.2593,3.2593,3.2593,3.2593,3.2593,3.2593,3.2593,0.0,0.0,0.0,1.0579,1.0637,1.0752,1.1137,1.1175,1.1175,0.0,0.0,0.0,1.1233,1.1968,1.2339,1.1973,1.1631,1.1231,1.073,1.0333,1.0133,1.0094,1.0444,1.0637,1.0637,1.0637,1.0637,1.0637,1.0238,1.0288,1.0765,1.1497,1.2064,1.2566,1.426,1.5192,1.5436,1.5499,0.0,0.0,2.1023,0.0,0.0,2.4498,2.5282,0.0,0.0,0.0,2.6154,2.5269,2.4317,0.0,0.0,0.0,1.7925,1.6998,1.7446,1.8166,1.7726,0.0,0.0,0.0,0.0,0.0,2.1439,2.1265,2.1162,2.2676,2.3584,2.4283,2.4832,2.5842,2.6736,2.7183,2.687,2.6755,2.731,2.6997,2.6844,2.7092,2.7118,2.709,2.7015,2.6973,2.7229,2.767,2.767,2.8247,2.9504,2.9566,2.969,3.0011,3.0011,3.0011,3.0011,3.0011,3.0011,3.0072,3.0933,3.1304,3.1394,3.2525,3.308,3.3125,3.3784,3.4218,3.4439,3.3694,3.3579,3.3837,3.3837,3.3837,3.3837,3.3837,3.3837,3.3837,0.0,0.0,1.0483,1.1252,1.1483,1.1834,1.27,1.2757,1.2777,0.0,1.2974,1.3051,1.3258,1.3807,1.3875,1.3185,1.2305,1.1748,1.1655,1.0834,1.0271,1.0113,1.0944,1.1348,1.1252,1.1445,1.1445,1.1252,1.0579,1.019,1.0113,1.0765,1.1065,1.1091,1.1848,1.3054,1.4511,1.4076,0.0,1.9828,2.206,2.3738,0.0,0.0,2.6977,2.7176,2.7886,2.762,2.6917,2.6822,2.5573,0.0,0.0,0.0,1.9699,1.8815,1.8874,1.9161,1.907,1.957,0.0,0.0,0.0,0.0,2.2392,2.1568,2.0817,2.2373,2.3145,2.3752,2.4401,2.5017,2.5858,2.703,2.6645,2.6458,2.709,2.7033,2.7239,2.7803,2.7872,2.783,2.7616,2.7604,2.7669,2.7734,2.7918,2.873,3.0329,3.045,3.0777,3.1467,3.1482,3.1482,3.1482,3.1482,3.1482,3.1482,3.1482,3.1482,3.1497,3.2138,3.2407,3.2437,3.3095,3.3724,3.4262,3.4538,3.494,3.5504,3.5504,3.5504,3.5504,3.5504,3.5504,3.5504,0.0,1.0656,1.1194,1.1368,1.1988,1.2719,1.3536,1.3118,1.3181,1.4541,1.4756,1.5325,1.6727,1.578,1.5255,1.579,1.4403,1.3237,1.2589,1.1738,1.0926,1.0214,1.0964,1.1079,1.0363,1.1738,1.1757,1.0344,1.0887,1.0791,1.0094,1.0251,1.0297,1.0268,1.1066,1.1996,1.3074,0.0,0.0,1.9156,1.9435,0.0,2.5729,2.5399,2.6484,2.8209,2.8378,2.8703,2.897,2.809,2.7017,2.574,0.0,0.0,0.0,2.063,2.0564,2.0869,2.0034,2.0365,2.0873,0.0,0.0,0.0,2.1446,2.1444,2.1582,2.2441,2.2881,2.3299,2.392,2.4302,2.4621,2.4882,2.5394,2.6285,2.7826,2.746,2.7074,2.7198,2.7226,2.7207,2.7135,2.7148,2.7404,2.8147,2.9261,3.0323,3.119,3.1278,3.1351,3.1482,3.1482,3.1482,3.1482,3.1482,3.1482,3.1482,3.1482,3.1482,3.1482,3.1616,3.1676,3.1706,3.2422,3.2781,3.3036,3.4698,3.5445,3.5504,3.5504,3.5504,3.5504,3.5504,3.5504,3.5504,0.0,1.081,1.1545,1.1968,1.2733,1.3733,1.4997,1.4849,1.5207,1.6913,1.7549,1.7862,1.7898,1.7501,1.7078,1.6672,1.5443,1.4343,1.3507,1.2225,1.1307,1.0872,1.1192,1.1395,1.1393,1.1825,1.1834,1.1406,1.0964,1.054,1.0094,1.0094,1.0547,1.135,1.1311,1.2484,1.4552,0.0,1.7481,2.0304,2.1053,0.0,2.6346,2.6791,2.7908,2.9251,2.9251,2.9437,2.9471,2.7998,2.7417,0.0,2.5193,2.4751,2.4649,0.0,2.2835,2.279,2.185,2.178,2.1961,2.1952,0.0,0.0,0.0,2.1495,2.1292,2.2167,2.242,2.2694,2.3378,2.3585,2.3756,2.403,2.4568,2.5349,2.6447,2.6725,2.7064,2.7709,2.748,2.737,2.7651,2.765,2.7838,2.8268,2.9392,3.0193,3.0537,3.0552,3.0702,3.1001,3.1016,3.118,3.1482,3.1482,3.1482,3.1482,3.1482,3.1482,3.1482,3.1482,3.1482,3.1497,3.1884,3.2359,3.3084,3.4133,3.4945,3.5612,3.592,3.6054,3.6006,3.5619,3.5973,3.66,0.0,1.0944,1.1872,1.2584,1.3503,1.4709,1.6253,1.6362,1.6952,1.8873,2.0012,2.0214,1.9051,1.9383,1.9227,1.8036,1.6828,1.5762,1.4883,1.3203,1.218,1.2006,1.1948,1.2166,1.2709,1.2175,1.2007,1.2219,1.0964,1.0267,1.0094,1.0267,1.1194,1.268,1.2137,0.0,0.0,0.0,0.0,2.1908,0.0,2.5236,2.6774,2.8294,2.9269,2.9846,3.0018,2.9939,2.9504,2.7959,2.7849,2.8051,2.6385,2.6115,0.0,0.0,0.0,0.0,2.3856,0.0,0.0,0.0,0.0,2.2153,0.0,0.0,0.0,2.1988,2.2102,0.0,0.0,2.2822,2.2895,2.3387,2.3786,2.4138,2.4476,2.5438,2.6542,2.7801,2.7505,2.7335,2.7726,2.7657,2.7787,2.8349,2.8793,2.9175,2.9564,2.9579,2.9804,3.0313,3.0447,3.0776,3.133,3.1407,3.1582,3.1682,3.1682,3.1796,3.1879,3.1879,3.1879,3.1879,3.1879,3.2507,3.3528,3.3818,3.4541,3.5498,3.6287,3.6596,3.6551,3.6087,3.6723,3.769,1.0094,1.1425,1.2584,1.268,1.4041,1.5445,1.6349,1.5888,1.6349,1.8859,2.063,2.1884,2.2536,2.1934,0.0,0.0,2.0166,1.8398,1.7539,1.5898,1.4609,1.3846,1.3731,1.3417,1.2796,1.3398,1.2647,1.0483,1.1002,1.0867,1.0113,1.0887,1.1776,1.2719,1.3344,0.0,0.0,0.0,1.9446,0.0,2.4485,2.5736,0.0,2.7659,2.8514,2.931,3.0067,3.0182,2.9901,2.9502,2.9326,2.9055,0.0,2.7545,2.7387,2.6299,0.0,0.0,0.0,0.0,0.0,0.0,2.4717,2.4672,2.3062,0.0,2.2929,2.2399,0.0,0.0,0.0,0.0,0.0,2.1851,2.2581,2.3158,2.3231,2.3781,2.4585,2.558,2.5773,2.5836,2.589,2.5384,2.6024,2.836,2.7554,2.7709,2.949,2.9579,2.9609,2.9684,3.0223,3.0537,3.0612,3.1225,3.1853,3.2492,3.2492,3.2788,3.3375,3.3375,3.3375,3.3375,3.3375,3.3423,3.3706,3.495,3.5156,3.484,3.6151,3.6692,3.6772,3.7351,3.7648,3.7822,1.0094,1.1502,0.0,1.2036,1.3805,1.5576,1.6435,1.8422,2.0034,2.0629,2.2231,2.3274,0.0,0.0,0.0,0.0,0.0,2.013,0.0,0.0,1.6484,1.5644,1.4607,1.4132,1.4297,1.3142,1.225,1.165,1.1006,1.0502,1.0113,1.0983,1.2387,1.4195,1.5022,0.0,1.9908,0.0,2.1023,0.0,0.0,0.0,0.0,2.8467,2.9563,2.991,3.0275,3.0323,3.0119,2.9417,2.9349,2.9383,2.8309,0.0,0.0,2.736,0.0,0.0,0.0,0.0,0.0,0.0,0.0,2.5255,2.392,2.331,2.3052,2.3196,0.0,0.0,0.0,0.0,0.0,0.0,2.2439,2.2736,2.2602,2.3036,2.3802,2.4939,2.4813,2.4825,2.5377,2.515,2.5546,2.6752,2.6242,2.6455,2.7805,2.7844,2.8203,2.8981,2.9265,2.9759,3.0492,3.0791,3.15,3.2586,3.2586,3.2933,3.3582,3.3582,3.3582,3.3582,3.3582,3.3836,3.4202,3.4824,3.5102,3.5266,3.6357,3.7025,3.7335,3.7199,3.8017,3.9049,1.0472,0.0,0.0,0.0,1.3733,1.5613,1.6486,1.9905,2.2255,2.1886,2.3335,0.0,2.3926,2.3845,0.0,0.0,2.2575,2.1803,0.0,0.0,1.8457,1.8105,1.6211,1.5469,1.6094,1.3783,1.2613,1.2734,1.1489,1.0852,1.0829,1.1695,1.3195,1.5266,1.6599,1.8792,2.1523,0.0,2.2831,2.3966,2.5428,2.6294,2.6937,2.9198,3.0198,3.0398,3.0398,3.0398,3.0309,2.9696,2.9787,3.003,2.9326,2.9418,2.9591,0.0,0.0,0.0,2.7548,2.7765,2.7929,2.653,2.6032,2.5595,2.4395,2.3809,2.3606,2.3955,2.3777,0.0,0.0,0.0,2.2977,2.2632,0.0,2.2701,2.2355,2.2584,2.3165,2.4159,2.3883,2.3995,2.4828,2.4611,2.4713,2.5455,2.5037,2.5312,2.6546,2.6587,2.7126,2.8278,2.8628,2.9365,3.0537,3.0882,3.1766,3.3145,3.3145,3.3495,3.4153,3.4153,3.4153,3.4153,3.4153,3.4447,3.4894,3.4894,3.5144,3.5673,3.6231,3.6928,3.7481,3.7388,3.8358,3.975,1.1463,1.2125,0.0,0.0,0.0,1.568,1.6559,1.8919,2.089,2.1775,0.0,0.0,0.0,0.0,0.0,0.0,0.0,2.3669,2.2853,0.0,2.0781,2.1602,1.9219,1.7891,0.0,1.6172,1.4466,1.2803,1.268,1.2617,1.2623,1.344,1.4305,1.5305,1.7804,1.9881,2.162,2.3302,2.4966,2.6563,2.7467,2.8794,3.0148,2.941,2.9679,3.0398,3.0398,3.0398,3.047,3.104,3.1234,3.129,3.1595,3.1688,3.1492,3.0433,3.0668,3.0925,2.9365,2.9792,3.0017,2.7273,2.6621,2.6136,2.4181,2.4658,2.5275,2.4541,2.5603,2.634,2.5244,2.5038,2.4654,2.3549,2.3376,0.0,0.0,2.2316,2.2429,2.2652,2.2873,2.3258,2.3903,2.2833,2.3001,2.5145,2.4112,2.4319,2.6501,2.6587,2.6901,2.7625,2.8847,2.9809,3.0592,3.1823,3.3143,3.4528,3.4528,3.4894,3.5532,3.5532,3.5532,3.5532,3.5532,3.556,3.5577,3.5577,3.5577,3.5622,3.5639,3.6146,3.7009,3.8398,3.8956,3.9123,0.0,0.0,0.0,0.0,0.0,1.6077,1.8103,2.0579,2.2539,0.0,0.0,0.0,0.0,2.6899,2.7201,0.0,0.0,2.609,2.4649,2.4096,0.0,0.0,0.0,2.0293,0.0,0.0,1.6542,1.5384,1.4202,1.3896,1.4407,1.4104,1.5009,1.6946,1.8965,2.0792,0.0,0.0,0.0,0.0,0.0,2.8909,3.0359,3.0083,3.014,3.0398,3.0398,3.0775,3.1282,3.1501,3.1828,3.2187,3.2288,3.2203,3.1955,3.1421,3.144,3.1506,3.0796,3.1265,3.137,2.8824,2.8213,2.7634,2.5348,2.5389,2.5685,2.489,2.5825,2.6517,2.5588,2.542,2.5121,2.4209,2.406,2.3702,0.0,2.2398,2.2338,0.0,0.0,0.0,2.3027,2.242,2.2359,2.3242,2.2879,2.3218,2.4552,2.5465,2.6243,2.6901,2.8174,2.9177,2.9859,3.0718,3.203,3.3884,3.3884,3.4492,3.5622,3.5622,3.5622,3.5622,3.5622,3.5622,3.5622,3.5622,3.5622,3.5622,3.5622,3.5774,3.6197,3.7719,3.8582,3.9106,1.3323,0.0,0.0,0.0,0.0,1.7468,1.9452,2.1895,0.0,0.0,2.5998,0.0,2.7241,0.0,2.8045,0.0,2.7984,2.736,2.5928,2.589,0.0,2.3906,2.3123,0.0,0.0,0.0,0.0,1.7598,1.6464,1.6008,1.6177,1.5295,1.5888,1.7779,0.0,2.1062,2.2543,0.0,2.6736,0.0,0.0,2.9448,3.0398,3.0398,3.0398,3.0436,3.0756,3.1218,3.1795,3.2391,3.2845,3.3206,3.3436,3.338,3.3127,3.2538,3.2502,3.2482,3.1737,3.2072,3.21,2.9971,2.9439,2.8796,2.6374,2.6502,2.6895,2.6095,2.6808,2.7543,2.7486,2.6762,2.5979,2.5346,2.467,2.3858,0.0,2.2463,2.2349,0.0,0.0,0.0,0.0,2.1935,2.1794,2.1941,2.2222,2.2852,2.383,2.5374,2.6504,2.7179,2.845,2.9467,3.0164,3.0768,3.1867,3.3494,3.3744,3.4308,3.5233,3.5504,3.5622,3.5622,3.5622,3.5622,3.5622,3.5622,3.5622,3.5622,3.5827,3.5898,3.6041,3.7377,3.8531,3.9445,1.4392,0.0,0.0,0.0,1.7132,0.0,0.0,0.0,2.4628,0.0,2.6381,2.7231,2.8073,2.8134,2.8118,2.8118,2.8052,2.764,2.6774,2.6783,0.0,0.0,2.4761,2.3973,2.3221,0.0,0.0,0.0,1.9277,1.8776,1.7916,1.6995,1.699,1.7856,1.9581,0.0,2.1831,2.6063,2.789,2.8102,2.9756,3.0398,3.0398,3.0398,3.0398,3.0513,3.1391,3.1737,3.2006,3.3641,3.4218,3.4364,3.4939,3.5122,3.4899,3.3809,3.3853,3.3911,3.2344,3.2302,3.2309,3.0729,3.0283,2.9659,2.731,2.8007,2.8906,2.8081,2.8594,2.9527,3.0604,2.8879,2.7173,2.6792,2.5129,2.3667,2.2946,2.2535,2.2398,0.0,0.0,0.0,0.0,0.0,2.1176,2.1276,2.2083,2.3084,2.4269,2.6129,2.7534,2.8227,2.9554,3.0589,3.1341,3.1942,3.2611,3.3355,3.4083,3.4455,3.4523,3.5267,3.5622,3.5622,3.5622,3.5622,3.5667,3.5667,3.5667,3.5739,3.6249,3.6433,3.6617,3.7592,3.8899,4.012,1.6087,1.726,1.8432,0.0,1.9139,2.0019,0.0,0.0,0.0,0.0,2.77,2.8645,2.881,2.9417,2.9783,2.9783,2.9763,0.0,0.0,0.0,0.0,2.7297,2.6545,2.5725,2.483,2.3469,0.0,2.2109,0.0,1.9452,1.9777,1.8244,1.7968,1.8799,0.0,0.0,2.2733,2.5736,2.7753,2.9041,3.0052,3.0467,3.0467,3.0417,3.0398,3.0513,3.1391,3.2083,3.2756,3.3833,3.4622,3.5185,3.5355,3.5403,3.5296,3.4802,3.4773,3.4756,3.4126,3.3867,3.356,3.2521,3.169,3.076,2.9549,3.0063,3.0558,2.9751,3.0705,3.1249,2.9759,2.8967,2.7944,2.6071,2.4644,2.3705,2.3491,0.0,0.0,2.2695,0.0,0.0,0.0,2.0928,2.0689,2.0691,2.1601,2.2545,2.3401,2.4859,2.6262,2.7518,2.8804,2.9832,3.0573,3.1204,3.1833,3.2577,3.3322,3.3964,3.4523,3.5267,3.5622,3.5622,3.5622,3.5827,3.6182,3.6182,3.6457,3.6786,3.6943,3.7351,3.7945,3.8772,3.9668,4.0578,1.7832,0.0,0.0,2.1543,0.0,0.0,2.3927,2.4547,0.0,2.7119,2.8099,0.0,2.9063,2.989,3.0398,3.0398,3.0398,0.0,2.9159,0.0,0.0,2.7948,2.7853,2.7237,2.5996,2.5111,0.0,2.3105,0.0,2.0234,1.9902,1.8531,1.8332,0.0,0.0,2.2106,2.3146,2.6064,2.8073,2.937,3.0211,3.0539,0.0,3.0467,3.0667,3.1109,3.1929,3.2526,3.3083,3.4353,3.5084,3.5493,3.5493,3.5493,3.546,3.532,3.519,3.507,3.4926,3.4655,3.4311,3.3861,3.3171,3.2305,3.1164,3.1175,3.1256,3.0815,3.1164,3.1458,3.1164,2.9659,2.7633,2.5074,2.4127,2.3692,0.0,0.0,0.0,0.0,2.2603,0.0,2.1623,2.1136,2.0494,1.9825,2.1234,2.223,2.2426,2.4563,2.6323,2.7492,2.8876,2.9966,3.0699,3.1015,3.1494,3.2102,3.2849,3.3745,3.4651,3.537,3.5963,3.6291,3.6291,3.6481,3.6764,3.6764,3.6921,3.721,3.7433,3.79,3.8546,3.9373,4.006,4.0671,1.9648,0.0,0.0,0.0,0.0,0.0,0.0,2.5854,0.0,2.7948,0.0,2.8486,2.9179,2.9948,3.0398,3.0398,0.0,3.0083,2.9313,2.9987,2.9756,2.8294,2.8794,2.8439,2.7036,2.6708,2.5505,0.0,2.2323,2.0918,1.9199,1.8544,0.0,0.0,0.0,0.0,0.0,2.6815,2.8598,2.9421,3.0263,3.0605,3.0616,3.0681,3.1157,3.1917,3.2776,3.3083,3.3314,3.4949,3.5493,3.5493,3.5493,3.5493,3.5493,3.5493,3.532,3.5138,3.5138,3.4963,3.4754,3.4754,3.4508,3.3915,3.2499,3.2001,3.1802,3.1796,3.1219,3.1287,3.3128,3.0356,2.6951,2.4342,2.3919,2.3955,0.0,0.0,0.0,0.0,0.0,0.0,2.2118,2.1621,2.0699,1.9183,2.105,2.213,2.1761,2.4654,2.6759,2.7755,2.9211,3.0383,3.1274,3.123,3.1411,3.1825,3.2639,3.3591,3.4765,3.5542,3.6374,3.719,3.719,3.721,3.7285,3.7285,3.7323,3.7451,3.7843,3.83,3.8781,3.9478,4.0057,4.0557,2.1445,0.0,0.0,0.0,0.0,2.673,2.7539,2.7558,2.7841,2.8856,2.956,3.0025,3.016,3.0302,3.0398,3.0398,3.0398,0.0,0.0,0.0,0.0,2.9967,2.941,2.8978,2.869,2.6669,2.5447,2.5081,2.2879,2.0937,1.9297,1.9862,1.9412,0.0,0.0,0.0,2.6303,2.7674,2.8766,2.9606,3.0387,3.0676,3.074,3.1415,3.1747,3.2069,3.3539,3.4007,3.4122,3.5161,3.5493,3.5493,3.5493,3.5493,3.5493,3.5493,3.5479,3.5432,3.5432,3.5223,3.5016,3.5016,3.4813,3.4557,3.4256,3.4158,3.4033,3.3766,3.3608,3.3141,3.2022,2.9622,2.7218,2.5415,2.5102,2.5322,0.0,0.0,0.0,0.0,0.0,2.2769,2.2171,2.1988,2.1539,2.0598,2.1488,2.2195,2.2476,2.3652,2.5384,2.774,2.8704,3.0009,3.1679,3.1389,3.1411,3.1825,3.2639,3.3439,3.4356,3.5395,3.6374,3.719,3.719,3.7433,3.779,3.779,3.8032,3.8451,3.8546,3.8627,3.8726,3.8854,3.9383,4.0221,0.0,0.0,0.0,0.0,0.0,0.0,2.8549,2.8855,2.9015,2.9125,2.9494,2.9737,2.9737,3.014,3.0398,3.0398,3.0398,3.0398,3.0398,3.0398,3.0398,3.0398,3.0006,2.9563,2.9102,2.7525,2.6294,2.5505,2.2975,2.1139,1.9961,1.9941,1.9707,1.9434,0.0,2.4942,0.0,2.79,2.8809,2.9668,3.0488,3.1074,3.1504,3.1821,3.2519,3.3392,3.4129,3.4646,3.5026,3.5391,3.5493,3.5493,3.5493,3.5493,3.5493,3.5493,3.5493,3.5493,3.5493,3.5417,3.5304,3.5304,3.5105,3.4908,3.4908,3.4793,3.4653,3.4508,3.4445,3.3918,3.2123,3.0057,2.8248,2.7043,2.6036,2.5676,0.0,0.0,0.0,0.0,0.0,0.0,0.0,0.0,0.0,0.0,0.0,2.1534,2.1901,2.2762,2.4264,2.659,2.7998,2.9524,3.1201,3.1652,3.2074,3.2533,3.2922,3.389,3.5321,3.5846,3.6775,3.7982,3.7982,3.8101,3.83,3.83,3.8465,3.8707,3.8707,3.8707,3.8707,3.8707,3.8946,3.9515,0.0,2.5234,0.0,0.0,2.7691,2.8457,2.9051,2.9631,2.9827,2.9339,2.925,2.925,2.9286,2.9889,3.0343,3.0398,3.0398,3.0398,3.0398,3.0398,3.0398,3.0398,3.0398,3.0083,2.939,2.8563,2.7371,2.5755,2.356,2.1945,2.084,2.0352,2.0586,2.1504,2.3691,2.5609,2.7249,2.8186,2.9199,3.0215,3.0898,3.1699,3.2461,3.2539,3.3431,3.4641,3.4769,3.5194,3.5713,3.5586,3.5522,3.5526,3.5526,3.5526,3.5493,3.5493,3.5493,3.5493,3.5493,3.5493,3.5493,3.5493,3.5354,3.519,3.519,3.5016,3.4851,3.4812,3.4734,3.4205,3.2524,3.0998,2.9607,2.8409,2.7009,2.6261,2.6845,0.0,0.0,0.0,0.0,0.0,2.4171,2.3712,2.2732,2.1048,2.107,2.1264,2.1472,2.2297,2.3722,2.576,2.765,2.9298,3.0727,3.1908,3.2763,3.3214,3.3214,3.4232,3.615,3.6256,3.7184,3.8707,3.8707,3.8707,3.8707,3.8707,3.875,3.8792,3.8792,3.8833,3.8873,3.8873,3.8873,3.9095,0.0,0.0,0.0,2.7082,2.8084,2.879,2.8912,2.9536,2.9975,2.9913,2.9763,2.9715,2.9899,2.999,3.0136,3.0367,3.0398,3.0398,3.0398,3.0398,3.0398,3.0398,3.0398,3.0359,3.0294,2.9429,2.8198,2.6591,2.5622,2.3959,2.1699,2.2461,2.3262,2.4082,2.5117,2.6542,2.8239,2.9101,3.0449,3.1953,3.2051,3.2559,3.3379,3.4141,3.455,3.4798,3.5519,3.5824,3.5868,3.5726,3.5649,3.5603,3.5603,3.5565,3.5493,3.5493,3.5493,3.5493,3.5493,3.5493,3.5493,3.5493,3.5493,3.546,3.546,3.5446,3.5354,3.5105,3.487,3.4205,3.2524,3.2071,3.1111,2.8615,2.8199,2.8159,2.7979,0.0,2.5947,2.6674,0.0,0.0,2.4135,2.2171,2.1243,2.2239,2.2329,2.2365,2.2374,2.2805,2.4136,2.6511,2.8118,2.9544,3.0787,3.192,3.2763,3.3214,3.3214,3.4075,3.5693,3.6102,3.7184,3.8707,3.8707,3.8707,3.8707,3.8707,3.8844,3.9044,3.9044,3.9257,3.9505,3.9505,3.9505,3.9637,2.6367,2.6778,2.7365,2.8088,2.8393,2.8791,2.9464,3.0028,3.0358,3.0358,2.9962,2.9731,2.9813,2.9813,2.9861,2.9977,3.0095,3.015,3.015,3.0311,3.0398,3.0398,3.0398,3.0398,3.0398,2.9544,2.8802,2.8203,2.6341,2.4969,2.4085,2.3891,2.4537,2.5889,2.6793,2.8144,2.9766,3.0195,3.1367,3.293,3.293,3.3437,3.4219,3.457,3.5019,3.5527,3.5831,3.5955,3.5942,3.5892,3.5788,3.5659,3.5669,3.5622,3.5565,3.5565,3.5545,3.5493,3.5493,3.5493,3.5493,3.5493,3.5493,3.5493,3.5493,3.5493,3.5479,3.5369,3.5239,3.4808,3.3635,3.2492,3.1371,3.0246,2.9177,2.8638,2.9006,2.7635,0.0,2.7035,0.0,0.0,0.0,2.3122,2.2444,2.3052,2.1527,2.1042,2.2139,2.2535,2.3524,2.5208,2.7969,2.9629,3.008,3.2224,3.3372,3.355,3.355,3.4407,3.6042,3.6208,3.7184,3.8707,3.8707,3.8707,3.8707,3.8707,3.8855,3.9099,3.9099,3.9289,3.9599,3.9599,3.9599,3.9656,2.6533,2.7508,2.8717,2.9819,2.957,2.9529,3.0503,3.0829,3.0916,3.0847,3.0458,3.0226,3.0321,3.0321,3.034,3.0394,3.0532,3.0614,3.0614,3.0868,3.1015,3.1015,3.1085,3.1141,3.1141,3.0525,3.011,2.9932,2.7898,2.6814,2.6648,2.5766,2.6126,2.7582,2.8501,2.9712,3.1081,3.1433,3.2409,3.3738,3.3749,3.4277,3.5059,3.5078,3.5469,3.5996,3.5996,3.5996,3.5995,3.5994,3.5909,3.5777,3.5773,3.5706,3.5635,3.5611,3.5584,3.5545,3.5526,3.5493,3.5493,3.5493,3.5493,3.5493,3.5493,3.5493,3.5493,3.5493,3.5493,3.5238,3.4353,3.2908,3.1642,3.1035,2.9874,2.9076,2.9077,2.8055,0.0,2.6976,2.5456,2.4521,2.4785,2.3708,2.3262,2.3836,2.1821,2.1193,2.2659,2.3084,2.3909,2.5285,2.8261,2.9948,3.014,3.2582,3.3807,3.3807,3.3876,3.4795,3.6436,3.6989,3.7896,3.897,3.897,3.897,3.897,3.897,3.9136,3.9389,3.9389,3.958,3.9863,3.9863,3.9863,3.9863,2.5932,2.7483,2.98,3.2387,3.1853,3.1313,3.2053,3.1948,3.1704,3.1434,3.1391,3.1494,3.1753,3.1756,3.1846,3.2052,3.2052,3.2072,3.2072,3.2326,3.2476,3.2476,3.2741,3.2872,3.2872,3.2852,3.2468,3.1679,3.0852,3.0009,2.9137,2.8395,2.849,2.9302,3.0183,3.107,3.1942,3.2804,3.3686,3.449,3.456,3.5117,3.5898,3.5957,3.5996,3.5996,3.5996,3.5996,3.5996,3.5996,3.5996,3.5976,3.5918,3.5809,3.5679,3.563,3.5603,3.5584,3.5526,3.5493,3.5493,3.5493,3.5493,3.5493,3.5493,3.5493,3.5493,3.5493,3.5493,3.5238,3.4353,3.3487,3.2276,3.0423,3.0254,2.9735,2.7879,2.7618,2.7281,2.641,2.4663,2.3841,2.4728,2.3288,0.0,2.4657,2.4028,2.3818,2.4456,2.4912,2.5949,2.7714,2.9347,3.0577,3.1366,3.2981,3.3807,3.3788,3.4068,3.5075,3.6758,3.8686,3.958,3.9599,3.9599,3.9599,3.9599,3.9599,3.9775,4.0081,4.0081,4.025,4.0489,4.0489,4.0489,4.0489,2.943,3.1041,3.2397,3.2712,3.2254,3.1876,3.192,3.2164,3.2311,3.2228,3.2706,3.3088,3.3147,3.2176,3.156,3.1617,3.1797,3.1904,3.1904,3.2109,3.2221,3.2221,3.248,3.2641,3.2641,3.2807,3.2776,3.2526,3.1718,3.1179,3.0902,3.0707,3.1021,3.1776,3.2103,3.2723,3.3561,3.3936,3.4554,3.5322,3.533,3.5519,3.5786,3.5894,3.5937,3.5937,3.5976,3.5996,3.5996,3.5996,3.5996,3.5996,3.5976,3.5915,3.5823,3.5814,3.5745,3.5661,3.5641,3.5603,3.5584,3.5584,3.5545,3.5493,3.5493,3.5493,3.5493,3.5493,3.5493,3.5064,3.3583,3.3083,3.234,3.058,3.0355,2.9982,2.8795,2.8161,2.7478,2.6614,2.5439,2.4843,2.5099,2.4583,2.4476,2.5091,2.4812,2.4651,2.4689,2.5928,2.6889,2.7434,3.0132,3.1686,3.1931,3.3596,3.4398,3.4398,3.4508,3.5396,3.7013,3.8799,3.9599,3.9599,3.9599,3.9599,3.9599,3.9599,3.9797,4.0101,4.0101,4.025,4.0489,4.0489,4.0489,4.0489,3.1861,3.3109,3.37,3.3388,3.2778,3.2422,3.266,3.289,3.3054,3.3054,3.3495,3.3807,3.3807,3.2889,3.2302,3.2302,3.2441,3.2562,3.2562,3.2758,3.2889,3.2889,3.3167,3.3365,3.3468,3.3647,3.3786,3.3891,3.3045,3.2468,3.216,3.2193,3.2635,3.3391,3.3436,3.3936,3.4757,3.4839,3.5166,3.5641,3.5661,3.5654,3.5678,3.5781,3.581,3.5843,3.5936,3.5957,3.6016,3.6367,3.6484,3.6543,3.6875,3.6953,3.6777,3.6094,3.583,3.5765,3.5706,3.5673,3.5639,3.563,3.5603,3.5545,3.5526,3.5493,3.5493,3.5493,3.5493,3.4968,3.3218,3.2891,3.2352,3.0667,3.0398,2.9987,2.8813,2.8217,2.7467,2.6255,2.5928,2.5793,2.5793,2.6,2.6296,2.6687,2.6653,2.6546,2.6429,2.7343,2.8108,2.8669,3.1278,3.2808,3.3148,3.4186,3.4694,3.4713,3.5437,3.6369,3.749,3.9164,3.9925,3.9925,3.9925,3.9925,3.9925,3.9925,4.0062,4.025,4.025,4.0375,4.0581,4.0581,4.06,4.062,3.322,3.3807,3.3921,3.4302,3.3426,3.3029,3.4035,3.3961,3.3807,3.3807,3.3807,3.3807,3.3807,3.3807,3.3807,3.3807,3.3807,3.3807,3.3807,3.4043,3.4152,3.4152,3.4486,3.4774,3.5034,3.507,3.5207,3.546,3.468,3.3872,3.3083,3.3083,3.3506,3.4295,3.4295,3.4737,3.5493,3.5493,3.5493,3.5526,3.5641,3.568,3.5699,3.5815,3.5878,3.5885,3.6016,3.6072,3.6191,3.707,3.7383,3.7519,3.834,3.8594,3.8262,3.6582,3.6035,3.5974,3.5841,3.5762,3.5721,3.57,3.5655,3.5603,3.5545,3.5526,3.5526,3.5526,3.5526,3.4988,3.3237,3.291,3.2352,3.0679,3.034,2.9756,2.8121,2.789,2.7274,2.5591,2.6159,2.6697,2.6697,2.7467,2.8275,2.8948,2.9063,2.9102,2.9102,2.9034,2.9631,3.0992,3.2599,3.3866,3.4754,3.4773,3.4792,3.4868,3.6728,3.7797,3.8142,3.9758,4.0508,4.0508,4.0489,4.0508,4.0508,4.0508,4.0508,4.0508,4.0508,4.06,4.0716,4.0708,4.0761,4.08,3.3642,3.3807,3.3815,3.3947,3.3721,3.3595,3.3858,3.3842,3.3807,3.3807,3.3807,3.3807,3.3807,3.3807,3.3807,3.3807,3.3807,3.3807,3.3807,3.3868,3.3902,3.3902,3.4165,3.4357,3.4405,3.4655,3.4926,3.519,3.5187,3.5103,3.4891,3.4891,3.4988,3.5199,3.5199,3.5315,3.5493,3.5493,3.5493,3.5565,3.6199,3.6449,3.6526,3.7252,3.7539,3.7559,3.7677,3.7724,3.777,3.8042,3.8144,3.8184,3.8496,3.8594,3.8516,3.8086,3.748,3.6953,3.6929,3.6399,3.5857,3.5838,3.5751,3.568,3.5661,3.5661,3.5661,3.5661,3.5622,3.507,3.3434,3.3,3.2372,3.0737,2.9871,2.9044,2.8044,2.789,2.7505,2.6428,2.7063,2.7582,2.7582,2.8332,2.864,2.8217,2.8736,2.9102,2.9102,3.0316,3.1162,3.1525,3.3135,3.4438,3.5304,3.5304,3.5611,3.6239,3.736,3.8289,3.9027,4.0027,4.0562,4.0658,4.0543,4.0562,4.0658,4.0658,4.0658,4.0658,4.0716,4.0754,4.0766,4.0776,4.0791,4.0791,3.3807,3.3807,3.3807,3.3807,3.3807,3.3807,3.3807,3.3807,3.3807,3.3807,3.3807,3.3807,3.3807,3.3807,3.3807,3.3807,3.3807,3.3807,3.3807,3.3807,3.3807,3.3807,3.3935,3.4074,3.42,3.4379,3.4675,3.5105,3.5258,3.5383,3.5493,3.5493,3.5493,3.5493,3.5493,3.5493,3.5512,3.5892,3.6065,3.6122,3.6969,3.7296,3.7353,3.7868,3.806,3.808,3.8161,3.8196,3.8285,3.8774,3.8963,3.9082,3.9551,3.9746,3.9785,3.9785,3.8887,3.7891,3.7891,3.7226,3.6444,3.6007,3.5844,3.5788,3.5718,3.5706,3.5706,3.5706,3.5667,3.5276,3.4019,3.3381,3.2482,3.0818,3.0121,2.9371,2.817,2.8324,2.8258,2.739,2.8055,2.8585,2.8585,2.9305,2.9602,2.9159,2.9902,3.0375,3.0375,3.2023,3.2755,3.2256,3.3891,3.5026,3.5507,3.5545,3.5968,3.681,3.77,3.8599,3.9461,4.0273,4.0677,4.075,4.0675,4.0681,4.0754,4.0754,4.0761,4.075,4.0788,4.0841,4.09,4.09,4.0932,4.0988,3.3807,3.3807,3.3807,3.3807,3.3807,3.3807,3.3807,3.3807,3.3807,3.3807,3.3807,3.3807,3.3807,3.3807,3.3807,3.3807,3.3807,3.3807,3.3807,3.3807,3.3807,3.3807,3.3807,3.3902,3.4123,3.4195,3.4449,3.4962,3.507,3.5223,3.5446,3.5493,3.5493,3.5493,3.5493,3.5584,3.5738,3.6411,3.6776,3.6969,3.7853,3.82,3.82,3.8334,3.8373,3.8373,3.8435,3.8454,3.8589,3.9473,3.9791,3.9986,4.0737,4.1051,4.115,4.1152,4.0117,3.8945,3.8828,3.8066,3.707,3.6152,3.5918,3.5895,3.5768,3.5741,3.5741,3.5741,3.5741,3.5482,3.4676,3.3789,3.2633,3.0898,3.0499,2.988,2.8318,2.885,2.9168,2.855,2.9255,2.9825,2.997,3.0595,3.0989,3.0989,3.1675,3.2092,3.2092,3.3611,3.4075,3.3169,3.4706,3.5545,3.5545,3.5603,3.6048,3.6922,3.7855,3.8761,3.9623,4.0419,4.0815,4.0843,4.081,4.0801,4.0835,4.0819,4.0823,4.0837,4.0843,4.0927,4.1023,4.1023,4.1101,4.1191,3.3807,3.3807,3.3807,3.3807,3.3807,3.3807,3.3807,3.3807,3.3807,3.3807,3.3807,3.3807,3.3807,3.3807,3.3807,3.3807,3.3807,3.3807,3.3807,3.3807,3.3807,3.3807,3.3807,3.3815,3.385,3.4074,3.4246,3.4338,3.4851,3.5122,3.5174,3.5383,3.5493,3.5493,3.5493,3.5892,3.6526,3.6661,3.7142,3.7873,3.8738,3.9104,3.9161,3.9854,4.0104,4.0104,4.0123,4.0123,4.0162,4.0431,4.054,4.059,4.0774,4.0844,4.0869,4.0991,4.084,4.0488,3.9863,3.8516,3.709,3.6191,3.5976,3.5976,3.5955,3.5954,3.5954,3.5954,3.5915,3.5619,3.4812,3.3858,3.2653,3.0958,3.0063,2.9233,2.8236,2.8851,2.9613,3.0236,3.1022,3.1806,3.2532,3.2726,3.2804,3.2804,3.2921,3.2999,3.2999,3.3958,3.4425,3.427,3.5168,3.568,3.568,3.568,3.6122,3.6997,3.7872,3.8758,3.9634,4.0431,4.0862,4.0958,4.0849,4.085,4.0971,4.0963,4.0973,4.099,4.1096,4.1144,4.1177,4.1177,4.1187,4.1191,3.3807,3.3807,3.3807,3.3807,3.3807,3.3807,3.3807,3.3807,3.3807,3.3807,3.3807,3.3807,3.3807,3.3807,3.3807,3.3807,3.3807,3.3807,3.3807,3.3807,3.3807,3.3807,3.3807,3.4009,3.4449,3.4573,3.4932,3.5553,3.5837,3.6033,3.6177,3.6455,3.6575,3.6575,3.6757,3.7046,3.743,3.7892,3.8334,3.8757,3.9604,3.995,3.9988,4.0354,4.0489,4.0489,4.0489,4.0489,4.0508,4.0581,4.0639,4.0708,4.0739,4.0769,4.0812,4.0867,4.0988,4.0937,4.0117,3.8965,3.7793,3.6914,3.6348,3.5996,3.5996,3.5996,3.5996,3.5996,3.5976,3.584,3.5469,3.425,3.3049,3.2285,3.1067,3.0072,2.9662,3.035,3.1058,3.1467,3.2226,3.2868,3.3278,3.3317,3.3317,3.3317,3.3746,3.4,3.4016,3.484,3.5301,3.5308,3.556,3.5708,3.5708,3.5772,3.6254,3.7112,3.8024,3.8915,3.979,4.0629,4.1052,4.1103,4.1037,4.1013,4.1007,4.101,4.0957,4.0901,4.0962,4.0988,4.0988,4.0988,4.0988,4.0996,3.3807,3.3807,3.3807,3.3807,3.3807,3.3807,3.3807,3.3807,3.3807,3.3807,3.3807,3.3807,3.3807,3.3807,3.3807,3.3807,3.3807,3.3807,3.3807,3.3807,3.388,3.4082,3.4266,3.4669,3.5284,3.5312,3.5717,3.6597,3.6656,3.6808,3.7009,3.7356,3.7508,3.7526,3.7859,3.8104,3.8354,3.9008,3.9411,3.9623,4.0239,4.0489,4.0489,4.0489,4.0489,4.0489,4.0489,4.0489,4.0489,4.0489,4.0581,4.0658,4.0658,4.0696,4.0735,4.0773,4.0927,4.0912,4.0077,3.9238,3.8398,3.7519,3.6641,3.5996,3.5996,3.5996,3.5996,3.5996,3.5996,3.5996,3.5996,3.4746,3.3633,3.3437,3.2324,3.1426,3.123,3.1934,3.2559,3.2754,3.332,3.3787,3.3958,3.3971,3.3961,3.3937,3.4542,3.4922,3.4937,3.5561,3.5929,3.5939,3.5801,3.5749,3.5749,3.5827,3.6192,3.6869,3.7981,3.8877,3.9561,4.0617,4.1105,4.1105,4.1105,4.1052,4.0963,4.0954,4.0887,4.0801,4.0801,4.0801,4.0801,4.0801,4.0801,4.0809,3.3807,3.3807,3.3807,3.3807,3.3807,3.3807,3.3807,3.3807,3.3807,3.3807,3.3807,3.3807,3.3807,3.3807,3.3807,3.3807,3.3807,3.3807,3.3807,3.3807,3.4137,3.4862,3.5697,3.6138,3.6193,3.6193,3.6258,3.6313,3.6589,3.6708,3.6758,3.7256,3.7508,3.7526,3.7859,3.845,3.92,3.9258,3.9719,4.0412,4.0469,4.0489,4.0489,4.0489,4.0489,4.0489,4.0489,4.0489,4.0489,4.0489,4.0508,4.0508,4.0508,4.0508,4.0562,4.0677,4.0781,4.0667,3.9923,3.918,3.8398,3.7519,3.6641,3.5996,3.5996,3.5996,3.5996,3.5996,3.5996,3.5996,3.5996,3.5234,3.4336,3.3535,3.3301,3.2969,3.2207,3.2793,3.3613,3.4414,3.457,3.4908,3.5635,3.5721,3.5665,3.5535,3.5587,3.5632,3.5624,3.5683,3.5722,3.5722,3.5824,3.5893,3.5893,3.5772,3.5758,3.5836,3.7514,3.835,3.8466,4.0096,4.0824,4.0824,4.0824,4.0821,4.0818,4.0803,4.0808,4.08,4.08,4.08,4.08,4.08,4.08,4.08,3.3807,3.3807,3.3807,3.3807,3.3807,3.3807,3.3807,3.3807,3.3807,3.3807,3.3807,3.3807,3.3807,3.3807,3.3807,3.3807,3.3807,3.3807,3.3807,3.4284,3.466,3.4972,3.5844,3.6523,3.7019,3.7037,3.7276,3.779,3.7871,3.7958,3.794,3.8321,3.8595,3.8831,3.9147,3.9572,4.0027,4.0027,4.0219,4.0489,4.0489,4.0489,4.0489,4.0489,4.0489,4.0489,4.0489,4.0489,4.0489,4.0489,4.0489,4.0489,4.0489,4.0489,4.0508,4.0562,4.0658,4.068,4.041,3.9785,3.9,3.8131,3.7253,3.6473,3.5947,3.5806,3.5806,3.5806,3.5806,3.5806,3.5806,3.5143,3.4636,3.4792,3.3949,3.3364,3.3598,3.3891,3.4203,3.4538,3.5026,3.5435,3.5756,3.5789,3.5753,3.5701,3.5693,3.5693,3.5693,3.5693,3.5693,3.5693,3.5708,3.5738,3.5776,3.5732,3.5693,3.5712,3.7472,3.8298,3.8363,4.0031,4.081,4.081,4.081,4.079,4.0739,4.0737,4.0696,4.062,4.062,4.062,4.062,4.062,4.062,4.0639,3.3807,3.3807,3.3807,3.3807,3.3807,3.3807,3.3807,3.3807,3.3807,3.3807,3.3807,3.3807,3.3807,3.3807,3.3807,3.3807,3.3807,3.3917,3.4174,3.5202,3.5789,3.5789,3.6597,3.7312,3.7845,3.7863,3.8138,3.8707,3.8707,3.8707,3.8707,3.8971,3.9212,3.9462,3.9901,4.0195,4.0372,4.0372,4.0406,4.0489,4.0406,4.0422,4.0489,4.0489,4.0489,4.0489,4.0489,4.0489,4.0489,4.0489,4.0489,4.0489,4.0489,4.0489,4.0489,4.0489,4.0581,4.0639,4.0639,4.0269,3.9694,3.8889,3.785,3.6841,3.623,3.59,3.5706,3.5706,3.5706,3.5706,3.5706,3.5251,3.5057,3.56,3.4738,3.4186,3.4796,3.4874,3.4874,3.4874,3.5368,3.5687,3.5659,3.5666,3.5661,3.5641,3.5641,3.5641,3.5641,3.5641,3.5641,3.5641,3.5603,3.5603,3.5641,3.5641,3.5641,3.5661,3.7103,3.7935,3.8251,3.9681,4.0466,4.0716,4.0716,4.0677,4.0639,4.0639,4.0581,4.0489,4.0489,4.0489,4.0489,4.0489,4.0489,4.0508,3.3807,3.3807,3.3807,3.3807,3.3807,3.3807,3.3807,3.3807,3.3807,3.3807,3.3807,3.3807,3.3807,3.3807,3.3807,3.3807,3.3807,3.4137,3.4954,3.656,3.7507,3.7526,3.8267,3.8707,3.8707,3.8707,3.8707,3.8707,3.8707,3.8707,3.8707,3.8971,3.9099,3.9125,3.9797,4.0101,4.0101,4.0101,4.025,4.0473,4.0195,4.025,4.0489,4.0489,4.0489,4.0489,4.0489,4.0489,4.0489,4.0489,4.0489,4.0489,4.0489,4.0489,4.0489,4.0489,4.0489,4.0489,4.0489,4.0489,4.0354,3.9742,3.8291,3.7011,3.7011,3.6309,3.5699,3.5699,3.5699,3.5699,3.5699,3.5699,3.5699,3.5699,3.5699,3.5699,3.5699,3.5699,3.5699,3.5699,3.5699,3.568,3.5622,3.5603,3.5584,3.5526,3.5493,3.5493,3.5493,3.5493,3.5493,3.5493,3.5493,3.5493,3.5493,3.5493,3.5493,3.5512,3.6334,3.7161,3.8027,3.8892,3.9738,4.0489,4.0489,4.0489,4.0489,4.0489,4.0489,4.0489,4.0489,4.0489,4.0489,4.0489,4.0489,4.0489,3.3807,3.3807,3.3807,3.3807,3.3807,3.3807,3.3807,3.3807,3.3807,3.3807,3.3807,3.3807,3.3807,3.3807,3.3807,3.3807,3.3807,3.4394,3.5826,3.6909,3.7734,3.8322,3.8579,3.8707,3.8707,3.8707,3.8707,3.8707,3.8707,3.8707,3.8707,3.8773,3.8923,3.9125,3.9534,3.988,4.0101,4.0101,4.0139,4.0213,4.0139,4.0139,4.0232,4.0441,4.0489,4.0489,4.0489,4.0489,4.0489,4.0489,4.0489,4.0489,4.0489,4.0489,4.0489,4.0489,4.0489,4.0489,4.0489,4.0489,4.0315,3.9585,3.8527,3.7541,3.6944,3.6142,3.5565,3.5565,3.5565,3.5565,3.5565,3.5565,3.5565,3.5565,3.5565,3.5565,3.5565,3.5565,3.5565,3.5565,3.5565,3.5565,3.5545,3.5545,3.5526,3.5493,3.5493,3.5493,3.5493,3.5493,3.5493,3.5493,3.5493,3.5417,3.5223,3.5417,3.5493,3.5512,3.6334,3.7161,3.8027,3.8657,3.941,4.0213,3.9964,3.9863,3.9863,3.9863,3.9863,3.9863,3.9863,3.9863,3.9863,3.9863,3.9863,3.9863,3.3807,3.3807,3.3807,3.3807,3.3807,3.3807,3.3807,3.3807,3.3807,3.3807,3.3807,3.3807,3.3807,3.3807,3.3807,3.3807,3.4412,3.522,3.6229,3.7349,3.8193,3.8689,3.8707,3.8707,3.8707,3.8707,3.8707,3.8707,3.8707,3.8707,3.8707,3.8707,3.8773,3.8961,3.9257,3.951,3.9712,3.9859,3.9901,3.9901,3.9901,3.9901,3.9943,4.0232,4.0267,4.0175,4.0422,4.0353,4.0175,4.0422,4.0489,4.0489,4.0489,4.0489,4.0489,4.0489,4.0489,4.0489,4.0489,4.0489,4.0373,3.9892,3.9142,3.8296,3.7411,3.6584,3.5892,3.5584,3.5493,3.5493,3.5493,3.5493,3.5493,3.5493,3.5493,3.5493,3.5493,3.5493,3.5493,3.5493,3.5493,3.5493,3.5493,3.5493,3.5493,3.5493,3.5398,3.5354,3.5354,3.5239,3.519,3.519,3.519,3.5105,3.4944,3.5105,3.519,3.519,3.6012,3.6833,3.7674,3.8308,3.9083,3.9901,3.969,3.9599,3.9599,3.9599,3.9599,3.9599,3.9599,3.9599,3.9599,3.9599,3.9599,3.9599,3.3807,3.3807,3.3807,3.3807,3.3807,3.3807,3.3807,3.3807,3.3807,3.3807,3.3807,3.3807,3.3807,3.3807,3.3807,3.3807,3.533,3.6321,3.6395,3.7845,3.8707,3.8707,3.8707,3.8707,3.8707,3.8707,3.8707,3.8707,3.8707,3.8707,3.8707,3.8707,3.8707,3.8689,3.8971,3.9099,3.9125,3.9432,3.9552,3.9552,3.9552,3.9552,3.9599,3.9922,3.988,3.9668,4.0248,4.0082,3.969,4.0266,4.0473,4.0489,4.0473,4.0473,4.0457,4.0422,4.0422,4.0422,4.0422,4.0422,4.0422,4.0422,3.9865,3.9115,3.8266,3.7329,3.6411,3.5701,3.5489,3.5432,3.5432,3.5432,3.5432,3.546,3.546,3.546,3.5493,3.5493,3.5493,3.5493,3.5493,3.5493,3.5493,3.5479,3.5446,3.5432,3.5207,3.5051,3.5051,3.4832,3.4694,3.4694,3.4694,3.4674,3.4653,3.4653,3.4674,3.4713,3.5522,3.6335,3.7128,3.7913,3.8738,3.9552,3.9529,3.9529,3.9529,3.9529,3.9529,3.9529,3.9529,3.9529,3.9529,3.9529,3.9529,3.9529,3.3807,3.3807,3.3807,3.3807,3.3807,3.3807,3.3807,3.3807,3.3807,3.3807,3.3807,3.3807,3.3807,3.3807,3.3807,3.3807,3.533,3.656,3.7184,3.8157,3.8707,3.8707,3.8707,3.8707,3.8707,3.8707,3.8707,3.8707,3.8707,3.8707,3.8707,3.8707,3.8707,3.8689,3.8971,3.9099,3.9107,3.9178,3.9212,3.9212,3.9212,3.9212,3.9238,3.9576,3.9668,3.9645,4.0062,3.9924,3.9668,4.0043,4.0339,4.0473,4.025,4.0177,4.0139,3.9863,3.98,3.98,3.98,3.98,3.98,3.98,3.9667,3.9368,3.8765,3.73,3.6026,3.5855,3.5306,3.487,3.487,3.487,3.4944,3.5138,3.519,3.5273,3.546,3.5493,3.5493,3.5493,3.5493,3.5493,3.5493,3.5304,3.5105,3.4889,3.4813,3.4793,3.4793,3.4734,3.4694,3.4694,3.4694,3.4572,3.4311,3.4311,3.4423,3.4713,3.5522,3.6335,3.7128,3.7716,3.8413,3.9205,3.898,3.8921,3.8921,3.8921,3.8921,3.8921,3.8921,3.8921,3.8921,3.8921,3.8921,3.8921,3.3807,3.3807,3.3807,3.3807,3.3807,3.3807,3.3807,3.3807,3.3807,3.3807,3.3807,3.3807,3.3807,3.3807,3.3954,3.4339,3.5899,3.7037,3.7489,3.8248,3.8707,3.8707,3.8707,3.8707,3.8707,3.8707,3.8707,3.8707,3.8707,3.8707,3.8707,3.8707,3.8707,3.8707,3.8844,3.8923,3.8923,3.9063,3.9036,3.8923,3.9063,3.9008,3.8933,3.9231,3.9282,3.9216,3.9687,3.9754,3.9599,3.9622,3.9821,4.0043,3.9922,3.9859,3.9819,3.9645,3.9599,3.9599,3.9599,3.9599,3.9599,3.9599,3.9481,3.9118,3.8203,3.7196,3.626,3.5505,3.4996,3.4694,3.4694,3.4694,3.4753,3.4889,3.4908,3.4963,3.5105,3.5122,3.5122,3.5122,3.5122,3.5122,3.5122,3.4981,3.4851,3.4694,3.4551,3.4445,3.4445,3.433,3.4279,3.4279,3.4279,3.4208,3.3993,3.3993,3.4093,3.4298,3.5504,3.6304,3.6758,3.7812,3.8524,3.8894,3.8762,3.8707,3.8707,3.8707,3.8707,3.8707,3.8707,3.8707,3.8707,3.8707,3.8707,3.8707,3.3807,3.3807,3.3807,3.3807,3.3807,3.3807,3.3807,3.3807,3.3807,3.3807,3.3807,3.3807,3.3807,3.3917,3.4339,3.5137,3.6615,3.7581,3.7679,3.8322,3.8707,3.8707,3.8707,3.8707,3.8707,3.8707,3.8707,3.8707,3.8707,3.8707,3.8707,3.8707,3.8707,3.8707,3.8707,3.8707,3.8719,3.8933,3.8894,3.8719,3.8933,3.8894,3.8719,3.8933,3.8894,3.8762,3.9327,3.9552,3.9552,3.9212,3.9314,3.9599,3.9529,3.951,3.9505,3.9457,3.9451,3.9451,3.9451,3.9451,3.9451,3.9451,3.9249,3.8707,3.7451,3.7159,3.6784,3.545,3.4961,3.4755,3.4755,3.4642,3.4569,3.4612,3.4614,3.4632,3.4694,3.4694,3.4694,3.4694,3.4694,3.4674,3.4632,3.4614,3.4612,3.4548,3.4288,3.4123,3.4123,3.3928,3.3807,3.3807,3.3807,3.3807,3.3807,3.3807,3.3807,3.3825,3.5495,3.6303,3.634,3.7973,3.8707,3.8707,3.8578,3.8546,3.8546,3.8483,3.8433,3.8433,3.8433,3.8433,3.8433,3.8433,3.8433,3.8433,3.3807,3.3807,3.3807,3.3807,3.3807,3.3807,3.3807,3.3807,3.3807,3.3807,3.3807,3.3807,3.3807,3.4431,3.5183,3.6046,3.6964,3.779,3.8487,3.8634,3.8707,3.8707,3.8707,3.8707,3.8707,3.8707,3.8707,3.8707,3.8707,3.8707,3.8707,3.8707,3.8707,3.8707,3.8707,3.8707,3.8707,3.875,3.875,3.8707,3.875,3.875,3.8707,3.875,3.8719,3.875,3.9054,3.9339,3.9552,3.9212,3.9314,3.9552,3.9264,3.9178,3.9125,3.8902,3.8822,3.8822,3.8822,3.8822,3.8822,3.8822,3.8792,3.8523,3.7642,3.745,3.7395,3.7163,3.5966,3.4971,3.4971,3.4381,3.3986,3.4242,3.4288,3.4379,3.4653,3.4694,3.4694,3.4694,3.4694,3.4591,3.4311,3.4288,3.4171,3.3928,3.3895,3.3868,3.3868,3.3815,3.3807,3.3807,3.3807,3.3807,3.3807,3.3807,3.3807,3.3825,3.5495,3.6303,3.634,3.7973,3.8707,3.8658,3.8216,3.8013,3.798,3.7596,3.7414,3.7414,3.7414,3.7414,3.7414,3.7414,3.7414,3.7414,3.3807,3.3807,3.3807,3.3807,3.3807,3.3807,3.3807,3.3807,3.3807,3.3807,3.3807,3.3807,3.3807,3.4945,3.5881,3.6266,3.7441,3.8322,3.8689,3.8707,3.8707,3.8707,3.8707,3.8707,3.8707,3.8707,3.8707,3.8707,3.8707,3.8707,3.8707,3.8707,3.8707,3.8707,3.8707,3.8707,3.8707,3.8707,3.8707,3.8707,3.8707,3.8707,3.8707,3.8707,3.8707,3.8738,3.8844,3.898,3.9073,3.8942,3.898,3.9073,3.8923,3.8884,3.8855,3.875,3.8707,3.8707,3.8707,3.8707,3.8707,3.8707,3.8707,3.8615,3.8248,3.8175,3.7918,3.7019,3.5862,3.499,3.499,3.4357,3.3842,3.3961,3.3986,3.4037,3.4184,3.4208,3.4208,3.4208,3.4208,3.4136,3.3986,3.3986,3.3928,3.3807,3.3807,3.3807,3.3807,3.3807,3.3807,3.3807,3.3807,3.3807,3.3807,3.3807,3.3807,3.3807,3.5018,3.5844,3.634,3.7973,3.8546,3.8234,3.8013,3.7755,3.7506,3.7285,3.719,3.719,3.719,3.719,3.719,3.719,3.719,3.719]},{"header":{"parameterUnit":"m.s-1","parameterCategory":1,"la1":30.6,"la2":28.766,"lo1":-90.7593,"lo2":-88.6598,"dy":0.0162,"dx":0.0183,"nx":116,"ny":114,"refTime":"2024-06-05T06:00:00:Z","depth":0,"parameterNumber":3,"parameterNumberName":"V-component_of_WINDS"},"data":[0.0,0.0,0.0,0.0,0.0,0.0,0.0,0.0,0.0,0.0,0.0,0.0,0.0,0.0,0.0,0.0,0.0,0.0,0.0,0.0,0.0,0.0,0.0,0.0,0.0,0.0,0.0,0.0,0.0,0.0,0.0,0.0,0.0,0.0,0.0,0.0,0.0,0.0,0.0,0.0,0.0,0.0,0.0,0.0,0.0,0.0,0.0,0.0,0.0,0.0,0.0,0.0,0.0,0.0,0.0,0.0,0.0,0.0,0.0,0.0,0.0,0.0,0.0,0.0,0.0,0.0,0.0,0.0,0.0,0.0,0.0,0.0,0.0,0.0,0.0,0.0,0.0,0.0,0.0,0.0,0.0,0.0,0.0,0.0,0.0,0.0,0.0,0.0,0.0,0.0,0.0,0.0,0.0,0.0,0.0,0.0,0.0,0.0,0.0,0.0,0.0,0.0,0.0,0.0,0.0,0.0,0.0,0.0,0.0,0.0,0.0,0.0,0.0,0.0,0.0,0.0,0.0,0.0,0.0,0.0,0.0,0.0,0.0,0.0,0.0,0.0,0.0,0.0,0.0,0.0,0.0,0.0,0.0,0.0,0.0,0.0,0.0,0.0,0.0,0.0,0.0,0.0,0.0,0.0,0.0,0.0,0.0,0.0,0.0,0.0,0.0,0.0,0.0,0.0,0.0,0.0,0.0,0.0,0.0,0.0,0.0,0.0,0.0,0.0,0.0,0.0,0.0,0.0,0.0,0.0,0.0,0.0,0.0,0.0,0.0,0.0,0.0,0.0,0.0,0.0,0.0,0.0,0.0,0.0,0.0,0.0,0.0,0.0,0.0,0.0,0.0,0.0,0.0,0.0,0.0,0.0,0.0,0.0,0.0,0.0,0.0,0.0,0.0,0.0,0.0,0.0,0.0,0.0,0.0,0.0,0.0,0.0,0.0,0.0,0.0,0.0,0.0,0.0,0.0,0.0,0.0,0.0,0.0,0.0,0.0,0.0,0.0,0.0,0.0,0.0,0.0,0.0,0.0,0.0,0.0,0.0,0.0,0.0,0.0,0.0,0.0,0.0,0.0,0.0,0.0,0.0,0.0,0.0,0.0,0.0,0.0,0.0,0.0,0.0,0.0,0.0,0.0,0.0,0.0,0.0,0.0,0.0,0.0,0.0,0.0,0.0,0.0,0.0,0.0,0.0,0.0,0.0,0.0,0.0,0.0,0.0,0.0,0.0,0.0,0.0,0.0,0.0,0.0,0.0,0.0,0.0,0.0,0.0,0.0,0.0,0.0,0.0,0.0,0.0,0.0,0.0,0.0,0.0,0.0,0.0,0.0,0.0,0.0,0.0,0.0,0.0,0.0,0.0,0.0,0.0,0.0,0.0,0.0,0.0,0.0,0.0,0.0,0.0,0.0,0.0,0.0,0.0,0.0,0.0,0.0,0.0,0.0,0.0,0.0,0.0,0.0,0.0,0.0,0.0,0.0,0.0,0.0,0.0,0.0,0.0,0.0,0.0,0.0,0.0,0.0,0.0,0.0,0.0,0.0,0.0,0.0,0.0,0.0,0.0,0.0,0.0,0.0,0.0,0.0,0.0,0.0,0.0,0.0,0.0,0.0,0.0,0.0,0.0,0.0,0.0,0.0,0.0,0.0,0.0,0.0,0.0,0.0,0.0,0.0,0.0,0.0,0.0,0.0,0.0,0.0,0.0,0.0,0.0,0.0,0.0,0.0,0.0,0.0,0.0,0.0,0.0,0.0,0.0,0.0,0.0,0.0,0.0,0.0,0.0,0.0,0.0,0.0,0.0,0.0,0.0,0.0,0.0,0.0,0.0,0.0,0.0,0.0,0.0,0.0,0.0,0.0,0.0,0.0,0.0,0.0,0.0,0.0,0.0,0.0,0.0,0.0,0.0,0.0,0.0,0.0,0.0,0.0,0.0,0.0,0.0,0.0,0.0,0.0,0.0,0.0,0.0,0.0,0.0,0.0,0.0,0.0,0.0,0.0,0.0,0.0,0.0,0.0,0.0,0.0,0.0,0.0,0.0,0.0,0.0,0.0,0.0,0.0,0.0,0.0,0.0,0.0,0.0,0.0,0.0,0.0,0.0,0.0,0.0,0.0,0.0,0.0,0.0,0.0,0.0,0.0,0.0,0.0,0.0,0.0,0.0,0.0,0.0,0.0,0.0,0.0,0.0,0.0,0.0,0.0,0.0,0.0,0.0,0.0,0.0,0.0,0.0,0.0,0.0,0.0,0.0,0.0,0.0,0.0,0.0,0.0,0.0,0.0,0.0,0.0,0.0,0.0,0.0,0.0,0.0,0.0,0.0,0.0,0.0,0.0,0.0,0.0,0.0,0.0,0.0,0.0,0.0,0.0,0.0,0.0,0.0,0.0,0.0,0.0,0.0,0.0,0.0,0.0,0.0,0.0,0.0,0.0,0.0,0.0,0.0,0.0,0.0,0.0,0.0,0.0,0.0,0.0,0.0,0.0,0.0,0.0,0.0,0.0,0.0,0.0,0.0,0.0,0.0,0.0,0.0,0.0,0.0,0.0,0.0,0.0,0.0,0.0,0.0,0.0,0.0,0.0,0.0,0.0,0.0,0.0,0.0,0.0,0.0,0.0,0.0,0.0,0.0,0.0,0.0,0.0,0.0,0.0,0.0,0.0,0.0,0.0,0.0,0.0,0.0,0.0,0.0,0.0,0.0,0.0,0.0,0.0,0.0,0.0,0.0,0.0,0.0,0.0,0.0,0.0,0.0,0.0,0.0,0.0,0.0,0.0,0.0,0.0,0.0,0.0,0.0,0.0,0.0,0.0,0.0,0.0,0.0,0.0,0.0,0.0,0.0,0.0,0.0,0.0,0.0,0.0,0.0,0.0,0.0,0.0,0.0,0.0,0.0,0.0,0.0,0.0,0.0,0.0,0.0,0.0,0.0,0.0,0.0,0.0,0.0,0.0,0.0,0.0,0.0,0.0,0.0,0.0,0.0,0.0,0.0,0.0,0.0,0.0,0.0,0.0,0.0,0.0,0.0,0.0,0.0,0.0,0.0,0.0,0.0,0.0,0.0,0.0,0.0,0.0,0.0,0.0,0.0,0.0,0.0,0.0,0.0,0.0,0.0,0.0,0.0,0.0,0.0,0.0,0.0,0.0,0.0,0.0,0.0,0.0,0.0,0.0,0.0,0.0,0.0,0.0,0.0,0.0,0.0,0.0,0.0,0.0,0.0,0.0,0.0,0.0,0.0,0.0,0.0,0.0,0.0,0.0,0.0,0.0,0.0,0.0,0.0,0.0,0.0,0.0,0.0,0.0,0.0,0.0,0.0,0.0,0.0,0.0,0.0,0.0,0.0,0.0,0.0,0.0,0.0,0.0,0.0,0.0,0.0,0.0,0.0,0.0,0.0,0.0,0.0,0.0,0.0,0.0,0.0,0.0,0.0,0.0,0.0,0.0,0.0,0.0,0.0,0.0,0.0,0.0,0.0,0.0,0.0,0.0,0.0,0.0,0.0,0.0,0.0,0.0,0.0,0.0,0.0,0.0,0.0,0.0,0.0,0.0,0.0,0.0,0.0,0.0,0.0,0.0,0.0,0.0,0.0,0.0,0.0,0.0,0.0,0.0,0.0,0.0,0.0,0.0,0.0,0.0,0.0,0.0,0.0,0.0,0.0,0.0,0.0,0.0,0.0,0.0,0.0,0.0,0.0,0.0,0.0,0.0,0.0,0.0,0.0,0.0,0.0,0.0,0.0,0.0,0.0,0.0,0.0,0.0,0.0,0.0,0.0,0.0,0.0,0.0,0.0,0.0,0.0,0.0,0.0,0.0,0.0,0.0,0.0,0.0,0.0,0.0,0.0,0.0,0.0,0.0,0.0,0.0,0.0,0.0,0.0,0.0,0.0,0.0,0.0,0.0,0.0,0.0,0.0,0.0,0.0,0.0,0.0,0.0,0.0,0.0,0.0,0.0,0.0,0.0,0.0,0.0,0.0,0.0,0.0,0.0,0.0,0.0,0.0,0.0,0.0,0.0,0.0,0.0,0.0,0.0,0.0,0.0,0.0,0.0,0.0,0.0,0.0,0.0,0.0,0.0,0.0,0.0,0.0,0.0,0.0,0.0,0.0,0.0,0.0,0.0,0.0,0.0,0.0,0.0,0.0,0.0,0.0,0.0,0.0,0.0,0.0,0.0,0.0,0.0,0.0,0.0,0.0,0.0,0.0,0.0,0.0,0.0,0.0,0.0,0.0,0.0,0.0,0.0,0.0,0.0,0.0,0.0,0.0,0.0,0.0,0.0,0.0,0.0,0.0,0.0,0.0,0.0,0.0,0.0,0.0,0.0,0.0,0.0,0.0,0.0,0.0,0.0,0.0,0.0,0.0,0.0,0.0,0.0,0.0,0.0,0.0,0.0,0.0,0.0,0.0,0.0,0.0,0.0,0.0,0.0,0.0,0.0,0.0,0.0,0.0,0.0,0.0,0.0,0.0,0.0,0.0,0.0,0.0,0.0,0.0,0.0,0.0,0.0,0.0,0.0,0.0,0.0,0.0,0.0,0.0,0.0,0.0,0.0,0.0,0.0,0.0,0.0,0.0,0.0,0.0,0.0,0.0,0.0,0.0,0.0,0.0,0.0,0.0,0.0,0.0,0.0,0.0,0.0,0.0,0.0,0.0,0.0,0.0,0.0,0.0,0.0,0.0,0.0,0.0,0.0,0.0,0.0,0.0,0.0,0.0,0.0,0.0,0.0,0.0,0.0,0.0,0.0,0.0,0.0,0.0,0.0,0.0,0.0,0.0,0.0,0.0,0.0,0.0,0.0,0.0,0.0,0.0,0.0,0.0,0.0,0.0,0.0,0.0,0.0,0.0,0.0,0.0,0.0,0.0,0.0,0.0,0.0,0.0,0.0,0.0,0.0,0.0,0.0,0.0,0.0,0.0,0.0,0.0,0.0,0.0,0.0,0.0,0.0,0.0,0.0,0.0,0.0,0.0,0.0,0.0,0.0,0.0,0.0,0.0,0.0,0.0,0.0,0.0,0.0,0.0,0.0,0.0,0.0,0.0,0.0,0.0,0.0,0.0,0.0,0.0,0.0,0.0,0.0,0.0,0.0,0.0,0.0,0.0,0.0,0.0,0.0,0.0,0.0,0.0,0.0,0.0,0.0,0.0,0.0,0.0,0.0,0.0,0.0,0.0,0.0,0.0,0.0,0.0,0.0,0.0,0.0,0.0,0.0,0.0,0.0,0.0,0.0,0.0,0.0,0.0,0.0,0.0,0.0,0.0,0.0,0.0,0.0,0.0,0.0,0.0,0.0,0.0,0.0,0.0,0.0,0.0,0.0,0.0,0.0,0.0,0.0,0.0,0.0,0.0,0.0,0.0,0.0,0.0,0.0,0.0,0.0,0.0,0.0,0.0,0.0,0.0,0.0,0.0,0.0,0.0,0.0,0.0,0.0,0.0,0.0,0.0,0.0,0.0,0.0,0.0,0.0,0.0,0.0,0.0,0.0,0.0,0.0,0.0,0.0,0.0,0.0,0.0,0.0,0.0,0.0,0.0,0.0,0.0,0.0,0.0,0.0,0.0,0.0,0.0,0.0,0.0,0.0,0.0,0.0,0.0,0.0,0.0,0.0,0.0,0.0,0.0,0.0,0.0,0.0,0.0,0.0,0.0,0.0,0.0,0.0,0.0,0.0,0.0,0.0,0.0,0.0,0.0,0.0,0.0,0.0,0.0,0.0,0.0,0.0,0.0,0.0,0.0,0.0,0.0,0.0,0.0,0.0,0.0,0.0,0.0,0.0,0.0,0.0,0.0,0.0,0.0,0.0,0.0,0.0,0.0,0.0,0.0,0.0,0.0,0.0,0.0,0.0,0.0,0.0,0.0,0.0,0.0,0.0,0.0,0.0,0.0,0.0,0.0,0.0,0.0,0.0,0.0,0.0,0.0,0.0,0.0,0.0,0.0,0.0,0.0,0.0,0.0,0.0,0.0,0.0,0.0,0.0,0.0,0.0,0.0,0.0,0.0,0.0,0.0,0.0,0.0,0.0,0.0,0.0,0.0,0.0,0.0,0.0,0.0,0.0,0.0,0.0,0.0,0.0,0.0,1.4727,1.351,0.0,0.0,0.0,0.0,0.0,0.0,0.0,0.0,0.0,0.0,0.0,0.0,0.0,0.0,0.0,0.0,0.0,0.0,0.0,0.0,0.0,0.0,0.0,0.9697,0.9822,0.9822,0.9973,0.9915,0.9543,0.0,0.0,0.0,0.0,0.0,0.9421,0.9772,1.0318,1.1113,1.1113,1.206,1.387,1.343,1.2855,1.2194,0.0,0.0,0.0,0.0,0.0,0.0,0.0,0.0,0.0,0.0,0.0,0.0,0.0,0.0,0.0,0.0,0.0,0.0,0.0,0.0,0.0,0.0,0.0,0.0,0.0,0.0,0.0,0.0,0.0,0.0,0.0,0.0,0.0,0.0,0.0,0.0,0.0,0.0,0.0,0.0,0.0,0.0,0.0,0.0,0.0,0.0,0.0,0.0,0.0,0.0,0.0,0.0,0.0,0.0,0.0,0.0,0.0,0.0,0.0,0.0,0.0,0.0,0.0,0.0,0.0,0.0,0.0,0.0,0.0,0.0,1.734,1.6,0.0,0.0,0.0,0.0,0.0,0.0,0.0,0.0,0.0,0.0,0.0,0.0,0.0,0.0,0.0,0.0,0.0,0.0,0.0,0.0,0.0,0.968,0.9716,1.0152,1.0515,1.0656,1.0971,1.0959,1.044,1.0259,0.0,0.0,0.0,1.0187,1.0187,1.0927,1.1756,1.2686,1.3193,1.4394,1.6187,1.6915,1.6309,1.453,1.4158,0.0,0.0,0.0,0.0,0.0,0.0,0.0,0.0,0.0,0.0,0.0,0.0,0.0,0.0,0.0,0.0,0.0,0.0,0.0,0.0,0.0,0.0,0.0,0.0,0.0,0.0,0.0,0.0,0.0,0.0,0.0,0.0,0.0,0.0,0.0,0.0,0.0,0.0,0.0,0.0,0.0,0.0,0.0,0.0,0.0,0.0,0.0,0.0,0.0,0.0,0.0,0.0,0.0,0.0,0.0,0.0,0.0,0.0,0.0,0.0,0.0,0.0,0.0,2.1996,2.258,2.306,2.306,2.331,2.3549,2.0619,1.9497,1.9614,1.7557,0.0,0.0,0.0,0.0,0.0,0.0,0.0,0.0,0.0,0.0,0.0,0.0,0.0,0.0,0.0,0.0,0.0,0.0,0.0,0.9788,1.0457,1.0619,1.0943,1.1649,1.1599,1.1446,1.1259,1.1066,0.0,0.0,1.0893,1.0944,1.0944,1.1722,1.2821,1.4207,1.6779,1.8183,1.8471,1.9232,1.941,1.9039,1.7117,1.6208,1.5987,0.0,0.0,0.0,0.0,0.0,0.0,0.0,0.0,0.0,0.0,0.0,0.0,0.0,0.0,0.0,0.0,0.0,0.0,0.0,0.0,0.0,0.0,0.0,0.0,0.0,0.0,0.0,0.0,0.0,0.0,0.0,0.0,0.0,0.0,0.0,0.0,0.0,0.0,0.0,0.0,0.0,1.556,1.6293,0.0,0.0,0.0,0.0,0.0,0.0,0.0,0.0,0.0,0.0,0.0,0.0,0.0,2.1995,2.3763,2.4431,2.5084,2.5786,2.644,2.6798,2.6887,2.6887,2.6887,2.6971,2.6489,0.0,2.2294,2.0891,0.0,0.0,0.0,0.0,0.0,0.0,0.0,0.0,0.0,0.0,0.0,0.0,0.0,0.0,0.0,0.0,0.0,0.0,0.0,0.0,0.0,1.1916,1.2812,1.3148,1.3732,1.3686,1.2749,1.25,1.2007,1.113,1.1536,1.1959,1.238,1.3549,1.5088,1.6965,1.913,2.0179,2.0196,2.0957,2.1285,2.1235,2.0281,1.913,1.7845,1.6458,0.0,0.0,0.0,0.0,0.0,0.0,0.0,0.0,0.0,0.0,0.0,0.0,0.0,0.0,0.0,0.0,0.0,0.0,0.0,0.0,0.0,0.0,0.0,0.0,0.0,0.0,0.0,0.0,0.0,0.0,0.0,0.0,0.0,0.0,0.0,0.0,0.0,0.0,0.0,1.5755,1.752,1.7772,1.8433,1.8448,0.0,0.0,0.0,0.0,0.0,0.0,0.0,0.0,0.0,2.3849,2.4253,2.5031,2.6273,2.6946,2.7425,2.7724,2.8382,2.8697,2.8697,2.8697,2.8697,2.8697,2.8697,2.7935,2.65,2.4136,2.264,2.1712,0.0,0.0,0.0,0.0,2.0511,2.0638,0.0,0.0,0.0,0.0,0.0,0.0,0.0,0.0,0.0,0.0,0.0,0.0,1.1755,1.3243,1.435,1.4765,1.5579,1.5557,1.434,1.3905,1.3193,1.2084,1.2396,1.2955,1.3735,1.5533,1.7439,1.9486,2.0822,2.1566,2.1752,2.2327,2.2682,2.2868,2.2868,2.1718,1.9705,1.8775,1.74,0.0,0.0,0.0,0.0,0.0,0.0,0.0,0.0,0.0,0.0,0.0,0.0,0.0,0.0,0.0,0.0,0.0,0.0,0.0,0.0,0.0,0.0,0.0,0.0,0.0,0.0,0.0,0.0,0.0,0.0,0.0,0.0,0.0,0.0,0.0,0.0,0.0,0.0,1.755,1.9151,1.8972,1.9989,2.0228,0.0,0.0,0.0,0.0,0.0,0.0,2.2697,2.4238,2.551,2.6348,2.7021,2.7754,2.8577,2.9265,2.9684,2.9864,3.0342,3.0582,3.0582,3.0582,3.0582,3.0582,3.0582,3.0582,3.0357,2.7093,2.5365,2.4659,2.3659,2.3126,2.3044,2.3649,2.386,2.3994,0.0,0.0,0.0,0.0,0.0,0.0,0.0,0.0,0.0,0.0,0.0,1.1569,1.4055,1.4253,1.4801,1.6253,1.633,1.6132,1.5816,1.4963,1.4501,1.4607,1.3803,1.3769,1.471,1.736,1.9502,2.1085,2.1854,2.2598,2.3291,2.3325,2.3714,2.4404,2.4404,2.3545,2.204,2.0525,1.9833,1.9461,0.0,0.0,0.0,0.0,0.0,0.0,0.0,0.0,0.0,0.0,0.0,0.0,0.0,0.0,0.0,0.0,0.0,0.0,0.0,0.0,0.0,0.0,0.0,0.0,0.0,0.0,0.0,0.0,0.0,0.0,0.0,0.0,0.0,0.0,0.0,0.0,0.0,0.0,0.0,1.972,2.1859,0.0,0.0,0.0,0.0,2.1635,2.337,2.4701,2.5375,2.6093,2.7096,2.8412,2.9086,3.0043,3.1258,3.1988,3.2632,3.3245,3.329,3.329,3.329,3.329,3.329,3.329,3.329,3.329,3.3051,2.9734,2.7987,2.735,2.6643,2.6001,2.5476,2.6165,2.6389,2.6527,0.0,0.0,0.0,0.0,0.0,0.9691,0.9633,0.9675,0.9808,1.0094,1.1425,1.2694,1.3637,1.5809,1.7305,1.7508,1.8127,1.8035,1.7011,1.6116,1.5871,1.6306,1.5696,1.6308,1.8416,1.9723,2.0873,2.1904,2.2649,2.3139,2.341,2.3883,2.4269,2.4506,2.4506,2.4218,2.3613,2.2124,2.0897,1.9866,1.8335,1.6961,0.0,0.0,0.0,0.0,0.0,0.0,0.0,0.0,0.0,0.0,0.0,0.0,0.0,0.0,0.0,0.0,0.0,0.0,0.0,0.0,0.0,0.0,0.0,0.0,0.0,0.0,0.0,0.0,0.0,0.0,0.0,0.0,0.0,0.0,0.0,0.0,0.0,2.2742,2.4059,0.0,2.3595,2.4732,2.533,2.4881,2.6692,2.7919,2.8143,2.9594,3.0627,3.1106,3.1749,3.2332,3.2796,3.3021,3.326,3.3499,3.3499,3.3499,3.3499,3.3499,3.3499,3.3499,3.3499,3.3499,3.341,3.2228,3.1106,3.0058,2.937,2.8727,2.8188,2.8427,2.8517,2.8547,0.0,0.0,0.0,0.0,0.9567,0.9617,0.9567,0.9641,0.9874,1.0383,1.2054,1.3648,1.4793,1.7343,1.9017,1.9216,1.9523,1.9312,1.8341,1.7206,1.6818,1.7347,1.7188,1.8134,2.0285,2.1156,2.1921,2.2682,2.341,2.39,2.4154,2.4628,2.4983,2.522,2.522,2.5084,2.4797,2.3833,2.2547,2.1092,2.0348,1.9147,1.7676,0.0,0.0,0.0,0.0,0.0,0.0,0.0,0.0,0.0,0.0,0.0,0.0,0.0,0.0,0.0,0.0,0.0,0.0,0.0,0.0,0.0,0.0,0.0,0.0,0.0,0.0,0.0,0.0,0.0,0.0,0.0,0.0,0.0,0.0,0.0,2.367,2.4477,2.6004,2.6677,2.6004,2.7141,2.7829,2.7619,2.9445,3.0567,3.0567,3.2018,3.2841,3.2841,3.3484,3.3829,3.3829,3.4053,3.4173,3.4173,3.4173,3.4173,3.4173,3.4173,3.4173,3.4173,3.4173,3.4173,3.4173,3.4173,3.3514,3.2467,3.1779,3.127,3.0896,3.0896,3.0896,3.0896,0.0,0.0,0.0,0.95,0.95,0.9447,0.934,0.9534,1.0227,1.1709,1.2582,1.4313,1.7668,1.8729,1.9738,2.1205,2.0417,1.9832,1.9779,1.8134,1.7346,1.776,1.8341,1.9104,2.012,2.1583,2.2699,2.3427,2.4154,2.4881,2.5609,2.5625,2.6031,2.6691,2.6691,2.6302,2.5642,2.5642,2.4797,2.3393,2.2649,2.1421,1.9985,0.0,0.0,0.0,0.0,0.0,0.0,0.0,0.0,0.0,0.0,0.0,0.0,0.0,0.0,0.0,0.0,0.0,0.0,0.0,0.0,0.0,0.0,0.0,0.0,0.0,0.0,0.0,0.0,0.0,0.0,0.0,0.0,0.0,2.1754,2.4582,2.6153,2.491,2.7664,2.8891,2.6961,2.9086,3.0342,2.9744,3.1495,3.2572,3.2572,3.32,3.3559,3.3559,3.4173,3.4502,3.4502,3.5175,3.5504,3.5504,3.5504,3.5504,3.5504,3.5504,3.5504,3.5504,3.5504,3.5504,3.5504,3.5504,3.5115,3.4442,3.3784,3.3514,3.3499,3.3499,3.3499,3.3499,0.0,0.0,0.95,0.95,0.95,0.9517,0.9585,0.9649,1.0183,1.1567,1.3116,1.4748,1.652,1.9093,2.0427,1.9705,2.0425,2.0404,1.9291,1.8333,1.8393,1.9671,2.1113,2.2277,2.309,2.3089,2.346,2.4188,2.4932,2.5406,2.5625,2.615,2.6505,2.6691,2.6691,2.659,2.6404,2.6404,2.5845,2.4881,2.3613,2.253,2.1505,0.0,0.0,0.0,0.0,0.0,0.0,0.0,0.0,0.0,0.0,0.0,0.0,0.0,0.0,0.0,0.0,0.0,0.0,0.0,0.0,0.0,0.0,0.0,0.0,0.0,0.0,0.0,0.0,0.0,0.0,0.0,2.361,2.5031,2.5226,2.6019,2.7171,2.8712,3.0133,3.0971,3.0896,3.1973,3.2602,3.2437,3.3365,3.3933,3.3933,3.4577,3.4951,3.4951,3.513,3.522,3.522,3.5415,3.5504,3.5504,3.5504,3.5504,3.5504,3.5504,3.5504,3.5504,3.5504,3.5504,3.5504,3.5504,3.5385,3.516,3.4472,3.3918,3.3499,3.3499,3.3499,3.3499,0.0,0.95,0.943,0.9491,0.9447,0.9439,0.9517,0.9625,1.021,1.1607,1.3361,1.5134,1.681,1.936,2.0735,2.0225,2.0898,2.0843,1.9699,1.9303,1.9758,2.1261,2.2504,2.3536,2.4314,2.4333,2.4601,2.521,2.579,2.6065,2.6065,2.6488,2.6691,2.6691,2.6691,2.6691,2.6691,2.6691,2.6454,2.5964,2.4797,2.3883,2.3122,2.2226,2.1245,2.0238,1.9672,1.8807,1.7896,1.7698,0.0,0.0,0.0,0.0,0.0,0.0,0.0,0.0,0.0,0.0,0.0,0.0,0.0,0.0,0.0,0.0,0.0,0.0,0.0,0.0,0.0,0.0,0.0,0.0,2.6062,2.7688,2.856,2.8423,2.9049,3.1171,3.1739,3.2315,3.3302,3.3698,3.3903,3.3903,3.4532,3.4906,3.4906,3.5295,3.5504,3.5504,3.5504,3.5504,3.5504,3.5504,3.5504,3.5504,3.5504,3.5504,3.5504,3.5504,3.5504,3.5504,3.5504,3.5504,3.5504,3.5504,3.5504,3.5474,0.0,0.0,0.0,0.0,3.4337,3.4337,0.0,0.95,0.9358,0.9483,0.9403,0.9331,0.9331,0.9534,1.0263,1.1807,1.3468,1.5392,1.7749,1.9497,2.0778,2.1438,2.1462,2.1225,2.0686,2.0723,2.1297,2.2486,2.3048,2.3684,2.4555,2.5345,2.5942,2.6316,2.6614,2.6758,2.6691,2.6691,2.6742,2.6826,2.6826,2.686,2.6962,2.6962,2.6962,2.6877,2.615,2.5355,2.4625,2.454,2.368,2.2519,2.2224,2.1147,1.9728,1.8898,0.0,0.0,0.0,0.0,0.0,0.0,0.0,0.0,0.0,0.0,0.0,0.0,0.0,0.0,0.0,0.0,0.0,0.0,0.0,0.0,0.0,0.0,0.0,0.0,2.8136,2.9747,3.1701,3.1481,3.1546,3.2765,3.2982,3.3511,3.4794,3.4836,3.4751,3.4876,3.5322,3.5683,3.5733,3.5668,0.0,0.0,0.0,3.5504,3.5504,3.5504,3.5504,3.5504,3.5504,3.5504,3.5504,3.5504,3.5504,3.5504,3.5504,3.5504,3.5504,3.5504,3.5504,3.5504,3.5504,3.5504,3.5504,3.5504,3.5504,3.5504,0.0,0.9567,0.9474,0.95,0.9483,0.9456,0.9456,0.9601,1.0412,1.2436,1.375,1.5291,1.7307,1.9319,2.0235,1.9611,2.0878,2.1677,2.1547,2.2171,2.263,2.2905,2.3952,2.4895,2.5668,2.6251,2.6737,2.7078,2.7172,2.7019,2.6691,2.6691,2.7012,2.7604,2.7604,2.796,2.8535,2.8535,2.8535,2.8467,2.7706,2.659,2.5321,2.4743,2.4337,2.4069,2.3992,2.3173,2.2101,2.23,2.113,1.9667,1.9836,0.0,0.0,0.0,0.0,0.0,0.0,0.0,0.0,0.0,0.0,0.0,0.0,0.0,0.0,0.0,0.0,0.0,0.0,0.0,0.0,2.869,3.107,3.3042,3.3989,3.4504,3.4641,3.4335,3.5276,3.6102,3.6358,3.625,3.649,3.7089,3.6675,3.6692,3.7294,3.6753,3.6384,3.6384,3.5846,3.5504,3.5504,3.5504,3.5504,3.5504,3.5504,0.0,3.5504,3.5504,3.5504,3.5504,3.5504,3.5504,3.5504,3.5504,3.5504,3.5504,3.5504,3.5504,3.5504,3.5504,3.5504,3.5504,0.9698,0.9601,0.95,0.95,0.9439,0.9421,0.9491,0.955,1.0294,1.2252,1.3315,1.4575,1.6352,1.7836,1.8496,1.7988,1.9538,2.107,2.2318,2.2776,2.318,2.3584,2.478,2.5723,2.6299,2.6994,2.7508,2.7862,2.75,2.721,2.7004,2.6774,2.7097,2.7789,2.7789,2.8247,2.9011,2.9011,2.9011,2.8943,2.8129,2.735,2.664,2.5879,2.5355,2.505,2.505,2.4183,2.3103,2.3317,2.24,2.1176,2.1394,2.0456,1.9208,0.0,0.0,0.0,0.0,0.0,0.0,0.0,0.0,0.0,0.0,0.0,0.0,0.0,0.0,2.4619,0.0,0.0,3.0097,3.1389,3.3664,3.535,3.5684,3.6694,3.7127,3.647,3.6648,3.7086,3.7773,3.7451,3.7397,3.7764,3.7456,3.7397,3.7764,3.704,3.6783,3.7219,3.607,3.5668,3.6054,3.6054,3.6054,3.6054,3.6492,3.6415,3.6054,3.6054,3.5831,3.5504,3.5504,3.5504,3.5504,3.5504,3.5504,3.5504,3.5504,3.5504,3.5504,3.5504,3.5504,3.5504,0.9649,0.9601,0.9525,0.9474,0.9412,0.9394,0.9447,0.9508,1.0094,1.1663,1.2711,1.3849,1.5307,1.6321,1.7037,1.733,1.8684,2.0519,2.285,2.3162,2.3529,2.4171,2.5423,2.6277,2.6573,2.7594,2.821,2.8394,2.7787,2.7439,2.7303,2.7108,2.7386,2.8061,2.8197,2.8704,2.9414,2.9414,2.9414,2.9347,2.8569,2.8144,2.796,2.7199,2.6454,2.5795,2.5659,2.4746,2.3579,2.3444,2.2919,2.231,2.231,2.1658,2.0882,2.0676,2.0,0.0,0.0,0.0,0.0,0.0,0.0,0.0,0.0,0.0,2.3957,2.5366,2.6584,2.7956,2.9789,3.1331,3.2689,3.3844,3.5823,3.7239,3.7253,3.8371,3.9042,3.8484,3.7855,3.7889,3.902,3.8469,3.8092,3.8222,3.8092,3.8092,3.8262,3.7483,3.7365,3.7978,3.6662,3.6243,3.6859,3.6843,3.6843,3.6843,3.7515,3.7397,3.6615,3.6615,3.6228,3.5504,3.5504,3.5504,3.5504,3.5504,3.5504,3.5504,3.5504,3.5504,3.5504,3.5504,3.5504,3.5504,0.0,0.9609,0.9609,0.9367,0.9508,0.9585,0.9358,0.9525,0.9995,1.0912,1.2352,1.3647,1.4536,1.5991,1.7477,1.8904,1.9858,2.1108,2.2868,2.3676,2.4116,2.419,2.569,2.6551,2.6612,2.8105,2.8725,2.8394,2.8324,2.7946,2.7303,2.7932,2.8459,2.8873,2.955,3.026,3.0937,3.0937,3.0937,3.0886,3.0142,2.9448,2.8772,2.7994,2.7232,2.6488,2.5845,2.5067,2.4286,2.3613,2.2919,2.231,2.231,2.2215,2.1911,2.0898,0.0,2.0352,2.0046,2.0534,2.1469,2.3159,2.3275,2.3916,0.0,0.0,2.7494,2.9329,2.9935,3.051,3.1783,3.3317,3.4582,3.5283,3.727,3.8768,3.8738,3.9446,3.9952,3.9902,3.9783,3.98,3.9952,3.9262,3.9086,3.9799,3.9209,3.9086,3.9782,3.9086,3.8674,3.8799,3.7962,3.7589,3.7632,3.769,3.769,3.769,3.7764,3.7397,3.6615,3.6615,3.6228,3.5504,3.5504,3.5504,3.5504,3.5504,3.5504,3.5504,3.5504,3.5504,3.5504,3.5504,3.5504,3.5504,0.0,0.9542,0.9542,0.943,0.9439,0.9491,0.9525,0.95,0.9815,1.0766,1.1489,1.2388,1.3655,1.4829,1.6138,1.7766,1.9069,2.0519,2.2189,2.3492,2.419,2.419,2.575,2.6612,2.6612,2.8191,2.8929,2.8749,2.8496,2.8246,2.7946,2.8558,2.8958,2.9333,3.0106,3.0711,3.1157,3.0734,3.0818,3.1055,2.9431,2.8856,2.8856,2.7621,2.6708,2.6031,2.571,2.4847,0.0,0.0,2.2919,2.231,2.231,2.231,2.2215,2.1737,2.1893,0.0,2.3098,2.3516,2.4163,0.0,2.6504,2.7306,2.9304,2.9798,3.0293,3.1834,3.2534,3.3167,3.4047,3.5508,3.6625,0.0,3.8464,3.9631,3.9631,3.9884,3.9918,3.9495,3.9817,4.007,4.007,3.9782,3.9731,4.007,3.9782,3.9731,4.007,3.9315,3.9086,3.9594,3.843,3.8035,3.8414,3.8414,3.8414,3.8469,3.8941,3.8486,3.7279,3.7279,3.6859,3.6165,3.6165,3.6415,3.6829,3.6829,3.6829,3.6829,3.6829,3.6523,3.6165,3.6165,3.5894,3.5554,0.0,0.9412,0.9447,0.95,0.9385,0.9376,0.9609,0.9517,0.9681,1.0473,1.0765,1.1498,1.3115,1.4022,1.5056,1.645,1.8041,1.9675,2.1327,2.296,2.3969,2.419,2.5529,2.6374,2.6612,2.797,2.8796,2.8994,2.8707,2.8515,2.8394,2.8961,2.9271,2.9393,3.0057,3.0558,3.0837,3.0119,3.0166,3.0602,2.8825,2.8349,2.8518,2.7199,2.6116,2.5304,2.5304,2.4475,0.0,0.0,2.2564,2.2276,2.2073,2.2141,2.2395,2.2801,2.3579,2.4441,2.5118,2.5896,0.0,2.8129,2.9286,3.0356,3.1128,3.1817,3.2644,3.376,3.4438,3.4979,3.552,3.6874,3.7905,3.7905,3.914,4.007,4.007,3.9901,3.958,3.9056,3.9276,3.9546,3.9766,3.9952,4.007,4.007,4.007,4.007,4.007,3.9542,3.9489,4.007,3.8995,3.8707,3.9209,3.9262,3.9262,3.9262,3.9833,3.9401,3.8092,3.7863,3.7456,3.6904,3.6904,3.7279,3.7822,3.7822,3.7822,3.7822,3.7822,3.744,3.6964,3.7128,3.6523,3.5619,0.0,0.0,0.9349,0.9483,0.9385,0.9349,0.9491,0.9609,0.9691,0.9735,1.0425,1.1498,1.3115,1.4022,1.4829,1.5655,1.7215,1.8831,2.0429,2.2098,2.3382,2.4171,2.4979,2.5786,2.6594,2.7402,2.8227,2.8994,2.8994,2.8773,2.8412,2.9197,2.9382,2.9041,2.9375,2.9774,3.0082,2.9368,2.9227,2.9523,2.9121,2.8518,2.7739,2.6996,2.5795,2.454,2.454,0.0,0.0,0.0,2.1718,2.2192,2.1448,2.1718,0.0,2.4002,2.5439,2.6285,0.0,0.0,2.9059,2.9837,3.114,3.2594,3.4032,3.4387,3.4641,3.5402,3.5571,3.5588,3.5622,3.6874,3.7905,3.7905,3.914,4.007,4.007,3.9462,3.9022,3.8988,3.8396,3.8261,0.0,3.9665,4.007,4.007,4.007,4.007,4.007,4.007,4.007,4.007,4.007,4.002,4.007,4.007,4.007,4.007,4.007,3.9662,3.8854,3.8149,3.7822,3.7748,3.7748,3.7764,3.7822,3.7822,3.7822,3.7822,3.7822,3.7822,3.7863,3.858,3.744,3.5619,0.0,0.0,0.0,0.9349,0.9331,0.9349,0.9483,0.9534,0.9601,0.9691,1.0865,0.0,0.0,0.0,0.0,0.0,1.6683,1.799,1.9601,2.1272,2.2556,2.3382,2.4685,2.5531,2.5786,2.6594,2.7402,2.8209,2.8209,2.8398,2.8815,2.9355,2.9402,2.9006,2.9405,2.9471,2.9317,2.8523,2.8861,2.9719,2.7606,2.7182,2.7654,2.6454,2.505,2.3765,0.0,0.0,0.0,2.1515,2.1684,2.226,2.2006,0.0,0.0,2.4083,2.5186,2.6184,2.7199,0.0,3.0751,3.1985,3.3034,3.4015,3.5013,3.5233,3.5318,3.5571,3.5216,3.4878,3.4878,3.5707,3.6552,3.7077,3.8396,3.9529,4.0003,3.9868,3.9529,3.9056,3.9208,0.0,0.0,0.0,0.0,4.0037,4.007,4.007,4.007,4.007,4.007,4.007,4.007,4.007,4.007,4.007,4.007,4.007,3.9558,3.9139,3.8854,3.8149,3.8092,3.8525,3.8525,3.8816,3.9332,3.9332,3.9332,3.9332,3.9332,3.8995,3.858,3.8799,3.8117,3.7115,0.0,0.0,0.0,0.0,0.0,0.0,0.0,0.0,0.0,0.0,0.0,0.0,0.0,0.0,0.0,0.0,0.0,0.0,1.8353,1.9987,2.1272,2.2061,2.34,2.4264,2.4538,2.5052,2.586,2.6924,2.6924,2.7346,2.815,2.8403,2.8399,2.8157,2.8141,2.8084,2.7895,2.701,2.7284,2.8117,2.6046,2.5778,2.6505,2.5287,2.4239,0.0,0.0,0.0,0.0,2.1126,2.1278,0.0,0.0,0.0,2.3613,2.4289,2.5778,2.7537,2.8991,3.0649,3.2273,3.3491,3.4353,3.503,3.5504,3.5419,3.5216,3.5216,3.4404,3.3778,3.4049,3.4286,3.4945,3.6518,3.7584,3.865,3.9901,3.9851,3.9512,3.9056,3.9174,3.9225,0.0,0.0,0.0,4.002,4.007,4.007,4.007,4.007,4.007,4.007,4.007,4.007,4.007,4.007,4.007,4.007,3.961,3.9315,3.9315,3.8832,3.8887,3.9315,3.9315,3.961,4.007,4.007,4.007,4.007,4.007,3.9782,3.9315,3.9315,3.9049,3.8652,0.0,0.0,0.0,0.0,0.0,0.0,0.0,0.0,0.0,0.0,0.0,0.0,0.0,0.0,0.0,0.0,0.0,0.0,1.6798,1.8317,1.9546,2.0393,2.1272,2.2097,2.2923,2.2942,2.3712,2.5293,2.5329,2.575,2.6539,2.6554,2.6573,2.6551,2.5804,2.5704,2.5985,2.4959,2.4748,2.5086,2.4624,2.4472,2.4438,2.3663,0.0,0.0,0.0,0.0,0.0,0.0,0.0,0.0,0.0,0.0,0.0,2.4898,2.73,3.0176,3.026,3.1867,3.3694,3.437,3.5081,3.5605,3.5571,3.4979,3.4421,3.4387,3.3169,3.2324,0.0,0.0,3.3186,3.6129,3.6738,3.7601,3.9766,3.9478,3.9056,0.0,0.0,0.0,0.0,0.0,0.0,4.002,4.007,4.007,4.007,4.007,4.007,4.007,4.007,4.007,4.007,4.007,4.007,4.007,4.007,4.007,4.007,4.007,4.007,4.007,4.007,4.007,4.007,4.007,4.007,4.007,4.007,4.007,4.007,4.007,4.007,4.0003,0.0,0.0,0.0,0.0,0.0,0.0,0.0,0.0,0.0,0.0,0.0,0.0,0.0,0.0,0.0,0.0,0.0,0.0,0.0,1.6958,1.8151,1.9546,2.0391,2.1235,2.2079,2.2097,2.2593,2.3621,2.4208,2.4905,2.5713,2.6008,2.6168,2.6144,2.5714,2.5429,2.5267,2.5005,2.5116,2.5377,0.0,2.4002,2.4438,0.0,0.0,0.0,0.0,0.0,0.0,0.0,0.0,0.0,0.0,2.5372,2.6607,0.0,0.0,3.1157,3.2273,3.3778,3.5098,3.5284,3.547,3.547,3.4912,3.4201,3.3525,3.2949,3.1224,2.9888,0.0,0.0,0.0,3.3964,3.6146,0.0,3.9851,3.9918,0.0,3.98,0.0,3.9597,3.9783,3.98,0.0,4.007,4.007,4.007,4.007,4.007,4.007,4.007,4.007,4.007,4.007,4.007,4.007,4.007,4.007,4.007,4.007,4.007,4.007,4.007,4.007,4.007,4.007,4.007,4.007,4.007,4.007,4.007,4.007,4.007,4.007,4.007,0.0,0.0,0.0,0.0,0.0,0.0,0.0,0.0,0.0,0.0,0.0,0.0,0.0,0.0,0.0,0.0,0.0,0.0,0.0,1.5751,1.6629,1.7537,1.8705,1.9577,2.0152,2.0868,2.1455,2.1896,0.0,0.0,2.3804,2.4049,2.4085,2.3959,2.3625,2.333,2.3015,2.2882,0.0,0.0,0.0,0.0,0.0,0.0,0.0,0.0,0.0,0.0,0.0,0.0,0.0,2.5169,2.6234,2.7097,2.7994,2.9499,0.0,3.2425,3.3575,3.4726,3.5622,3.5622,3.5368,3.4844,3.3778,3.2713,3.1647,3.0548,2.8822,0.0,2.7926,2.8653,0.0,0.0,0.0,0.0,3.9292,3.9884,4.007,0.0,4.007,0.0,4.007,4.007,4.007,4.007,4.007,4.007,4.007,4.007,4.007,4.007,4.007,4.007,4.007,4.007,4.007,4.007,4.007,4.007,4.007,4.007,4.007,4.007,4.007,4.007,4.007,4.007,4.007,4.007,4.007,4.007,4.007,4.007,4.007,4.007,0.0,0.0,0.0,0.0,0.0,0.0,0.0,0.0,0.0,0.0,0.0,0.0,0.0,0.0,0.0,0.0,0.0,0.0,0.0,0.0,0.0,1.5374,1.6721,1.7648,1.8005,1.941,2.0179,0.0,0.0,0.0,0.0,0.0,0.0,0.0,0.0,0.0,0.0,0.0,0.0,0.0,0.0,0.0,0.0,0.0,0.0,0.0,0.0,0.0,0.0,0.0,2.5744,2.6184,2.7774,2.8805,2.9756,3.1207,3.2544,3.3711,3.4438,3.5115,3.5622,3.5622,3.5064,3.4083,3.2493,3.1004,2.9499,2.784,0.0,2.5507,2.6133,2.6488,2.7858,3.141,0.0,3.5537,3.8565,3.9529,3.9969,4.007,4.007,4.007,4.007,4.007,4.007,4.007,4.007,4.007,4.007,4.007,4.007,4.007,4.007,4.007,4.007,4.007,4.007,4.007,4.007,4.007,4.007,4.007,4.007,4.007,4.007,4.007,4.007,4.007,4.007,4.007,4.007,4.007,4.007,4.007,4.007,4.007,0.0,0.0,0.0,0.0,0.0,0.0,0.0,0.0,0.0,0.0,1.249,1.2922,0.0,0.0,0.0,0.0,0.0,0.0,0.0,0.0,0.0,1.5134,1.5584,1.6373,1.7573,0.0,0.0,0.0,0.0,0.0,0.0,0.0,0.0,0.0,0.0,0.0,0.0,0.0,0.0,0.0,0.0,0.0,0.0,0.0,0.0,0.0,0.0,0.0,0.0,0.0,2.642,2.7807,2.9939,3.1106,3.2043,3.3474,3.41,3.4472,3.5216,3.552,3.5622,3.5622,3.5064,3.3947,3.1867,3.0243,0.0,0.0,2.4814,2.3816,2.3951,2.5456,2.752,3.0074,3.2747,3.5537,0.0,0.0,3.9411,0.0,0.0,0.0,0.0,4.007,0.0,4.007,4.007,4.007,4.007,4.007,4.007,4.007,4.007,4.007,4.007,4.007,4.007,4.007,4.007,4.007,4.007,4.007,4.007,4.007,4.007,4.007,4.007,4.007,4.007,4.007,4.007,4.007,4.007,4.007,4.007,4.007,0.0,0.0,0.0,0.0,0.0,0.0,0.0,1.0098,1.1005,1.2246,1.3129,1.3811,1.4317,1.3983,1.3709,0.0,0.0,0.0,0.0,0.0,0.0,0.0,0.0,1.5678,0.0,0.0,0.0,0.0,0.0,0.0,0.0,0.0,0.0,0.0,0.0,0.0,0.0,0.0,0.0,0.0,0.0,0.0,0.0,0.0,0.0,0.0,0.0,0.0,0.0,0.0,2.6015,2.7689,3.0362,3.1698,3.2577,3.4049,3.4489,3.4658,3.5419,3.5622,3.5622,3.5622,3.4472,3.2763,3.0548,0.0,0.0,0.0,2.3325,2.2835,2.2835,2.4323,0.0,2.8027,3.0514,3.3389,0.0,0.0,0.0,0.0,0.0,0.0,0.0,4.007,4.007,4.007,4.007,4.007,4.007,4.007,4.007,4.007,4.007,4.007,4.007,4.007,4.007,4.007,4.007,4.007,4.007,4.007,4.007,4.007,4.007,4.007,4.007,4.007,4.007,4.007,4.007,4.007,4.007,4.007,4.007,4.007,0.0,0.0,0.0,0.0,0.0,0.0,0.0,1.05,1.1353,1.244,1.3511,1.4359,1.481,1.4212,1.3681,0.0,0.0,0.0,0.0,0.0,0.0,0.0,0.0,0.0,0.0,0.0,0.0,0.0,0.0,0.0,0.0,0.0,0.0,0.0,0.0,0.0,0.0,0.0,0.0,0.0,0.0,0.0,0.0,0.0,0.0,0.0,0.0,0.0,0.0,0.0,2.5118,2.6657,2.9194,3.0937,3.2307,3.3626,3.4235,3.4624,3.5216,3.5504,3.5622,3.5622,3.3931,3.1698,2.9482,2.7232,0.0,0.0,2.231,2.231,2.231,0.0,2.4811,0.0,2.8484,3.1207,3.5081,0.0,0.0,0.0,0.0,0.0,4.007,4.007,0.0,4.007,4.007,4.007,4.007,4.007,4.007,4.007,4.007,4.007,4.007,4.007,4.007,4.007,4.007,4.007,4.007,4.007,4.007,4.007,4.007,4.007,4.007,4.007,4.007,4.007,4.007,4.007,4.007,4.007,4.007,4.007,0.0,0.0,0.0,0.0,0.0,0.0,0.0,1.0077,1.1251,1.3223,1.3277,1.3644,1.4932,1.4685,1.4141,0.0,0.0,0.0,0.0,0.0,0.0,0.0,0.0,0.0,0.0,0.0,0.0,0.0,0.0,0.0,0.0,0.0,0.0,0.0,0.0,0.0,0.0,0.0,0.0,0.0,0.0,0.0,0.0,0.0,0.0,0.0,0.0,0.0,0.0,0.0,0.0,2.4879,2.5828,2.8501,3.1444,3.2256,0.0,0.0,3.4573,3.5098,3.5622,3.5622,3.3931,3.1698,2.9482,0.0,0.0,2.2767,2.231,2.231,2.231,2.297,2.4188,2.6336,0.0,3.0615,0.0,0.0,0.0,0.0,0.0,0.0,4.007,4.007,4.007,4.007,4.007,4.007,4.007,4.007,4.007,4.007,4.007,4.007,4.007,4.007,4.007,4.007,4.007,4.007,4.007,4.007,4.007,4.007,4.007,4.007,4.007,4.007,4.007,4.007,4.007,4.007,4.007,4.007,4.007,4.007,0.0,0.0,0.0,0.0,0.0,0.0,0.9327,0.9707,1.0495,1.2178,1.2627,1.3011,1.3556,1.3867,1.3787,1.3205,0.0,0.0,0.0,0.0,0.0,0.0,0.0,0.0,0.0,0.0,0.0,0.0,0.0,0.0,0.0,0.0,0.0,0.0,0.0,0.0,0.0,0.0,0.0,0.0,0.0,0.0,0.0,0.0,0.0,0.0,0.0,0.0,0.0,0.0,0.0,0.0,2.4188,2.5913,0.0,0.0,3.1698,3.2797,3.4134,3.5047,3.5504,3.5064,3.3271,3.1038,2.8789,0.0,2.4441,2.2665,2.231,2.231,2.231,2.2547,2.3325,2.5084,2.5879,2.7689,3.1732,3.3322,0.0,0.0,3.8886,0.0,0.0,0.0,4.007,4.007,4.007,4.007,4.007,4.007,4.007,4.007,4.007,4.007,4.007,4.007,4.007,4.007,4.007,4.007,4.007,4.007,4.007,4.007,4.007,4.007,4.007,4.007,4.007,4.007,4.007,4.007,4.007,4.007,4.007,4.007,0.0,0.0,0.0,0.0,0.0,0.8338,0.9197,0.9481,1.0112,1.1482,1.2005,1.2396,1.2744,1.2955,1.299,1.2773,1.3015,0.0,0.0,0.0,0.0,0.0,0.0,0.0,0.0,0.0,0.0,0.0,0.0,0.0,0.0,0.0,0.0,0.0,0.0,0.0,0.0,0.0,0.0,0.0,0.0,0.0,0.0,0.0,0.0,0.0,0.0,0.0,0.0,0.0,0.0,0.0,0.0,0.0,0.0,0.0,2.9939,3.1258,3.3034,3.4218,3.4844,3.4303,3.251,3.0328,0.0,2.6082,2.4069,2.2615,2.231,2.231,2.231,2.231,2.2716,2.3951,2.4526,2.6133,2.9905,3.1698,0.0,0.0,0.0,3.8954,3.9681,3.9952,4.007,4.007,4.007,4.007,4.007,4.007,4.007,4.007,4.007,4.007,4.007,4.007,4.007,4.007,4.007,4.007,4.007,4.007,4.007,4.007,4.007,4.007,4.007,4.007,4.007,4.007,4.007,4.007,4.007,4.007,4.007,4.007,0.0,0.0,0.0,0.0,0.0,0.0,0.88,0.9458,1.0339,1.1625,1.1453,1.1722,1.3056,1.2246,1.1766,1.2169,1.2455,0.0,0.0,0.0,0.0,0.0,0.0,0.0,0.0,0.0,1.5337,1.5612,1.6741,0.0,0.0,0.0,0.0,0.0,0.0,0.0,0.0,0.0,0.0,0.0,0.0,0.0,0.0,0.0,0.0,0.0,0.0,0.0,0.0,0.0,0.0,0.0,0.0,0.0,0.0,0.0,2.8332,3.0294,3.1021,3.2307,3.3423,3.3423,3.1765,2.9719,2.8127,2.6082,2.4069,2.2615,2.231,2.231,2.231,2.231,2.2547,2.3291,2.4644,2.6911,3.0649,3.2459,0.0,0.0,0.0,3.821,3.8937,3.9648,4.007,4.007,4.007,4.007,4.007,4.007,4.007,4.007,4.007,4.007,4.007,4.007,4.007,4.007,4.007,4.007,4.007,4.007,4.007,4.007,4.007,4.007,4.007,4.007,4.007,4.007,4.007,4.007,4.007,4.007,4.007,4.007,0.0,0.0,0.0,0.0,0.0,0.0,0.0,0.8317,0.8844,0.9698,0.971,0.9975,1.0849,1.1017,1.1108,1.1223,1.2054,0.0,0.0,0.0,0.0,0.0,0.0,0.0,0.0,0.0,1.4902,1.4989,1.7034,1.7741,0.0,0.0,0.0,0.0,0.0,0.0,0.0,0.0,0.0,0.0,0.0,0.0,0.0,0.0,0.0,0.0,0.0,0.0,0.0,0.0,0.0,0.0,0.0,0.0,0.0,0.0,0.0,0.0,2.8552,2.9617,3.026,2.9719,2.867,2.7385,2.5879,2.4594,2.346,2.2513,2.231,2.231,2.231,2.231,2.3054,2.5287,2.6048,2.7486,3.0734,0.0,0.0,3.6163,3.8142,3.9478,3.9715,3.9935,4.007,4.007,4.007,4.007,4.007,4.007,4.007,4.007,4.007,4.007,4.007,4.007,4.007,4.007,4.007,4.007,4.007,4.007,4.007,4.007,4.007,4.007,4.007,4.007,4.007,4.007,4.007,4.007,4.007,4.007,4.007,4.007,0.0,0.0,0.0,0.0,0.0,0.0,0.0,0.7839,0.8254,0.8601,0.8726,0.9009,0.9567,0.9813,1.0131,1.0638,1.1442,0.0,0.0,0.0,0.0,0.0,0.0,0.0,0.0,1.3816,1.4717,1.508,1.702,1.7711,1.7205,1.7957,1.7781,0.0,0.0,0.0,0.0,0.0,0.0,0.0,0.0,0.0,0.0,0.0,0.0,0.0,0.0,0.0,0.0,0.0,0.0,0.0,0.0,0.0,0.0,0.0,2.1988,2.3964,0.0,2.731,2.7816,2.7485,2.6724,2.5782,2.4732,2.3917,2.319,2.2462,2.231,2.231,2.231,2.231,2.2902,2.4746,2.5507,2.6911,0.0,0.0,0.0,3.6248,0.0,0.0,3.9665,3.9918,4.007,4.007,4.007,4.007,4.007,4.007,4.007,4.007,4.007,4.007,4.007,4.007,4.007,4.007,4.007,4.007,4.007,4.007,4.007,4.007,4.007,4.007,0.0,4.007,4.007,4.007,4.007,4.007,4.007,4.007,4.007,4.007,0.0,0.0,0.0,0.0,0.0,0.0,0.0,0.7873,0.8339,0.8149,0.8333,0.8645,0.902,0.8721,0.9,1.0285,0.0,0.0,0.0,0.0,0.0,0.0,0.0,0.0,1.2169,1.3565,1.4679,1.5558,1.6768,1.7499,1.7749,1.8111,1.7751,1.6823,1.7432,0.0,0.0,0.0,0.0,0.0,0.0,0.0,0.0,0.0,0.0,0.0,0.0,0.0,0.0,0.0,0.0,0.0,0.0,0.0,0.0,0.0,0.0,0.0,0.0,2.5155,2.5822,2.6236,2.5514,2.463,2.4351,2.3722,0.0,2.2417,2.2265,2.2271,2.2446,2.2378,2.2412,2.2733,2.3866,0.0,0.0,3.1258,0.0,0.0,3.8667,3.9073,3.9073,3.9681,4.007,4.007,4.007,4.007,4.007,4.007,4.007,4.007,4.007,4.007,4.007,4.007,4.007,4.007,4.007,4.007,4.007,4.007,4.007,4.007,4.007,4.007,4.007,4.007,4.007,4.007,4.007,4.007,4.007,4.007,4.007,4.007,0.0,0.0,0.0,0.0,0.0,0.0,0.0,0.0,0.0,0.0,0.7495,0.7567,0.7657,0.8027,0.8594,0.0,0.0,0.0,0.0,0.0,0.0,0.0,0.0,0.0,1.1876,1.3226,1.4021,1.4247,1.6864,1.7745,1.6985,1.8454,1.8253,1.6742,1.6894,1.6619,0.0,0.0,0.0,0.0,0.0,0.0,0.0,0.0,0.0,0.0,0.0,1.6792,0.0,0.0,0.0,0.0,0.0,0.0,0.0,0.0,1.82,1.9076,2.0368,0.0,2.2297,2.2696,2.2392,2.1989,0.0,2.1899,2.1689,0.0,0.0,0.0,0.0,0.0,0.0,2.686,0.0,0.0,3.1867,0.0,0.0,3.9326,3.9715,3.9817,3.9817,3.9969,4.007,4.007,4.007,4.007,4.007,4.007,4.007,4.007,4.007,4.007,4.007,4.007,4.007,4.007,4.007,4.007,4.007,4.007,4.007,4.007,4.007,4.007,4.007,4.007,4.007,4.007,4.007,4.007,4.007,4.007,4.007,4.007,0.0,0.0,0.0,0.0,0.0,0.0,0.0,0.0,0.0,0.0,0.0,0.7031,0.6934,0.726,0.0,0.0,0.0,0.0,0.0,0.0,0.0,0.0,0.0,1.1557,1.1557,1.3049,1.3842,1.395,1.6396,1.7378,1.6905,1.8072,1.7925,1.6697,1.6398,1.6099,0.0,0.0,0.0,0.0,0.0,0.0,0.0,0.0,0.0,0.0,1.5662,1.5793,0.0,1.6893,1.6864,1.6603,0.0,0.0,0.0,0.0,1.7075,1.7746,1.8346,1.9562,2.086,2.1617,2.1455,2.1256,2.1698,0.0,0.0,0.0,0.0,0.0,0.0,0.0,0.0,0.0,2.7723,0.0,0.0,0.0,3.8447,3.9901,4.007,4.007,4.007,4.007,4.007,4.007,4.007,4.007,4.007,4.007,4.007,4.007,4.007,4.007,4.007,4.007,4.007,4.007,4.007,4.007,4.007,4.007,4.007,4.007,4.007,4.007,4.007,4.007,4.007,4.007,4.007,4.007,4.007,4.007,4.007,4.007,0.0,0.0,0.0,0.0,0.0,0.0,0.0,0.0,0.0,0.0,0.0,0.0,0.0,0.0,0.0,0.0,0.0,0.0,0.0,0.0,0.0,0.0,0.0,1.1285,1.1361,1.2756,1.3677,1.3999,1.5696,1.6661,1.6987,1.7529,1.7323,1.6481,1.5965,1.5683,0.0,0.0,0.0,0.0,0.0,0.0,0.0,0.0,0.0,0.0,0.0,0.0,0.0,1.7012,1.7025,1.6652,1.7219,0.0,0.0,0.0,0.0,0.0,1.7392,1.8871,2.0438,2.1365,2.1393,2.1306,0.0,0.0,0.0,0.0,0.0,0.0,0.0,0.0,0.0,0.0,0.0,0.0,3.5385,3.7178,3.8565,3.9918,4.007,4.007,4.007,4.007,4.007,4.007,4.007,4.007,4.007,4.007,4.007,4.007,4.007,4.007,4.007,4.007,4.007,4.007,4.007,4.007,4.007,4.007,4.007,4.007,4.007,4.007,4.007,4.007,4.007,4.007,4.007,4.007,4.007,4.007,4.007,4.007,0.0,0.0,0.0,0.0,0.0,0.0,0.0,0.0,0.0,0.0,0.0,0.0,0.0,0.0,0.0,0.0,0.0,0.0,0.0,0.0,0.0,1.0505,1.0798,1.118,1.1617,1.199,1.2647,1.359,1.4998,1.5955,1.6466,1.7534,1.718,1.5665,1.5468,1.5043,1.4528,0.0,0.0,0.0,0.0,0.0,0.0,0.0,0.0,0.0,0.0,0.0,0.0,1.5844,1.6038,1.5963,1.6068,0.0,0.0,0.0,0.0,0.0,1.8037,1.912,1.9803,1.9805,2.0303,2.0751,2.0609,0.0,0.0,0.0,0.0,0.0,0.0,0.0,0.0,0.0,0.0,3.4573,0.0,0.0,3.914,3.9969,4.007,4.007,4.007,4.007,4.007,4.007,4.007,4.007,4.007,4.007,4.007,4.007,4.007,4.007,4.007,4.007,4.007,4.007,4.007,4.007,4.007,4.007,4.007,4.007,4.007,4.007,4.007,4.007,4.007,4.007,4.007,4.007,4.007,4.007,4.007,4.007,0.0,0.0,0.0,0.0,0.0,0.0,0.0,0.0,0.0,0.0,0.0,0.0,0.0,0.0,0.0,0.0,0.0,0.0,0.0,0.0,0.9018,0.9891,1.0064,1.0555,1.1402,1.2321,1.3029,1.3618,1.5101,1.6022,1.6423,1.6903,1.6194,1.4526,1.445,1.4072,1.3501,1.3905,0.0,0.0,0.0,0.0,0.0,0.0,0.0,0.0,0.0,0.0,0.0,0.0,1.6009,1.6293,1.6293,0.0,0.0,0.0,0.0,0.0,1.6908,1.8119,1.9146,1.9034,2.0391,2.1759,2.1606,0.0,0.0,0.0,0.0,0.0,0.0,0.0,2.7211,3.1468,0.0,3.6383,3.8227,3.8785,3.9259,3.9986,4.007,4.007,4.007,4.007,4.007,4.007,4.007,4.007,4.007,4.007,4.007,4.007,4.007,4.007,4.007,4.007,4.007,4.007,4.007,4.007,4.007,4.007,4.007,4.007,4.007,4.007,4.007,4.007,4.007,4.007,4.007,4.007,4.007,4.007,4.007,4.007,0.0,0.0,0.0,0.0,0.0,0.0,0.0,0.0,0.0,0.0,0.0,0.0,0.0,0.0,0.0,0.0,0.0,0.0,0.0,0.0,0.8286,0.9158,0.9385,1.0003,1.1118,1.2419,1.3245,1.3603,1.5082,1.6,1.6323,1.5938,1.4938,1.3394,1.3394,1.306,1.2485,1.3005,1.3406,0.0,0.0,0.0,0.0,0.0,0.0,0.0,0.0,0.0,0.0,0.0,0.0,0.0,0.0,0.0,0.0,1.5948,1.5799,1.5873,1.6144,1.7445,1.8777,1.9091,0.0,2.2293,2.2649,0.0,0.0,0.0,0.0,0.0,0.0,2.5836,0.0,3.4039,3.6089,3.748,3.8774,3.9126,3.9462,4.0003,4.007,4.007,4.007,4.007,4.007,4.007,4.007,4.007,4.007,4.007,4.007,4.007,4.007,4.007,4.007,4.007,4.007,4.007,4.007,4.007,4.007,4.007,4.007,4.007,4.007,4.007,4.007,4.007,4.007,4.007,4.007,4.007,4.007,4.007,4.007,4.007,0.0,0.0,0.0,0.0,0.0,0.0,0.0,0.0,0.0,0.0,0.0,0.0,0.0,0.0,0.0,0.0,0.0,0.0,0.0,0.0,0.7446,0.8254,0.9074,0.995,1.0912,1.1531,1.2315,1.3346,1.4449,1.5271,1.5749,1.4714,1.3636,1.25,1.25,1.2135,1.1509,1.1693,1.2522,1.3607,0.0,0.0,0.0,0.0,0.0,0.0,0.0,0.0,0.0,0.0,0.0,0.0,0.0,0.0,1.5858,1.5814,1.5799,1.6068,1.7251,1.8134,1.9001,2.0258,2.0722,0.0,2.2439,2.2679,0.0,0.0,0.0,0.0,0.0,2.8097,3.144,3.5016,3.6792,3.8022,3.878,3.9527,4.002,4.007,4.007,4.007,4.007,4.007,4.007,4.007,4.007,4.007,4.007,4.007,4.007,4.007,4.007,4.007,4.007,4.007,4.007,4.007,4.007,4.007,4.007,4.007,4.007,4.007,4.007,4.007,4.007,4.007,4.007,4.007,4.007,4.007,4.007,4.007,4.007,4.007,0.0,0.0,0.0,0.0,0.0,0.0,0.0,0.0,0.0,0.0,0.0,0.0,0.0,0.0,0.0,0.0,0.0,0.0,0.0,0.6162,0.6744,0.7859,0.8239,0.884,0.9692,1.1328,1.2507,1.3231,1.4292,1.4809,1.4679,1.396,1.2839,1.1415,1.1415,1.1245,1.0956,1.1017,1.1567,1.2367,0.0,0.0,0.0,0.0,0.0,0.0,0.0,0.0,0.0,0.0,1.3317,1.3997,1.4385,1.4877,1.5359,1.5359,1.558,1.5903,1.6383,1.758,1.8927,1.9854,0.0,0.0,0.0,0.0,0.0,0.0,0.0,0.0,0.0,0.0,3.2616,3.476,3.623,3.7584,3.8755,3.9139,3.9542,4.002,4.007,4.007,4.007,4.007,4.007,4.007,4.007,4.007,4.007,4.007,4.007,4.007,4.007,4.007,4.007,4.007,4.007,4.007,4.007,4.007,4.007,4.007,4.007,4.007,4.007,4.007,4.007,4.007,4.007,4.007,4.007,4.007,4.007,4.007,4.007,4.007,0.0,0.0,0.0,0.0,0.0,0.0,0.0,0.0,0.0,0.0,0.0,0.0,0.0,0.0,0.0,0.0,0.0,0.0,0.5293,0.5464,0.5983,0.6934,0.7402,0.7945,0.8589,1.0677,1.1994,1.256,1.3604,1.3959,1.3611,1.2866,1.192,1.0821,1.066,1.056,1.0485,1.0387,1.0717,1.1326,1.1011,1.0808,0.0,0.0,0.0,0.0,0.0,0.0,0.0,0.0,1.2389,1.3296,1.3593,1.426,1.4907,1.4907,1.5278,1.5696,1.5846,1.7149,1.8628,0.0,0.0,0.0,0.0,0.0,0.0,0.0,0.0,0.0,0.0,0.0,0.0,0.0,3.5681,3.7042,3.8036,3.8619,3.9086,3.9662,3.9952,4.007,4.007,4.007,4.007,4.007,4.007,4.007,4.007,4.007,4.007,4.007,4.007,4.007,4.007,4.007,4.007,4.007,4.007,4.007,4.007,4.007,4.007,4.007,4.007,4.007,4.007,4.007,4.007,4.007,4.007,4.007,4.007,4.007,4.007,4.007,0.0,0.0,0.0,0.0,0.0,0.0,0.0,0.0,0.0,0.0,0.0,0.0,0.0,0.0,0.0,0.0,0.0,0.0,0.4313,0.4737,0.5106,0.539,0.6599,0.7427,0.7775,0.9427,1.0572,1.1228,1.2141,1.258,1.2557,1.1447,1.0898,1.0852,1.0333,1.0091,1.009,0.9677,0.9989,1.0727,0.9769,0.9909,0.0,0.0,0.0,0.0,0.0,0.0,0.0,0.0,1.1734,1.2348,1.3367,1.4035,1.4501,1.4501,1.4864,1.5399,1.5941,1.6992,0.0,0.0,0.0,0.0,0.0,0.0,0.0,0.0,0.0,3.0941,3.2273,0.0,0.0,3.329,3.5217,3.66,3.6615,3.793,3.8854,3.8908,3.961,4.007,4.007,4.007,4.007,4.007,4.007,4.007,4.007,4.007,4.007,4.007,4.007,4.007,4.007,4.007,4.007,4.007,4.007,4.007,4.007,4.007,4.007,4.007,4.007,4.007,4.007,4.007,4.007,4.007,4.007,4.0087,4.007,4.007,4.007,4.007,0.0,0.0,0.0,0.0,0.0,0.0,0.0,0.0,0.0,0.0,0.0,0.0,0.0,0.0,0.0,0.0,0.0,0.0,0.4313,0.4482,0.483,0.5365,0.5751,0.6399,0.729,0.8107,0.9583,1.168,1.1555,1.1524,1.16,1.0873,1.0513,1.0386,1.0249,1.0209,1.023,0.9708,0.9878,1.0387,0.975,0.977,0.0,0.0,0.0,0.0,0.0,0.0,0.0,0.0,0.0,0.0,1.1984,1.3076,1.4084,1.4084,1.4931,1.5811,1.5611,0.0,0.0,0.0,0.0,0.0,0.0,0.0,0.0,0.0,3.2422,3.2721,3.3125,3.3036,0.0,3.4038,3.4738,3.5506,3.6476,3.7008,3.7483,3.8092,3.8318,3.8723,3.9209,3.8761,3.8707,3.9209,3.9262,3.9262,3.9262,3.9262,3.9489,4.007,3.9542,3.9262,3.9262,3.9262,3.8995,3.8486,3.8486,3.9049,4.007,4.007,4.007,4.007,4.007,4.007,4.007,4.007,4.007,4.007,4.007,3.9782,3.9262,3.9262,3.9262,3.9262,0.0,0.0,0.0,0.0,0.0,0.0,0.0,0.0,0.0,0.0,0.0,0.0,0.0,0.0,0.0,0.0,0.0,0.0,0.0,0.401,0.4339,0.4983,0.5144,0.5836,0.7081,0.7376,0.8323,1.0002,0.9959,1.0166,1.0561,1.0221,1.0154,1.0254,1.0254,1.0169,0.9987,0.9488,0.9584,0.9972,0.9451,0.9466,0.9781,0.0,0.0,0.0,0.0,0.0,0.0,0.0,0.0,0.0,1.1136,0.0,1.3064,1.3519,1.4549,1.5716,1.6322,0.0,0.0,0.0,0.0,0.0,0.0,0.0,0.0,0.0,0.0,3.326,3.3784,3.3664,3.3709,3.4367,3.4696,3.5187,3.6056,3.6446,3.6783,3.7279,3.7632,3.7978,3.8414,3.8035,3.7978,3.8414,3.8469,3.8469,3.8469,3.8469,3.8707,3.9172,3.8707,3.8469,3.8469,3.8469,3.8246,3.7822,3.7822,3.8262,3.9172,3.9172,3.9172,3.9172,3.9172,3.9172,3.9172,3.9172,3.9332,3.961,3.961,3.9542,3.9315,3.9032,3.8908,3.8854,0.0,0.0,0.0,0.0,0.0,0.0,0.0,0.0,0.0,0.0,0.0,0.0,0.0,0.0,0.0,0.0,0.0,0.0,0.0,0.0,0.3765,0.4375,0.4839,0.5687,0.6974,0.6999,0.6999,0.7032,0.79,0.8732,0.9498,0.9534,0.9824,1.0283,1.0244,0.998,0.9515,0.9121,0.9147,0.9462,0.9015,0.9084,0.9447,0.9447,0.0,0.0,0.0,0.0,0.0,0.0,0.0,0.0,1.0681,1.1123,1.1789,1.2822,1.3912,1.5305,0.0,0.0,0.0,0.0,0.0,0.0,0.0,0.0,0.0,0.0,0.0,3.3051,3.4262,3.4038,3.3873,3.4472,3.51,3.5504,3.5504,3.6054,3.6492,3.6492,3.716,3.7648,3.769,3.7648,3.7648,3.769,3.769,3.769,3.769,3.769,3.769,3.7822,3.7748,3.769,3.769,3.769,3.7648,3.7589,3.7589,3.7589,3.7589,3.7764,3.7822,3.7822,3.7822,3.7822,3.7822,3.7822,3.8189,3.8799,3.8799,3.9209,3.9662,3.8962,3.8674,3.8564,0.0,0.0,0.0,0.0,0.0,0.0,0.0,0.0,0.0,0.0,0.0,0.0,0.0,0.0,0.0,0.0,0.0,0.0,0.0,0.0,0.3765,0.4375,0.5233,0.5861,0.6168,0.6168,0.6324,0.6634,0.7437,0.8136,0.8679,0.8992,0.9551,1.0264,0.9922,0.9505,0.9111,0.8691,0.857,0.8666,0.8535,0.8725,0.9013,0.9013,0.8934,0.0,0.0,0.0,0.0,0.0,0.0,0.0,1.0473,1.1123,1.1726,1.2391,1.3654,1.5082,0.0,0.0,0.0,0.0,0.0,0.0,0.0,0.0,0.0,3.2587,3.344,3.4143,3.4427,3.4801,3.5115,3.5265,3.5415,3.5504,3.5504,3.5619,3.5718,3.5718,3.591,3.6243,3.6798,3.6352,3.6243,3.6783,3.6859,3.6859,3.6859,3.6859,3.716,3.7764,3.7219,3.6859,3.6859,3.6859,3.6569,3.5958,3.5958,3.5958,3.6022,3.7235,3.7822,3.7822,3.7822,3.7822,3.7822,3.7822,3.7863,3.8035,3.8035,3.779,3.735,3.7188,3.7068,3.7068,0.0,0.0,0.0,0.0,0.0,0.0,0.0,0.0,0.0,0.0,0.0,0.0,0.0,0.0,0.0,0.0,0.0,0.0,0.0,0.3245,0.3622,0.4375,0.5164,0.5609,0.5609,0.5609,0.5703,0.5913,0.6529,0.7386,0.841,0.8984,0.9725,1.0566,1.0137,0.9707,0.9233,0.8643,0.8411,0.8411,0.8411,0.8495,0.8673,0.8673,0.851,0.8326,0.8717,0.0,0.0,0.0,0.0,0.0,0.0,0.0,1.1307,1.193,1.3251,1.4769,0.0,0.0,0.0,0.0,0.0,0.0,0.0,0.0,0.0,3.1973,3.2841,3.3724,3.4367,3.4771,3.5115,3.5444,3.5504,3.5504,3.5504,3.5504,3.5504,3.5504,3.5504,3.5668,3.6054,3.5733,3.5668,3.6054,3.6054,3.6054,3.6054,3.6054,3.6243,3.6662,3.629,3.6054,3.6054,3.6054,3.5894,3.5504,3.5504,3.5504,3.5504,3.6321,3.6723,3.6723,3.6723,3.6723,3.6723,3.6723,3.689,3.7219,3.7219,3.7203,3.716,3.6722,3.6615,3.6554,0.0,0.0,0.0,0.0,0.0,0.0,0.0,0.0,0.0,0.0,0.0,0.0,0.0,0.0,0.0,0.0,0.0,0.0,0.0,0.3,0.3534,0.4356,0.4917,0.5204,0.5204,0.5204,0.5204,0.5204,0.5619,0.6641,0.0,0.8887,0.9643,1.0485,1.0077,0.9696,0.9329,0.8569,0.8267,0.8262,0.8262,0.8262,0.8262,0.8262,0.8037,0.7754,0.8148,0.8262,0.8251,0.8662,0.0,0.0,0.0,0.0,1.064,1.1315,1.2529,1.4104,0.0,0.0,0.0,0.0,0.0,0.0,0.0,0.0,3.1482,3.1482,3.2063,3.2841,3.3933,3.4233,3.4532,3.522,3.5325,3.537,3.5489,3.5504,3.5504,3.5504,3.5504,3.5504,3.5504,3.5504,3.5504,3.5504,3.5504,3.5504,3.5504,3.5504,3.5504,3.5504,3.5504,3.5504,3.5504,3.5504,3.5504,3.5504,3.5504,3.5504,3.5504,3.5504,3.5504,3.5504,3.5504,3.5504,3.5504,3.5504,3.5831,3.6384,3.6384,3.6814,3.7294,3.6631,3.6384,3.6337,0.0,0.0,0.0,0.0,0.0,0.0,0.0,0.0,0.0,0.0,0.0,0.3068,0.2832,0.2762,0.0,0.0,0.0,0.0,0.2697,0.0,0.0,0.4362,0.4688,0.4867,0.4867,0.4867,0.4867,0.4867,0.5212,0.0,0.0,0.0,0.0,0.8977,0.8518,0.8334,0.8351,0.7834,0.7701,0.7783,0.7783,0.7783,0.7783,0.7783,0.7754,0.7754,0.8148,0.8062,0.7889,0.8568,0.8912,0.0,0.0,0.0,0.9756,1.0262,1.1214,1.2454,0.0,0.0,0.0,0.0,0.0,0.0,0.0,0.0,3.1482,0.0,3.2063,3.2557,3.2736,3.3245,3.3844,3.4502,3.4607,3.4816,3.5429,3.5504,3.5504,3.5504,3.5504,3.5504,3.5504,3.5504,3.5504,3.5504,3.5504,3.5504,3.5504,3.5504,3.5504,3.5504,3.5504,3.5504,3.5504,3.5504,3.5504,3.5504,3.5504,3.5504,3.5504,3.5504,3.5504,3.5504,3.5504,3.5504,3.5504,3.5504,3.5554,3.5668,3.5668,3.5733,3.5797,3.5668,3.5668,3.5604,0.0,0.0,0.0,0.0,0.0,0.0,0.0,0.0,0.0,0.0,0.0,0.2832,0.2719,0.2524,0.0,0.0,0.0,0.0,0.2415,0.2954,0.0,0.3867,0.4329,0.4568,0.4568,0.4568,0.4648,0.4807,0.0,0.0,0.0,0.684,0.7795,0.0,0.0,0.0,0.8451,0.0,0.0,0.7373,0.7373,0.7562,0.7835,0.7491,0.7571,0.789,0.795,0.7841,0.7754,0.808,0.8692,0.9214,0.8442,0.0,0.0,0.0,0.0,0.0,0.0,0.0,0.0,0.0,0.0,0.0,0.0,0.0,3.0454,3.0827,3.1495,3.2078,3.2437,3.2751,3.3155,3.3814,3.3918,3.4158,3.4846,3.4936,3.507,3.5459,3.5504,3.5504,3.5504,3.5504,3.5504,3.5504,3.5504,3.5504,3.5504,3.5504,3.5504,3.5504,3.5504,3.5504,3.5504,3.5504,3.5504,3.5504,3.5504,3.5504,3.5504,3.5504,3.5504,3.5504,3.5504,3.5504,3.5504,3.5504,3.5504,3.5504,3.5504,3.5504,3.5504,3.5504,3.5504,3.5504,0.0,0.0,0.0,0.0,0.0,0.0,0.0,0.0,0.0,0.0,0.0,0.0,0.2481,0.0,0.0,0.0,0.0,0.0,0.2172,0.0,0.0,0.0,0.0,0.416,0.416,0.416,0.4231,0.436,0.0,0.0,0.6508,0.644,0.7623,0.0,0.9128,0.8621,0.0,0.0,0.0,0.0,0.7177,0.7429,0.7799,0.7515,0.7697,0.8065,0.784,0.7772,0.0,0.0,0.0,0.0,0.0,0.8777,0.0,0.0,0.0,0.0,0.0,0.0,0.0,0.0,0.0,0.0,0.0,0.0,2.9245,0.0,3.0911,3.148,3.2138,3.2273,3.2482,3.314,3.3245,3.3469,3.4128,3.4233,3.4412,3.4936,3.4996,3.4996,3.4996,3.5145,3.525,3.525,3.54,3.5429,3.525,3.525,3.525,3.525,3.5085,3.516,3.5504,3.5504,3.5504,3.5504,3.5504,3.5504,3.5504,3.5504,3.5504,3.5504,3.5504,3.5504,3.5504,3.5504,3.5504,3.5504,3.5504,3.5504,3.5504,3.5504,3.5504,3.5504,0.0,0.0,0.0,0.0,0.0,0.0,0.0,0.0,0.0,0.0,0.0,0.0,0.1869,0.1825,0.1825,0.1825,0.0,0.0,0.0,0.0,0.0,0.0,0.0,0.0,0.3543,0.3543,0.3422,0.0,0.0,0.0,0.6224,0.673,0.7622,0.8862,0.8212,0.7725,0.7292,0.0,0.0,0.0,0.0,0.7392,0.7496,0.8047,0.827,0.8254,0.8055,0.0,0.0,0.0,0.0,0.0,0.8391,0.8432,0.8477,0.0,0.0,0.0,0.0,0.0,0.0,0.0,0.0,0.0,0.0,0.0,2.8236,3.0127,3.0537,3.0776,3.1465,3.1526,3.1735,3.2452,3.2557,3.2796,3.3455,3.3544,3.3559,3.3589,3.3604,3.3604,3.3604,3.4158,3.4532,3.4532,3.513,3.522,3.4562,3.4532,3.4532,3.4532,3.3918,3.4218,3.5489,3.5504,3.5504,3.5504,3.5504,3.5504,3.5504,3.5504,3.5504,3.5504,3.5504,3.5504,3.5504,3.5504,3.5504,3.5504,3.5504,3.5504,3.5504,3.5504,3.5504,3.5504,0.0,0.0,0.0,0.0,0.0,0.0,0.0,0.0,0.0,0.0,0.0,0.0,0.0,0.1803,0.1803,0.1803,0.1803,0.0,0.0,0.0,0.0,0.0,0.0,0.0,0.0,0.2978,0.0,0.0,0.0,0.4162,0.5614,0.5985,0.6613,0.7402,0.7769,0.7795,0.7623,0.7342,0.0,0.0,0.0,0.0,0.0,0.7855,0.8082,0.8409,0.0,0.0,0.0,0.0,0.0,0.0,0.8675,0.8564,0.879,0.8807,0.9349,0.0,0.0,0.0,0.0,0.0,0.0,0.0,2.2981,2.4947,2.6588,2.7769,2.8638,2.9471,3.0634,3.124,3.1556,3.1795,3.1884,3.2108,3.2766,3.2871,3.3021,3.344,3.3499,3.3499,3.3499,3.3709,3.3844,3.3844,3.4083,3.4098,3.3858,3.3844,3.3844,3.3844,3.3619,3.3724,3.4203,3.4218,3.4218,3.4218,3.403,3.3959,3.3974,3.3733,3.3616,3.3616,3.3616,3.4341,3.5504,3.5504,3.5504,3.5504,3.5504,3.5504,3.5504,3.5504,3.5504,3.5504,0.0,0.0,0.0,0.0,0.0,0.0,0.0,0.0,0.0,0.1825,0.0,0.0,0.0,0.0,0.1803,0.1803,0.1803,0.1803,0.1803,0.1978,0.0,0.0,0.0,0.0,0.0,0.2524,0.0,0.0,0.0,0.0,0.0,0.5307,0.5874,0.6488,0.7171,0.7535,0.0,0.0,0.0,0.7325,0.0,0.0,0.8046,0.0,0.8336,0.8581,0.0,0.0,0.0,0.0,0.0,0.0,0.888,0.8737,0.8777,0.8664,0.9014,0.982,1.1339,0.0,0.0,0.0,0.0,0.0,2.0823,0.0,2.4415,2.5895,2.6897,2.7853,2.9172,2.9812,3.0382,3.1334,3.1482,3.1689,3.2123,3.2183,3.2347,3.2781,3.2841,3.2841,3.2841,3.3036,3.3155,3.3155,3.3365,3.3395,3.3185,3.2896,3.2517,3.1988,3.246,3.2577,3.2295,3.2577,3.2679,3.2694,3.2456,3.2393,3.2407,3.2374,3.2289,3.2303,3.251,3.3325,3.4558,3.4558,3.4558,3.4558,3.4558,3.4558,3.4558,3.4558,3.4558,3.4558,0.0,0.0,0.0,0.0,0.0,0.0,0.0,0.0,0.1803,0.1803,0.0,0.0,0.0,0.0,0.0,0.1809,0.1809,0.1809,0.1803,0.1803,0.0,0.0,0.0,0.0,0.0,0.2193,0.2062,0.1803,0.2397,0.296,0.3506,0.0,0.5577,0.6173,0.6442,0.6727,0.6979,0.0,0.7722,0.7553,0.0,0.7875,0.7988,0.0,0.0,0.0,0.894,0.8832,0.0,0.8855,0.0,0.0,0.0,0.8875,0.833,0.7861,0.8337,0.9135,0.0,0.0,0.0,0.0,0.0,0.0,1.9786,0.0,2.1703,2.4681,2.5384,2.5772,2.6993,2.7228,2.8133,3.0952,3.1422,3.1452,3.1467,3.1482,3.1482,3.1482,3.1482,3.1482,3.1482,3.2108,3.2482,3.2422,3.3005,3.3095,3.2452,3.1594,3.0472,2.9016,3.0266,3.0599,3.0016,3.0585,3.0943,3.0943,3.0904,3.0904,3.0918,3.1474,3.1682,3.1709,3.2233,3.2508,3.2508,3.2593,3.2593,3.2593,3.2593,3.2593,3.2593,3.2593,3.2593,3.2593,0.0,0.0,0.0,0.0,0.0,0.1891,0.1803,0.1803,0.1803,0.0,0.0,0.0,0.1816,0.1879,0.1947,0.1947,0.1947,0.1899,0.1809,0.1803,0.1825,0.1913,0.1913,0.1913,0.1913,0.1913,0.1869,0.1803,0.2158,0.2532,0.2937,0.3649,0.4316,0.4919,0.5649,0.5814,0.5658,0.6363,0.0,0.7776,0.7415,0.7669,0.0,0.0,0.0,0.0,0.0,0.9552,1.0004,0.0,0.9637,0.9904,0.0,0.0,0.8557,0.8603,0.9258,0.9891,0.9675,0.0,0.0,0.0,0.0,0.0,0.0,0.0,1.966,2.121,2.2512,2.3933,2.5675,2.5867,2.634,2.8191,2.9319,3.0148,3.0571,3.1146,3.1482,3.1482,3.1482,3.1482,3.1482,3.1704,3.1545,3.0981,3.1081,3.0838,3.0021,2.9757,2.9408,2.9002,2.9384,2.9481,2.9251,2.9481,2.9564,2.9564,2.9334,2.9187,2.9214,2.9144,2.9145,2.9184,2.968,2.9925,3.0099,3.1857,3.2593,3.2593,3.2593,3.2593,3.2593,3.2593,3.2593,3.2593,0.0,0.0,0.0,0.1865,0.1876,0.1896,0.1964,0.197,0.197,0.0,0.0,0.0,0.1981,0.2083,0.212,0.2057,0.1972,0.1879,0.1796,0.1799,0.1809,0.1803,0.1842,0.1876,0.1876,0.1876,0.1876,0.1876,0.199,0.214,0.2337,0.2893,0.3346,0.3722,0.4462,0.4753,0.4756,0.5073,0.0,0.0,0.678,0.0,0.0,0.7842,0.8337,0.0,0.0,0.0,1.0236,0.9763,0.9886,0.0,0.0,0.0,0.9133,0.9134,0.982,1.0488,1.0234,0.0,0.0,0.0,0.0,0.0,1.5012,1.6465,1.7836,1.9282,2.0592,2.1864,2.3258,2.3576,2.4073,2.5348,2.6521,2.7706,2.8905,2.9462,2.9813,3.0089,3.0118,3.0352,3.094,3.1029,3.0777,3.0329,3.0329,2.9766,2.8492,2.8427,2.8298,2.7986,2.7986,2.7986,2.7986,2.7986,2.7986,2.792,2.773,2.7695,2.7653,2.7779,2.7758,2.7795,2.8348,2.8712,2.9026,3.0472,3.1176,3.1415,3.1415,3.1415,3.1415,3.1415,3.1415,3.1415,0.0,0.0,0.1848,0.1984,0.2025,0.206,0.2211,0.2221,0.2224,0.0,0.2229,0.2243,0.2308,0.2341,0.2291,0.2029,0.1839,0.173,0.169,0.1764,0.1811,0.1806,0.193,0.2001,0.1984,0.2018,0.2018,0.1984,0.1865,0.182,0.1806,0.2337,0.2605,0.2663,0.3175,0.3651,0.4024,0.3838,0.0,0.5313,0.5963,0.6416,0.0,0.0,0.7672,0.8309,0.8592,0.9041,0.9532,0.9564,0.9625,0.0,0.0,0.0,0.9822,0.9535,1.0141,1.0952,1.0954,1.1299,0.0,0.0,0.0,0.0,1.5246,1.567,1.6118,1.8118,1.8995,1.9579,2.0204,2.0807,2.1506,2.248,2.347,2.478,2.6854,2.727,2.7478,2.8047,2.8116,2.8568,2.9875,2.9992,2.9932,2.9872,2.9807,2.9108,2.767,2.7537,2.7229,2.6521,2.6533,2.6533,2.6533,2.6533,2.6533,2.6533,2.6533,2.6533,2.6546,2.6967,2.7193,2.7218,2.777,2.8298,2.875,2.8725,2.9188,2.9792,2.9792,2.9792,2.9792,2.9792,2.9792,2.9792,0.0,0.1879,0.1974,0.2004,0.2087,0.2214,0.2417,0.2313,0.2294,0.2564,0.2469,0.2496,0.2874,0.2499,0.2042,0.1486,0.1419,0.1304,0.1101,0.1519,0.1804,0.1801,0.1933,0.1954,0.1851,0.2043,0.2047,0.1847,0.192,0.1903,0.1803,0.1923,0.2095,0.2323,0.2682,0.2908,0.3018,0.0,0.0,0.381,0.4801,0.0,0.6834,0.6628,0.7034,0.7691,0.7737,0.8028,0.8375,0.8857,0.9303,0.9624,0.0,0.0,0.0,1.023,1.0705,1.1214,1.1393,1.1758,1.2051,0.0,0.0,0.0,1.2886,1.3596,1.4421,1.5279,1.6321,1.7241,1.7781,1.8732,1.9497,1.9703,2.1026,2.3051,2.5948,2.6868,2.7312,2.7436,2.7464,2.7565,2.7855,2.7869,2.7644,2.6945,2.6696,2.6593,2.6756,2.6714,2.6658,2.6533,2.6533,2.6533,2.6533,2.6533,2.6533,2.6533,2.6533,2.6533,2.6533,2.6647,2.6697,2.6722,2.7205,2.7507,2.7598,2.76,2.8448,2.9792,2.9792,2.9792,2.9792,2.9792,2.9792,2.9792,0.0,0.1906,0.201,0.2083,0.2245,0.2422,0.2678,0.2618,0.2613,0.283,0.2271,0.1956,0.2158,0.2616,0.2667,0.2047,0.1182,0.0595,0.0472,0.0721,0.1164,0.1771,0.1873,0.1958,0.2086,0.2112,0.206,0.2011,0.1933,0.1859,0.1803,0.1803,0.1931,0.2206,0.2301,0.2512,0.2829,0.0,0.3319,0.3626,0.4283,0.0,0.578,0.5756,0.6315,0.709,0.709,0.7476,0.8035,0.8493,0.8908,0.0,0.9357,0.9749,1.021,0.0,1.0831,1.1239,1.1193,1.1581,1.1986,1.2043,0.0,0.0,0.0,1.3367,1.3761,1.4742,1.5481,1.6113,1.6599,1.7214,1.7739,1.8026,1.9281,2.0619,2.1898,2.3645,2.5017,2.5614,2.5402,2.5635,2.6586,2.6701,2.6533,2.6131,2.555,2.5335,2.5624,2.5636,2.5762,2.6013,2.6025,2.6163,2.6533,2.6533,2.6533,2.6533,2.6533,2.6533,2.6533,2.6533,2.6533,2.6546,2.6753,2.6793,2.6553,2.6548,2.6935,2.7574,2.8572,2.8937,2.9028,2.9624,2.9131,2.8211,0.0,0.193,0.2067,0.2191,0.2381,0.2627,0.2866,0.2922,0.2951,0.2947,0.2236,0.1547,0.1082,0.1653,0.1851,0.134,0.0514,0.0,0.0,0.0,0.0425,0.1421,0.1573,0.1845,0.227,0.2147,0.209,0.2127,0.1933,0.1833,0.1803,0.1833,0.1974,0.2207,0.214,0.0,0.0,0.0,0.0,0.3863,0.0,0.445,0.4721,0.4989,0.5623,0.6412,0.6449,0.6981,0.7837,0.8215,0.8581,0.8979,0.9279,0.9959,0.0,0.0,0.0,0.0,1.0998,0.0,0.0,0.0,0.0,1.2919,0.0,0.0,0.0,1.4623,1.4908,0.0,0.0,1.5759,1.6031,1.6452,1.7601,1.8272,1.7783,1.9785,2.1782,2.3019,2.2977,2.345,2.5074,2.5122,2.524,2.5638,2.481,2.4481,2.4808,2.482,2.5008,2.5435,2.5548,2.5824,2.6289,2.6471,2.6383,2.6233,2.6233,2.6094,2.5931,2.5931,2.5931,2.5931,2.5931,2.5742,2.538,2.5253,2.5096,2.5204,2.6974,2.7702,2.7794,2.8834,2.8051,2.6637,0.1803,0.2015,0.2191,0.2207,0.2476,0.2723,0.2883,0.3016,0.2993,0.2776,0.3083,0.2542,0.0393,-0.2064,0.0,0.0,-0.141,0.0,0.0,0.0,0.0064,0.0211,0.072,0.1262,0.1855,0.2182,0.2173,0.1848,0.194,0.1916,0.1806,0.192,0.205,0.2214,0.2383,0.0,0.0,0.0,0.3429,0.0,0.4317,0.4538,0.0,0.4877,0.5092,0.53,0.5505,0.6141,0.6972,0.7767,0.8548,0.9301,0.0,1.0094,1.0239,1.0559,0.0,0.0,0.0,0.0,0.0,0.0,1.3004,1.4101,1.2456,0.0,1.3372,1.3194,0.0,0.0,0.0,0.0,0.0,1.419,1.5592,1.6672,1.657,1.7278,1.8359,1.9985,2.1057,2.1776,2.2015,2.1584,2.2128,2.4115,2.3223,2.3251,2.4745,2.482,2.4845,2.4908,2.536,2.5624,2.5686,2.6201,2.6025,2.5158,2.5158,2.4707,2.3806,2.3806,2.3806,2.3806,2.3806,2.3841,2.3711,2.3243,2.3602,2.4509,2.5667,2.6052,2.6108,2.6642,2.673,2.6483,0.1803,0.2028,0.0,0.2149,0.2465,0.2537,0.2054,0.2794,0.3353,0.3221,0.2239,0.1118,0.0,0.0,0.0,0.0,0.0,-0.185,0.0,0.0,0.0,0.0,0.0255,0.0493,0.0749,0.1265,0.1667,0.1976,0.1916,0.1852,0.1806,0.1937,0.2184,0.2503,0.2649,0.0,0.351,0.0,0.3707,0.0,0.0,0.0,0.0,0.502,0.5213,0.5274,0.5338,0.562,0.6059,0.6724,0.7659,0.8634,0.9198,0.0,0.0,1.0366,0.0,0.0,0.0,0.0,0.0,0.0,0.0,1.2729,1.1861,1.207,1.2516,1.266,0.0,0.0,0.0,0.0,0.0,0.0,1.4433,1.512,1.4468,1.5758,1.7214,1.8538,1.8868,1.9396,2.0367,2.0275,2.0779,2.2447,2.144,2.1519,2.3228,2.3364,2.3665,2.4318,2.4556,2.4971,2.5586,2.5837,2.5623,2.5004,2.5004,2.448,2.3514,2.3514,2.3514,2.3514,2.3514,2.3147,2.2638,2.24,2.2255,2.2251,2.2829,2.3816,2.4946,2.5806,2.5402,2.4638,0.1799,0.0,0.0,0.0,0.2422,0.2299,0.1117,0.2312,0.3177,0.2687,0.107,0.0,0.0,-0.0364,0.0,0.0,-0.4235,-0.3551,0.0,0.0,0.0,0.0,0.0,0.0,0.0,0.0421,0.1048,0.1875,0.1871,0.1889,0.1909,0.2062,0.2327,0.2726,0.2927,0.3314,0.3795,0.0,0.4026,0.4226,0.4484,0.4636,0.481,0.5148,0.5325,0.5428,0.5428,0.5428,0.5481,0.6177,0.6945,0.7836,0.8826,0.9701,1.0406,0.0,0.0,0.0,1.0027,1.0728,1.1426,1.0719,1.1251,1.1799,1.1182,1.142,1.1834,1.214,1.2443,0.0,0.0,0.0,1.2934,1.3066,0.0,1.3979,1.3037,1.4387,1.5846,1.6916,1.7035,1.7514,1.888,1.8714,1.9222,2.089,1.9916,2.0134,2.2176,2.2309,2.2761,2.3728,2.3704,2.4099,2.495,2.4896,2.4596,2.4192,2.4192,2.3672,2.2713,2.2713,2.2713,2.2713,2.2713,2.2264,2.1593,2.1593,2.1221,2.0596,2.0918,2.197,2.3535,2.4513,2.4085,2.3065,0.179,0.1975,0.0,0.0,0.0,0.2099,0.0325,0.1572,0.2104,0.0333,0.0,0.0,0.0,0.0,0.0,0.0,0.0,-0.444,-0.4339,0.0,0.0,0.0,0.0,0.0,0.0,0.0035,0.0442,0.1317,0.1838,0.2111,0.2197,0.24,0.2555,0.2733,0.3179,0.355,0.3812,0.4056,0.4402,0.4684,0.4843,0.5077,0.5384,0.5186,0.5233,0.5428,0.5428,0.5428,0.5579,0.6527,0.6924,0.7296,0.9209,0.9915,1.0081,1.0777,1.1162,1.1256,1.0688,1.166,1.2357,1.0265,1.1163,1.2118,1.0264,1.0786,1.1652,1.1379,1.1735,1.2282,1.2793,1.2896,1.304,1.3391,1.3496,0.0,0.0,1.2949,1.341,1.457,1.572,1.6667,1.7208,1.6287,1.6788,1.9557,1.8754,1.9344,2.2138,2.2309,2.2573,2.3078,2.2844,2.2977,2.3368,2.3121,2.2672,2.2103,2.2103,2.1593,2.0722,2.0722,2.0722,2.0722,2.0722,2.0634,2.0644,2.0644,2.0644,2.0566,2.0576,2.0869,2.1367,2.2281,2.2605,2.2588,0.0,0.0,0.0,0.0,0.0,0.2081,0.0276,0.0539,-0.0,0.0,0.0,0.0,0.0,-0.2235,-0.2979,0.0,0.0,-0.4777,-0.4513,-0.3547,0.0,0.0,0.0,0.0,0.0,0.0,0.0144,0.0436,0.1807,0.2513,0.254,0.2455,0.2613,0.2988,0.3344,0.3666,0.0,0.0,0.0,0.0,0.0,0.5098,0.5422,0.5304,0.5315,0.5428,0.5428,0.5426,0.5586,0.591,0.6476,0.7136,0.7826,0.8478,0.9088,0.9982,1.0367,1.0542,1.0981,1.169,1.1963,1.0634,1.0759,1.0955,0.9667,1.0258,1.0969,1.0694,1.1431,1.2084,1.2136,1.2125,1.2117,1.207,1.2061,1.2077,0.0,1.2608,1.3027,0.0,0.0,0.0,1.5459,1.5481,1.6244,1.7996,1.7795,1.8469,2.0511,2.1368,2.202,2.2573,2.231,2.2389,2.2912,2.2216,2.1809,2.1586,2.1586,2.1241,2.0566,2.0566,2.0566,2.0566,2.0566,2.0566,2.0566,2.0566,2.0566,2.0566,2.0566,2.0654,2.0898,2.1777,2.2275,2.2578,0.1224,0.0,0.0,0.0,0.0,0.1336,0.017,-0.0908,0.0,0.0,-0.5053,0.0,-0.3768,0.0,-0.3941,0.0,-0.506,-0.4886,-0.4572,-0.4565,0.0,-0.2565,-0.1921,0.0,0.0,0.0,0.0,0.0,0.1151,0.2001,0.249,0.256,0.2801,0.3095,0.0,0.3714,0.3975,0.0,0.4714,0.0,0.0,0.5192,0.5428,0.5428,0.5428,0.5435,0.5423,0.5504,0.5606,0.5711,0.6162,0.6756,0.7183,0.7706,0.8336,0.9253,0.9859,1.032,1.0773,1.1357,1.1683,1.0909,1.0715,1.0481,0.9599,1.0041,1.0594,1.0279,1.0967,1.1691,1.2022,1.1776,1.1567,1.1685,1.1701,1.1766,0.0,1.2452,1.2774,0.0,0.0,0.0,0.0,1.4313,1.5048,1.6836,1.6594,1.722,1.9297,2.0183,2.0894,2.1426,2.1148,2.1213,2.1715,2.0851,2.0498,2.0626,2.078,2.0717,2.0342,2.0498,2.0566,2.0566,2.0566,2.0566,2.0566,2.0566,2.0566,2.0566,2.0167,2.0001,2.0184,2.1471,2.2246,2.2773,0.1703,0.0,0.0,0.0,0.0748,0.0,0.0,0.0,-0.4731,0.0,-0.5128,-0.5047,-0.533,-0.5214,-0.5085,-0.5085,-0.5009,-0.4874,-0.4721,-0.4783,0.0,0.0,-0.3977,-0.3156,-0.0304,0.0,0.0,0.0,0.0,0.0697,0.2002,0.2692,0.3072,0.3108,0.3453,0.0,0.3849,0.4596,0.4918,0.4955,0.5247,0.5428,0.5428,0.5428,0.5428,0.5449,0.5535,0.5596,0.5644,0.5932,0.6034,0.6214,0.7347,0.7706,0.7897,0.8586,0.9627,1.053,1.0043,1.0808,1.168,1.1109,1.1022,1.0795,0.994,1.0194,1.0521,1.0221,1.0408,1.104,1.2365,1.1888,1.1464,1.2139,1.2324,1.2189,1.1755,1.2363,1.2608,0.0,0.0,0.0,0.0,0.0,1.3361,1.6033,1.5248,1.5791,1.8454,1.8897,1.928,1.9857,1.9469,1.9488,1.987,1.9004,1.8828,1.9258,1.9678,1.9893,1.9932,2.0361,2.0566,2.0566,2.0566,2.0566,2.0489,2.0489,2.0489,2.0323,1.9274,1.8966,1.9163,2.1053,2.2233,2.2931,0.0456,0.0452,0.0442,0.0,0.0209,0.0,0.0,0.0,0.0,0.0,-0.5196,-0.5244,-0.521,-0.5253,-0.5319,-0.5319,-0.5315,0.0,0.0,0.0,0.0,-0.4446,-0.4442,-0.4132,-0.3379,-0.1127,0.0,0.0,0.0,0.017,0.0561,0.2523,0.3371,0.3273,0.0,0.0,0.3906,0.4538,0.5019,0.5251,0.5367,0.5372,0.5372,0.5432,0.5428,0.5449,0.5535,0.5657,0.5776,0.5966,0.6105,0.6283,0.6553,0.6721,0.6861,0.7795,0.8268,0.8666,0.9304,1.0273,1.0985,1.0645,1.0912,1.1196,1.0755,1.0942,1.1122,1.0828,1.1176,1.1451,1.12,1.0975,1.0587,1.0073,1.0271,1.043,1.0336,0.0,0.0,1.1814,0.0,0.0,0.0,1.2762,1.3181,1.3891,1.4777,1.5713,1.6769,1.765,1.8474,1.9269,1.8975,1.9005,1.9477,1.8564,1.8379,1.8809,1.9238,1.9609,1.9932,2.0361,2.0566,2.0566,2.0566,2.0167,1.9441,1.9441,1.8877,1.8141,1.7819,1.7916,1.8303,1.9015,1.967,2.0121,0.0,0.0,0.0,0.0,0.0,0.0,-0.2357,-0.3286,0.0,-0.4904,-0.5081,0.0,-0.5125,-0.527,-0.5428,-0.5428,-0.5428,0.0,-0.5142,0.0,0.0,-0.4928,-0.4786,-0.468,-0.4525,-0.2861,0.0,0.0,0.0,0.0,0.0043,0.1948,0.274,0.0,0.0,0.3749,0.3925,0.3721,0.3883,0.4193,0.4246,0.47,0.0,0.5372,0.5476,0.5555,0.563,0.5735,0.5833,0.6057,0.6186,0.6338,0.6338,0.6338,0.6412,0.6945,0.748,0.7936,0.8466,0.9367,1.0082,0.995,1.0538,1.1045,1.0579,1.0963,1.1376,1.1216,1.1343,1.145,1.1343,1.0795,1.0194,0.9562,0.9626,0.9814,0.0,0.0,0.0,0.0,1.1393,0.0,1.1377,1.2141,1.2868,1.3184,1.3921,1.4575,1.5127,1.6181,1.7094,1.7768,1.7956,1.8273,1.8721,1.8269,1.7909,1.7703,1.8209,1.8322,1.8327,1.8806,1.9021,1.9195,1.9195,1.8789,1.823,1.823,1.7908,1.7253,1.6764,1.648,1.6362,1.6612,1.7731,1.9074,0.0,0.0,0.0,0.0,0.0,0.0,0.0,-0.3806,0.0,-0.4928,0.0,-0.5023,-0.5145,-0.5281,-0.5428,-0.5428,0.0,-0.5304,-0.5169,-0.5287,-0.5247,-0.4989,-0.5077,-0.4951,-0.4585,-0.4529,-0.3188,0.0,-0.0195,0.0,0.0042,0.1053,0.0,0.0,0.0,0.0,0.0,0.2523,0.2062,0.2315,0.2315,0.3284,0.4712,0.4928,0.5284,0.57,0.5779,0.5833,0.5874,0.6162,0.6338,0.6338,0.6338,0.6338,0.6338,0.6338,0.6945,0.7629,0.7629,0.8313,0.9069,0.9069,0.9895,1.045,0.9936,1.0475,1.1184,1.1259,1.1132,1.1233,1.2058,1.1049,1.001,0.9773,0.9725,0.9739,0.0,0.0,0.0,0.0,0.0,0.0,1.0197,1.1255,1.2193,1.2879,1.2711,1.2841,1.3532,1.4522,1.5371,1.6105,1.6865,1.7453,1.7784,1.794,1.7501,1.6567,1.6991,1.6931,1.6396,1.6763,1.7058,1.7342,1.7342,1.7253,1.709,1.709,1.7009,1.6772,1.5869,1.4894,1.4115,1.4369,1.6184,1.8483,0.0,0.0,0.0,0.0,0.0,-0.5378,-0.5415,-0.5108,-0.4972,-0.5283,-0.5345,-0.5294,-0.5318,-0.5411,-0.5428,-0.5428,-0.5428,0.0,0.0,0.0,0.0,-0.5284,-0.5186,-0.5044,-0.4994,-0.4643,-0.4258,-0.3692,-0.1199,0.0,0.0,0.0217,0.0296,0.0,0.0,0.0,0.4225,0.1511,0.0439,0.0452,0.0464,0.0669,0.1141,0.261,0.4109,0.551,0.5838,0.5996,0.6017,0.62,0.6338,0.6338,0.6338,0.6338,0.6338,0.6338,0.6416,0.6567,0.6567,0.7326,0.8084,0.8084,0.8841,0.9502,0.942,0.9553,0.992,1.0728,1.0839,1.1009,1.1497,1.0782,0.9907,0.9376,0.9323,0.9404,0.0,0.0,0.0,0.0,0.0,1.0557,1.0221,1.0429,1.0505,1.0382,1.0655,1.1248,1.2267,1.2842,1.4071,1.6016,1.6572,1.6806,1.6844,1.7579,1.7501,1.6567,1.6991,1.7315,1.7411,1.7072,1.7058,1.7342,1.7342,1.6764,1.5944,1.5944,1.5462,1.4664,1.4412,1.425,1.4095,1.4142,1.4627,1.5339,0.0,0.0,0.0,0.0,0.0,0.0,-0.5227,-0.5805,-0.5903,-0.5332,-0.5267,-0.5243,-0.5243,-0.5315,-0.5428,-0.5428,-0.5428,-0.5428,-0.5428,-0.5428,-0.5428,-0.5428,-0.5291,-0.5213,-0.5131,-0.4853,-0.4636,-0.4497,-0.2263,-0.0738,0.0,0.0,0.0,0.0042,0.0,0.2787,0.0,0.1279,0.0,0.0,0.0,0.0,0.0069,0.0972,0.2988,0.5289,0.4569,0.5101,0.6176,0.624,0.6338,0.6338,0.6338,0.6338,0.6338,0.6338,0.6338,0.6338,0.6338,0.6644,0.7022,0.7022,0.7783,0.8542,0.8542,0.8917,0.9448,0.9895,1.004,0.9966,0.9898,0.9694,0.9383,0.8983,0.9092,0.9345,0.0,0.0,0.0,0.0,0.0,0.0,0.0,0.0,0.0,0.0,0.0,1.0737,1.2015,1.223,1.3312,1.5352,1.56,1.5864,1.6242,1.6477,1.6079,1.5084,1.5265,1.5356,1.5358,1.5124,1.5233,1.5636,1.5636,1.5394,1.4894,1.4894,1.4573,1.4088,1.4088,1.4088,1.4088,1.4088,1.4175,1.4382,0.0,0.0,0.0,0.0,-0.42,-0.381,-0.5516,-0.6298,-0.6408,-0.557,-0.5619,-0.5619,-0.5428,-0.5607,-0.5624,-0.5428,-0.5428,-0.5428,-0.5428,-0.5428,-0.5428,-0.5428,-0.5428,-0.5304,-0.5182,-0.5036,-0.4826,-0.4541,-0.2997,-0.1438,0.0,0.0,0.0,0.0,0.0,0.1342,0.3406,0.0984,0.0,0.0,0.0,0.0,0.0,0.0,0.1752,0.41,0.3042,0.4243,0.6217,0.5796,0.5944,0.6264,0.6264,0.6264,0.6338,0.6338,0.6338,0.6338,0.6338,0.6338,0.6338,0.6338,0.6872,0.748,0.748,0.8084,0.8689,0.8922,0.9145,0.9085,0.8487,0.8669,0.884,0.8618,0.8711,0.8978,0.9441,0.0,0.0,0.0,0.0,0.0,0.8798,0.8631,0.9012,1.0266,0.9994,1.0314,1.1537,1.1731,1.2547,1.4279,1.4394,1.4687,1.5236,1.5219,1.4673,1.3673,1.3673,1.3657,1.3516,1.3286,1.3534,1.4088,1.4088,1.4088,1.4088,1.4088,1.3913,1.3737,1.3737,1.3561,1.3385,1.3385,1.3385,1.3461,0.0,0.0,0.0,-0.4775,-0.5269,-0.5531,-0.6741,-0.6819,-0.6645,-0.6563,-0.7214,-0.7409,-0.6628,-0.658,-0.6268,-0.5491,-0.5428,-0.5428,-0.5428,-0.5428,-0.5428,-0.5428,-0.5428,-0.5422,-0.5342,-0.5189,-0.4972,-0.4749,-0.3033,-0.1465,0.0,0.0,0.0,0.0,0.0,0.0174,0.0431,0.0127,0.0,0.0,0.0,0.0,0.0,0.0,0.0226,0.0683,0.2172,0.424,0.6002,0.407,0.4693,0.6278,0.6278,0.6271,0.6338,0.6338,0.6338,0.6338,0.6338,0.6338,0.6338,0.6338,0.6338,0.6412,0.6412,0.649,0.6872,0.7783,0.8694,0.9085,0.8487,0.8519,0.8628,0.8612,0.8086,0.7942,0.8755,0.0,0.8119,0.841,0.0,0.0,0.8784,0.807,0.8154,0.944,0.9478,0.9494,0.9671,1.0573,1.1642,1.2787,1.3411,1.3542,1.3148,1.4547,1.4673,1.3673,1.3673,1.394,1.4421,1.3588,1.3534,1.4088,1.4088,1.4088,1.4088,1.4088,1.347,1.2498,1.2498,1.1815,1.0956,1.0956,1.0956,1.0992,0.0,-0.1755,-0.3724,-0.5142,-0.6294,-0.6912,-0.687,-0.7766,-0.8491,-0.8491,-0.8239,-0.7897,-0.7502,-0.7502,-0.7307,-0.699,-0.6465,-0.6203,-0.6203,-0.5686,-0.5428,-0.5428,-0.5428,-0.5428,-0.5428,-0.5209,-0.5143,-0.5164,-0.4113,-0.29,-0.1631,-0.1618,-0.1608,-0.1583,-0.0468,0.0,0.0,0.0,0.0,0.0,0.0,0.0,0.0,0.0,0.0,0.0078,0.0782,0.1727,0.2592,0.2982,0.3682,0.4616,0.5889,0.6281,0.6271,0.6271,0.6268,0.6338,0.6338,0.6338,0.6338,0.6338,0.6338,0.6338,0.6338,0.6338,0.6416,0.6795,0.7249,0.7399,0.6996,0.7203,0.7459,0.7541,0.7546,0.7674,0.8249,0.7859,0.0,0.7752,0.0,0.0,0.0,0.7401,0.7401,0.749,0.7782,0.8555,0.9915,1.0033,1.0597,1.1889,1.2379,1.2577,1.246,1.3101,1.323,1.2879,1.2879,1.3208,1.3745,1.3358,1.3534,1.4088,1.4088,1.4088,1.4088,1.4088,1.3379,1.2328,1.2328,1.1638,1.0611,1.0611,1.0611,1.0626,-0.314,-0.516,-0.663,-0.5661,-0.7099,-0.812,-0.7394,-0.8695,-0.9896,-1.0172,-0.953,-0.8882,-0.8623,-0.8623,-0.8485,-0.8286,-0.7683,-0.735,-0.735,-0.6491,-0.5958,-0.5958,-0.5691,-0.5491,-0.5491,-0.5382,-0.5377,-0.548,-0.4982,-0.4247,-0.3331,-0.3449,-0.3556,-0.357,-0.2306,-0.1427,-0.0882,-0.0892,-0.0919,-0.0883,-0.0221,0.0,0.0,0.0,0.0,0.0,0.0,0.0,0.0236,0.1729,0.2196,0.2423,0.3997,0.4859,0.5485,0.6119,0.6274,0.6268,0.6264,0.6338,0.6338,0.6338,0.6338,0.6338,0.6338,0.6338,0.6338,0.6338,0.6338,0.6213,0.6057,0.6248,0.651,0.6738,0.6828,0.6981,0.7385,0.7125,0.0,0.6851,0.6643,0.6513,0.6583,0.6742,0.667,0.6276,0.6516,0.7557,0.9502,0.9444,0.9903,1.106,1.149,1.1797,1.1948,1.2182,1.2305,1.2305,1.1996,1.2151,1.2724,1.2556,1.268,1.3039,1.3039,1.3039,1.3039,1.3039,1.2339,1.1295,1.1295,1.0605,0.957,0.957,0.957,0.957,-1.0477,-1.0481,-0.9539,-0.6369,-0.7794,-0.9201,-0.8664,-0.9463,-1.0378,-1.1286,-1.1348,-1.0998,-1.0164,-1.0089,-0.9736,-0.8889,-0.8814,-0.8744,-0.8744,-0.7835,-0.7274,-0.7274,-0.629,-0.5796,-0.5796,-0.5793,-0.5725,-0.5586,-0.544,-0.5157,-0.481,-0.5199,-0.5538,-0.5762,-0.5731,-0.4713,-0.3076,-0.3086,-0.3095,-0.2866,-0.083,0.0,0.0,0.0,0.0,0.0,0.0,0.0,0.0,0.0,0.0,0.0078,0.0078,0.1485,0.3593,0.5643,0.6278,0.6274,0.6264,0.6338,0.6338,0.6338,0.6338,0.6338,0.6338,0.6338,0.6338,0.6338,0.6338,0.6213,0.6057,0.5905,0.5909,0.6328,0.5881,0.5578,0.599,0.5996,0.5986,0.5855,0.6035,0.6333,0.6568,0.6131,0.0,0.6377,0.6158,0.6494,0.7652,0.8639,0.9509,1.0087,1.0681,1.1129,1.1416,1.2004,1.2305,1.2298,1.1316,1.1059,1.1502,1.0911,1.0605,1.0611,1.0611,1.0611,1.0611,1.0611,1.0009,0.8978,0.8978,0.8189,0.7139,0.7139,0.7139,0.7139,-1.1077,-1.1452,-1.1076,-0.8995,-0.9938,-1.0666,-0.9759,-1.0606,-1.1442,-1.173,-1.1904,-1.188,-1.1657,-1.1237,-1.0867,-1.0579,-1.0025,-0.9678,-0.9678,-0.8829,-0.8333,-0.8333,-0.7349,-0.6789,-0.6789,-0.6154,-0.5779,-0.5735,-0.5593,-0.5498,-0.5379,-0.5691,-0.5819,-0.5818,-0.5878,-0.5623,-0.5091,-0.5223,-0.5318,-0.52,-0.4573,-0.342,-0.1954,-0.0548,0.0,0.0,0.0,0.0,0.0,0.0,0.0,0.0,0.0,0.047,0.1094,0.1799,0.4073,0.6288,0.6285,0.6278,0.6274,0.6274,0.6268,0.6338,0.6338,0.6338,0.6338,0.6338,0.6338,0.6183,0.5922,0.5833,0.5775,0.5737,0.5557,0.5422,0.5402,0.5283,0.5217,0.5053,0.506,0.5054,0.5164,0.5338,0.537,0.5105,0.5387,0.5918,0.6789,0.7435,0.7837,0.8061,0.8925,0.9386,0.9383,0.9952,1.0271,1.0271,0.9895,0.9983,1.0439,1.0578,1.0611,1.0611,1.0611,1.0611,1.0611,1.0611,0.9923,0.889,0.889,0.8189,0.7139,0.7139,0.7139,0.7139,-1.1597,-1.2051,-1.1851,-1.0367,-1.1047,-1.1481,-1.0533,-1.1325,-1.2031,-1.2031,-1.2191,-1.2305,-1.2305,-1.1971,-1.1757,-1.1757,-1.1249,-1.0895,-1.0895,-1.0093,-0.9586,-0.9586,-0.8577,-0.7856,-0.7496,-0.6845,-0.6338,-0.5976,-0.5827,-0.5725,-0.5671,-0.5821,-0.5901,-0.5888,-0.5971,-0.606,-0.6129,-0.6222,-0.628,-0.6285,-0.6288,-0.5488,-0.4144,-0.2895,-0.1877,-0.1095,-0.0314,0.0,0.0,0.0,0.0,0.0,0.0,0.0,0.0,0.0,0.1878,0.4075,0.4859,0.5093,0.5326,0.6122,0.6278,0.6268,0.6264,0.6338,0.6338,0.6338,0.6338,0.6166,0.5857,0.58,0.5705,0.5476,0.5428,0.5287,0.5081,0.4975,0.4843,0.4629,0.4572,0.4548,0.4548,0.4936,0.5052,0.4766,0.506,0.5401,0.5859,0.6501,0.7073,0.7481,0.8235,0.8714,0.8727,0.908,0.9296,0.9301,0.9,0.8815,0.8742,0.9132,0.9309,0.9309,0.9309,0.9309,0.9309,0.9309,0.8882,0.8189,0.8189,0.7757,0.7064,0.7064,0.7068,0.7071,-1.2091,-1.2305,-1.1929,-1.0651,-1.1265,-1.1696,-1.0977,-1.1694,-1.2305,-1.2305,-1.2305,-1.2305,-1.2305,-1.2305,-1.2305,-1.2305,-1.2305,-1.2305,-1.2305,-1.1391,-1.0932,-1.0932,-0.997,-0.8993,-0.8008,-0.7936,-0.7403,-0.6412,-0.6115,-0.5973,-0.5833,-0.5833,-0.5908,-0.6047,-0.6047,-0.6125,-0.6338,-0.6338,-0.6338,-0.6264,-0.6285,-0.6291,-0.6295,-0.6315,-0.5042,-0.3061,-0.1179,-0.0393,-0.0237,-0.0081,0.0,0.0,0.0,0.0,0.0,0.0,0.0,0.0392,0.2349,0.2893,0.3361,0.5575,0.6207,0.6278,0.6268,0.6264,0.6264,0.6264,0.6264,0.6169,0.5861,0.5803,0.5705,0.541,0.5418,0.5247,0.4958,0.4918,0.4809,0.457,0.4613,0.4707,0.4707,0.4843,0.4986,0.5104,0.5125,0.5131,0.5131,0.5907,0.6841,0.8015,0.8431,0.8758,0.9069,0.9074,0.9079,0.9099,0.8395,0.7604,0.6725,0.701,0.7143,0.7143,0.7139,0.7143,0.7143,0.7143,0.7143,0.7143,0.7143,0.7068,0.7088,0.6903,0.6821,0.6828,-1.2245,-1.2305,-1.2224,-1.1855,-1.2024,-1.2145,-1.199,-1.215,-1.2305,-1.2305,-1.2305,-1.2305,-1.2305,-1.2305,-1.2305,-1.2305,-1.2305,-1.2305,-1.2305,-1.2077,-1.1922,-1.1922,-1.1019,-1.034,-1.011,-0.9367,-0.8466,-0.748,-0.6601,-0.619,-0.6152,-0.6152,-0.6169,-0.6207,-0.6207,-0.6227,-0.6338,-0.6338,-0.6338,-0.6271,-0.6383,-0.6427,-0.6441,-0.6485,-0.6198,-0.5697,-0.5295,-0.4131,-0.2476,-0.0581,0.0,0.0,0.0,0.0,0.0,0.0,0.0,0.0081,0.0564,0.0715,0.1252,0.3372,0.5104,0.6291,0.6288,0.6288,0.6288,0.6288,0.6281,0.6263,0.6197,0.5967,0.5708,0.542,0.5267,0.5121,0.4945,0.4918,0.485,0.466,0.4772,0.4863,0.4863,0.4996,0.505,0.4975,0.5067,0.5131,0.5131,0.555,0.5916,0.6199,0.6516,0.6772,0.7022,0.7022,0.7083,0.7126,0.7093,0.701,0.6881,0.7058,0.7061,0.7078,0.7058,0.7061,0.7078,0.7078,0.7078,0.7078,0.7088,0.7094,0.6913,0.5097,0.4467,0.4467,-1.2305,-1.2305,-1.2305,-1.2305,-1.2305,-1.2305,-1.2305,-1.2305,-1.2305,-1.2305,-1.2305,-1.2305,-1.2305,-1.2305,-1.2305,-1.2305,-1.2305,-1.2305,-1.2305,-1.2305,-1.2305,-1.2305,-1.1768,-1.1236,-1.0783,-1.0265,-0.9291,-0.7783,-0.7253,-0.6718,-0.6338,-0.6338,-0.6338,-0.6338,-0.6338,-0.6338,-0.6342,-0.6329,-0.6359,-0.6369,-0.6519,-0.6576,-0.6586,-0.6592,-0.6625,-0.6629,-0.6729,-0.605,-0.487,-0.3648,-0.1786,0.0,0.0,0.0,0.0,0.0,0.0,0.0,0.0,0.0,0.0239,0.1415,0.2585,0.3682,0.4623,0.4859,0.4859,0.4859,0.4854,0.5115,0.6152,0.5362,0.4782,0.5295,0.5311,0.5179,0.4904,0.4931,0.4856,0.483,0.4884,0.4912,0.4912,0.5101,0.522,0.5142,0.5205,0.5219,0.5219,0.5431,0.5555,0.5688,0.5976,0.6176,0.6261,0.6268,0.6342,0.6408,0.6647,0.6719,0.6781,0.7011,0.7081,0.7002,0.5988,0.608,0.7094,0.7094,0.6456,0.5455,0.546,0.6195,0.6936,0.5657,0.3851,0.1969,-1.2305,-1.2305,-1.2305,-1.2305,-1.2305,-1.2305,-1.2305,-1.2305,-1.2305,-1.2305,-1.2305,-1.2305,-1.2305,-1.2305,-1.2305,-1.2305,-1.2305,-1.2305,-1.2305,-1.2305,-1.2305,-1.2305,-1.2305,-1.1922,-1.1087,-1.0864,-0.9959,-0.8232,-0.7936,-0.7326,-0.649,-0.6338,-0.6338,-0.6338,-0.6338,-0.6274,-0.6302,-0.642,-0.6485,-0.6519,-0.6675,-0.6736,-0.6736,-0.6759,-0.6766,-0.6766,-0.6864,-0.6867,-0.6891,-0.7049,-0.4446,-0.1047,-0.0622,-0.0537,-0.0449,-0.009,0.0,0.0,0.0,0.0,0.0,0.0,0.0,0.047,0.2266,0.2656,0.2656,0.2656,0.2656,0.3182,0.5028,0.4149,0.343,0.4411,0.4831,0.4866,0.4612,0.4505,0.4489,0.4522,0.4568,0.459,0.4546,0.4846,0.4978,0.4978,0.5017,0.5011,0.5011,0.5023,0.5092,0.5328,0.5964,0.6268,0.6268,0.6278,0.6113,0.5848,0.608,0.6226,0.6276,0.6492,0.6739,0.6926,0.465,0.4559,0.6103,0.6831,0.5919,0.4022,0.3304,0.4302,0.6039,0.6039,0.3506,0.0,-1.2305,-1.2305,-1.2305,-1.2305,-1.2305,-1.2305,-1.2305,-1.2305,-1.2305,-1.2305,-1.2305,-1.2305,-1.2305,-1.2305,-1.2305,-1.2305,-1.2305,-1.2305,-1.2305,-1.2305,-1.2305,-1.2305,-1.2305,-1.2224,-1.207,-1.1236,-1.0634,-1.0335,-0.8609,-0.7706,-0.7557,-0.6718,-0.6338,-0.6338,-0.6338,-0.6329,-0.6441,-0.6464,-0.6549,-0.6678,-0.6831,-0.6895,-0.6905,-0.7027,-0.7071,-0.7071,-0.7075,-0.7075,-0.7082,-0.7129,-0.6602,-0.5614,-0.3657,-0.3035,-0.2679,-0.0626,0.0,0.0,0.0,0.0,0.0,0.0,0.0,0.0078,0.0392,0.0471,0.0471,0.0471,0.047,0.0622,0.0912,0.2145,0.257,0.1081,0.2102,0.3073,0.303,0.2778,0.2591,0.2645,0.285,0.3063,0.3061,0.3079,0.3086,0.3086,0.3097,0.3105,0.3105,0.312,0.3163,0.3149,0.5177,0.6291,0.6291,0.6291,0.5398,0.3562,0.3647,0.3817,0.4078,0.416,0.5198,0.6946,0.4654,0.2677,0.1431,0.5484,0.6857,0.6126,0.2154,0.0808,0.1078,0.1078,0.0629,0.0,-1.2305,-1.2305,-1.2305,-1.2305,-1.2305,-1.2305,-1.2305,-1.2305,-1.2305,-1.2305,-1.2305,-1.2305,-1.2305,-1.2305,-1.2305,-1.2305,-1.2305,-1.2305,-1.2305,-1.2305,-1.2305,-1.2305,-1.2305,-1.2378,-1.2538,-1.2074,-1.1688,-1.1295,-1.0361,-0.9655,-0.9104,-0.7915,-0.7441,-0.7441,-0.6812,-0.6532,-0.66,-0.6681,-0.6759,-0.6834,-0.6983,-0.7044,-0.7051,-0.7115,-0.7139,-0.7139,-0.7139,-0.7139,-0.7143,-0.7064,-0.7074,-0.6903,-0.5816,-0.5458,-0.5282,-0.4115,-0.1969,0.0,0.0,0.0,0.0,0.0,0.0,0.0,0.0,0.0,0.0,0.0,0.0,0.0,0.0,0.0747,0.1082,0.0141,0.0678,0.1247,0.123,0.1126,0.1017,0.103,0.1125,0.122,0.1235,0.1236,0.1236,0.1236,0.1252,0.1707,0.2677,0.2665,0.2778,0.2934,0.3973,0.4543,0.4543,0.5746,0.5823,0.4804,0.2492,0.1529,0.165,0.1685,0.2241,0.3235,0.2151,-0.0447,-0.3678,-0.1432,0.0179,0.116,-0.1073,-0.1969,-0.1969,-0.1969,-0.1969,-0.179,-1.2305,-1.2305,-1.2305,-1.2305,-1.2305,-1.2305,-1.2305,-1.2305,-1.2305,-1.2305,-1.2305,-1.2305,-1.2305,-1.2305,-1.2305,-1.2305,-1.2305,-1.2305,-1.2305,-1.2305,-1.2331,-1.2405,-1.2472,-1.2619,-1.2929,-1.2852,-1.2648,-1.2068,-1.1822,-1.1341,-1.0525,-0.9055,-0.8401,-0.8319,-0.7188,-0.6719,-0.6763,-0.6878,-0.6949,-0.6987,-0.7095,-0.7139,-0.7139,-0.7139,-0.7139,-0.7139,-0.7139,-0.7139,-0.7139,-0.7139,-0.7064,-0.7078,-0.7078,-0.7084,-0.7091,-0.7098,-0.4482,-0.1429,-0.0262,0.0,0.0,0.0,0.0,0.0,0.0,0.0,0.0,0.0,0.0,0.0,0.0,0.0,0.0,0.0,0.0,0.0,0.0,0.0,0.0,0.0,0.0,-0.0369,-0.1334,-0.1483,-0.126,-0.0741,-0.0754,-0.0076,0.1296,0.132,0.1412,0.1648,0.1172,0.0936,0.0936,0.3056,0.4124,0.4038,0.0746,-0.0848,-0.0863,-0.0798,-0.0807,-0.0807,-0.0807,-0.2871,-0.6305,-0.6853,-0.6019,-0.4378,-0.4378,-0.4378,-0.4378,-0.4378,-0.4378,-0.4109,-1.2305,-1.2305,-1.2305,-1.2305,-1.2305,-1.2305,-1.2305,-1.2305,-1.2305,-1.2305,-1.2305,-1.2305,-1.2305,-1.2305,-1.2305,-1.2305,-1.2305,-1.2305,-1.2305,-1.2305,-1.2425,-1.2775,-1.2993,-1.3153,-1.3173,-1.3173,-1.3107,-1.3127,-1.2154,-1.1662,-1.1502,-0.9375,-0.8401,-0.8319,-0.7188,-0.678,-0.6912,-0.6922,-0.7004,-0.7126,-0.7136,-0.7139,-0.7139,-0.7139,-0.7139,-0.7139,-0.7139,-0.7139,-0.7139,-0.7139,-0.7143,-0.7143,-0.7143,-0.7143,-0.7061,-0.7081,-0.6824,-0.5625,-0.122,0.0,0.0,0.0,0.0,0.0,0.0,0.0,0.0,0.0,0.0,0.0,0.0,0.0,0.0,0.0,0.0,0.0,0.0,0.0,0.0,0.0,0.0,-0.1524,-0.5485,-0.5817,-0.5012,-0.3031,-0.2879,-0.2804,-0.2647,-0.2652,-0.2655,-0.2655,-0.4557,-0.5605,-0.5605,-0.3444,-0.2422,-0.2427,-0.3035,-0.3355,-0.3365,-0.3332,-0.3303,-0.3303,-0.3303,-0.3571,-0.402,-0.6189,-0.7012,-0.6828,-0.6828,-0.6828,-0.6828,-0.6828,-0.6828,-0.6828,-1.2305,-1.2305,-1.2305,-1.2305,-1.2305,-1.2305,-1.2305,-1.2305,-1.2305,-1.2305,-1.2305,-1.2305,-1.2305,-1.2305,-1.2305,-1.2305,-1.2305,-1.2305,-1.2305,-1.2478,-1.2701,-1.2815,-1.3046,-1.3293,-1.3474,-1.348,-1.3567,-1.3754,-1.3411,-1.3163,-1.3156,-1.1533,-1.0432,-0.9682,-0.8589,-0.7692,-0.7058,-0.7058,-0.7092,-0.7139,-0.7139,-0.7139,-0.7139,-0.7139,-0.7139,-0.7139,-0.7139,-0.7139,-0.7139,-0.7139,-0.7139,-0.7139,-0.7139,-0.7139,-0.7143,-0.7061,-0.7078,-0.6716,-0.4872,-0.3306,-0.2215,-0.1998,-0.1952,-0.1911,-0.1884,-0.1955,-0.1955,-0.1955,-0.1955,-0.1955,-0.1955,-0.1919,-0.1891,-0.1899,-0.1928,-0.1895,-0.1908,-0.1924,-0.1942,-0.1886,-0.1912,-0.2556,-0.4153,-0.5509,-0.5983,-0.5176,-0.5096,-0.5096,-0.5096,-0.5096,-0.5096,-0.5096,-0.5895,-0.6302,-0.6308,-0.55,-0.5096,-0.5098,-0.535,-0.5638,-0.5733,-0.5804,-0.5735,-0.5735,-0.5735,-0.5733,-0.5816,-0.6726,-0.7084,-0.7071,-0.7071,-0.7071,-0.7071,-0.7071,-0.7071,-0.7074,-1.2305,-1.2305,-1.2305,-1.2305,-1.2305,-1.2305,-1.2305,-1.2305,-1.2305,-1.2305,-1.2305,-1.2305,-1.2305,-1.2305,-1.2305,-1.2305,-1.2305,-1.2345,-1.2438,-1.2812,-1.3026,-1.3026,-1.332,-1.3581,-1.3774,-1.3781,-1.3881,-1.4088,-1.4088,-1.4088,-1.4088,-1.2851,-1.1895,-1.1037,-0.9579,-0.8452,-0.7665,-0.7665,-0.7489,-0.7139,-0.7489,-0.7401,-0.7139,-0.7139,-0.7139,-0.7139,-0.7139,-0.7139,-0.7139,-0.7139,-0.7139,-0.7139,-0.7139,-0.7139,-0.7139,-0.7139,-0.7064,-0.7074,-0.7074,-0.5928,-0.461,-0.4431,-0.4229,-0.4116,-0.4128,-0.409,-0.4068,-0.4068,-0.4068,-0.4068,-0.4068,-0.4094,-0.4072,-0.4135,-0.4112,-0.4122,-0.4118,-0.4128,-0.4128,-0.4128,-0.4108,-0.4066,-0.4142,-0.541,-0.6288,-0.6285,-0.6285,-0.6285,-0.6285,-0.6285,-0.6285,-0.6285,-0.6278,-0.6278,-0.6285,-0.6285,-0.6285,-0.6288,-0.6542,-0.6774,-0.7003,-0.6997,-0.7044,-0.7088,-0.7088,-0.7081,-0.7074,-0.7074,-0.7064,-0.7139,-0.7139,-0.7139,-0.7139,-0.7139,-0.7139,-0.7143,-1.2305,-1.2305,-1.2305,-1.2305,-1.2305,-1.2305,-1.2305,-1.2305,-1.2305,-1.2305,-1.2305,-1.2305,-1.2305,-1.2305,-1.2305,-1.2305,-1.2305,-1.2425,-1.2808,-1.3307,-1.3559,-1.3566,-1.3928,-1.4088,-1.4088,-1.4088,-1.4088,-1.4088,-1.4088,-1.4088,-1.4088,-1.2851,-1.2328,-1.2242,-0.9923,-0.889,-0.889,-0.889,-0.8189,-0.7228,-0.8452,-0.8189,-0.7139,-0.7139,-0.7139,-0.7139,-0.7139,-0.7139,-0.7139,-0.7139,-0.7139,-0.7139,-0.7139,-0.7139,-0.7139,-0.7139,-0.7139,-0.7139,-0.7139,-0.7139,-0.7115,-0.7097,-0.6666,-0.6276,-0.6276,-0.6321,-0.6295,-0.6295,-0.6295,-0.6295,-0.6295,-0.6295,-0.6295,-0.6295,-0.6295,-0.6295,-0.6295,-0.6295,-0.6295,-0.6295,-0.6295,-0.6291,-0.6281,-0.6278,-0.6274,-0.6264,-0.6338,-0.6338,-0.6338,-0.6338,-0.6338,-0.6338,-0.6338,-0.6338,-0.6338,-0.6338,-0.6338,-0.6342,-0.6407,-0.6552,-0.6705,-0.6858,-0.7007,-0.7139,-0.7139,-0.7139,-0.7139,-0.7139,-0.7139,-0.7139,-0.7139,-0.7139,-0.7139,-0.7139,-0.7139,-0.7139,-1.2305,-1.2305,-1.2305,-1.2305,-1.2305,-1.2305,-1.2305,-1.2305,-1.2305,-1.2305,-1.2305,-1.2305,-1.2305,-1.2305,-1.2305,-1.2305,-1.2305,-1.2518,-1.3039,-1.3434,-1.3734,-1.3948,-1.4041,-1.4088,-1.4088,-1.4088,-1.4088,-1.4088,-1.4088,-1.4088,-1.4088,-1.373,-1.3118,-1.2242,-1.0778,-0.9666,-0.889,-0.889,-0.8715,-0.8364,-0.8715,-0.8715,-0.8277,-0.7404,-0.7139,-0.7139,-0.7139,-0.7139,-0.7139,-0.7139,-0.7139,-0.7139,-0.7139,-0.7139,-0.7139,-0.7139,-0.7139,-0.7139,-0.7139,-0.7139,-0.7109,-0.698,-0.6793,-0.6535,-0.6431,-0.6373,-0.6271,-0.6271,-0.6271,-0.6271,-0.6271,-0.6271,-0.6271,-0.6271,-0.6271,-0.6271,-0.6271,-0.6271,-0.6271,-0.6271,-0.6271,-0.6271,-0.6268,-0.6268,-0.6264,-0.6338,-0.6338,-0.6338,-0.6338,-0.6338,-0.6338,-0.6338,-0.6338,-0.6644,-0.7326,-0.6644,-0.6338,-0.6342,-0.6407,-0.6552,-0.6705,-0.7689,-0.8197,-0.8364,-0.9226,-0.957,-0.957,-0.957,-0.957,-0.957,-0.957,-0.957,-0.957,-0.957,-0.957,-0.957,-1.2305,-1.2305,-1.2305,-1.2305,-1.2305,-1.2305,-1.2305,-1.2305,-1.2305,-1.2305,-1.2305,-1.2305,-1.2305,-1.2305,-1.2305,-1.2305,-1.2525,-1.2819,-1.3186,-1.3594,-1.3901,-1.4082,-1.4088,-1.4088,-1.4088,-1.4088,-1.4088,-1.4088,-1.4088,-1.4088,-1.4088,-1.4088,-1.373,-1.2942,-1.1815,-1.0864,-1.0178,-0.9753,-0.9579,-0.9579,-0.9579,-0.9579,-0.9405,-0.8277,-0.8101,-0.8356,-0.7401,-0.7661,-0.8356,-0.7401,-0.7139,-0.7139,-0.7139,-0.7139,-0.7139,-0.7139,-0.7139,-0.7139,-0.7139,-0.7139,-0.7119,-0.7034,-0.6902,-0.6753,-0.6597,-0.6451,-0.6329,-0.6274,-0.6338,-0.6338,-0.6338,-0.6338,-0.6338,-0.6338,-0.6338,-0.6338,-0.6338,-0.6338,-0.6338,-0.6338,-0.6338,-0.6338,-0.6338,-0.6338,-0.6338,-0.6338,-0.6641,-0.6872,-0.6872,-0.7249,-0.748,-0.748,-0.748,-0.7783,-0.8389,-0.7783,-0.748,-0.748,-0.7655,-0.7829,-0.8008,-0.8932,-0.9473,-0.9579,-1.0265,-1.0611,-1.0611,-1.0611,-1.0611,-1.0611,-1.0611,-1.0611,-1.0611,-1.0611,-1.0611,-1.0611,-1.2305,-1.2305,-1.2305,-1.2305,-1.2305,-1.2305,-1.2305,-1.2305,-1.2305,-1.2305,-1.2305,-1.2305,-1.2305,-1.2305,-1.2305,-1.2305,-1.2859,-1.322,-1.3247,-1.3774,-1.4088,-1.4088,-1.4088,-1.4088,-1.4088,-1.4088,-1.4088,-1.4088,-1.4088,-1.4088,-1.4088,-1.4088,-1.4088,-1.4082,-1.2851,-1.2328,-1.2242,-1.1214,-1.0783,-1.0783,-1.0783,-1.0783,-1.0611,-0.9492,-0.9666,-1.0351,-0.8097,-0.8703,-1.0265,-0.8009,-0.7228,-0.7139,-0.7228,-0.7228,-0.7316,-0.7401,-0.7401,-0.7401,-0.7401,-0.7401,-0.7401,-0.7401,-0.7299,-0.7161,-0.692,-0.6834,-0.6748,-0.6617,-0.6578,-0.6567,-0.6567,-0.6567,-0.6567,-0.6412,-0.6412,-0.6412,-0.6338,-0.6338,-0.6338,-0.6338,-0.6338,-0.6338,-0.6338,-0.6416,-0.649,-0.6567,-0.7403,-0.7931,-0.7931,-0.8765,-0.9296,-0.9296,-0.9296,-0.9372,-0.9448,-0.9448,-0.9372,-0.9301,-0.9601,-0.9736,-0.9948,-1.0336,-1.0652,-1.0783,-1.0869,-1.0869,-1.0869,-1.0869,-1.0869,-1.0869,-1.0869,-1.0869,-1.0869,-1.0869,-1.0869,-1.0869,-1.2305,-1.2305,-1.2305,-1.2305,-1.2305,-1.2305,-1.2305,-1.2305,-1.2305,-1.2305,-1.2305,-1.2305,-1.2305,-1.2305,-1.2305,-1.2305,-1.2859,-1.3307,-1.3534,-1.3888,-1.4088,-1.4088,-1.4088,-1.4088,-1.4088,-1.4088,-1.4088,-1.4088,-1.4088,-1.4088,-1.4088,-1.4088,-1.4088,-1.4082,-1.2851,-1.2328,-1.2237,-1.2072,-1.1895,-1.1895,-1.1895,-1.1895,-1.1809,-1.0697,-1.0351,-1.0438,-0.8973,-0.9401,-1.0351,-0.8969,-0.7841,-0.7228,-0.8189,-0.854,-0.8715,-0.957,-0.9831,-0.9831,-0.9831,-0.9831,-0.9831,-0.9831,-0.9798,-0.9542,-0.8505,-0.8611,-0.8982,-0.894,-0.8803,-0.8613,-0.8613,-0.8613,-0.8389,-0.7629,-0.748,-0.7176,-0.6412,-0.6338,-0.6338,-0.6338,-0.6338,-0.6338,-0.6338,-0.7022,-0.7783,-0.8618,-0.8841,-0.8998,-0.8998,-0.9145,-0.9296,-0.9296,-0.9296,-0.9669,-1.049,-1.049,-1.0115,-0.9301,-0.9601,-0.9736,-0.9948,-1.1172,-1.1836,-1.1986,-1.2948,-1.3307,-1.3307,-1.3307,-1.3307,-1.3307,-1.3307,-1.3307,-1.3307,-1.3307,-1.3307,-1.3307,-1.2305,-1.2305,-1.2305,-1.2305,-1.2305,-1.2305,-1.2305,-1.2305,-1.2305,-1.2305,-1.2305,-1.2305,-1.2305,-1.2305,-1.2358,-1.2498,-1.3066,-1.348,-1.3552,-1.3921,-1.4088,-1.4088,-1.4088,-1.4088,-1.4088,-1.4088,-1.4088,-1.4088,-1.4088,-1.4088,-1.4088,-1.4088,-1.4088,-1.4088,-1.347,-1.3118,-1.3118,-1.2504,-1.2589,-1.3118,-1.2504,-1.2674,-1.3027,-1.1901,-1.1729,-1.2083,-1.0356,-1.0096,-1.0611,-1.0524,-0.9744,-0.8877,-0.9492,-0.9753,-0.9836,-1.0438,-1.0611,-1.0611,-1.0611,-1.0611,-1.0611,-1.0611,-1.1042,-1.1033,-0.9614,-0.9533,-0.9716,-0.9514,-0.9377,-0.9296,-0.9296,-0.9296,-0.915,-0.8618,-0.8542,-0.8313,-0.7783,-0.7706,-0.7706,-0.7706,-0.7706,-0.7706,-0.7706,-0.8237,-0.877,-0.9296,-0.9744,-1.004,-1.004,-1.0496,-1.0726,-1.0726,-1.0726,-1.095,-1.1539,-1.1539,-1.1242,-1.0732,-1.1194,-1.1447,-1.1502,-1.256,-1.3077,-1.3203,-1.3822,-1.4088,-1.4088,-1.4088,-1.4088,-1.4088,-1.4088,-1.4088,-1.4088,-1.4088,-1.4088,-1.4088,-1.2305,-1.2305,-1.2305,-1.2305,-1.2305,-1.2305,-1.2305,-1.2305,-1.2305,-1.2305,-1.2305,-1.2305,-1.2305,-1.2345,-1.2498,-1.2876,-1.3327,-1.3585,-1.3714,-1.3948,-1.4088,-1.4088,-1.4088,-1.4088,-1.4088,-1.4088,-1.4088,-1.4088,-1.4088,-1.4088,-1.4088,-1.4088,-1.4088,-1.4088,-1.4088,-1.4088,-1.3997,-1.3027,-1.3203,-1.3997,-1.3027,-1.3203,-1.3997,-1.3027,-1.3203,-1.3822,-1.1649,-1.0783,-1.0783,-1.1895,-1.1552,-1.0611,-1.0869,-1.0864,-1.0956,-1.1128,-1.1219,-1.1219,-1.1219,-1.1219,-1.1219,-1.1219,-1.1906,-1.2204,-1.0827,-1.0568,-1.0461,-1.0081,-0.9942,-0.9884,-0.9884,-0.9852,-0.975,-0.9599,-0.9518,-0.9523,-0.9296,-0.9296,-0.9296,-0.9296,-0.9296,-0.9372,-0.9523,-0.9518,-0.9599,-0.9825,-1.0565,-1.1087,-1.1087,-1.1848,-1.2305,-1.2305,-1.2305,-1.2305,-1.2305,-1.2305,-1.2305,-1.2311,-1.2919,-1.3213,-1.3227,-1.3821,-1.4088,-1.4088,-1.4328,-1.4412,-1.4412,-1.458,-1.4657,-1.4657,-1.4657,-1.4657,-1.4657,-1.4657,-1.4657,-1.4657,-1.2305,-1.2305,-1.2305,-1.2305,-1.2305,-1.2305,-1.2305,-1.2305,-1.2305,-1.2305,-1.2305,-1.2305,-1.2305,-1.2532,-1.2806,-1.312,-1.3454,-1.3754,-1.4008,-1.4062,-1.4088,-1.4088,-1.4088,-1.4088,-1.4088,-1.4088,-1.4088,-1.4088,-1.4088,-1.4088,-1.4088,-1.4088,-1.4088,-1.4088,-1.4088,-1.4088,-1.4088,-1.3913,-1.3913,-1.4088,-1.3913,-1.3913,-1.4088,-1.3913,-1.3997,-1.3913,-1.2595,-1.1466,-1.0783,-1.1895,-1.1552,-1.0783,-1.1724,-1.2072,-1.2242,-1.33,-1.3652,-1.3652,-1.3652,-1.3652,-1.3652,-1.3652,-1.3737,-1.3736,-1.3238,-1.3078,-1.3059,-1.3069,-1.2648,-1.2298,-1.2298,-1.2091,-1.162,-1.0714,-1.0565,-1.0265,-0.9448,-0.9296,-0.9296,-0.9296,-0.9296,-0.9674,-1.049,-1.0565,-1.0938,-1.1848,-1.2003,-1.2077,-1.2077,-1.2224,-1.2305,-1.2305,-1.2305,-1.2305,-1.2305,-1.2305,-1.2305,-1.2311,-1.2919,-1.3213,-1.3227,-1.3821,-1.4088,-1.4166,-1.5054,-1.5455,-1.5538,-1.6445,-1.6854,-1.6854,-1.6854,-1.6854,-1.6854,-1.6854,-1.6854,-1.6854,-1.2305,-1.2305,-1.2305,-1.2305,-1.2305,-1.2305,-1.2305,-1.2305,-1.2305,-1.2305,-1.2305,-1.2305,-1.2305,-1.2719,-1.306,-1.32,-1.3627,-1.3948,-1.4082,-1.4088,-1.4088,-1.4088,-1.4088,-1.4088,-1.4088,-1.4088,-1.4088,-1.4088,-1.4088,-1.4088,-1.4088,-1.4088,-1.4088,-1.4088,-1.4088,-1.4088,-1.4088,-1.4088,-1.4088,-1.4088,-1.4088,-1.4088,-1.4088,-1.4088,-1.4088,-1.4004,-1.347,-1.2948,-1.2601,-1.3124,-1.2948,-1.2601,-1.3118,-1.3294,-1.3379,-1.3913,-1.4088,-1.4088,-1.4088,-1.4088,-1.4088,-1.4088,-1.4088,-1.4055,-1.3921,-1.3895,-1.3801,-1.3474,-1.3053,-1.2822,-1.2822,-1.2505,-1.215,-1.1694,-1.162,-1.1471,-1.1025,-1.095,-1.095,-1.095,-1.095,-1.1174,-1.162,-1.162,-1.1848,-1.2305,-1.2305,-1.2305,-1.2305,-1.2305,-1.2305,-1.2305,-1.2305,-1.2305,-1.2305,-1.2305,-1.2305,-1.2305,-1.2746,-1.3046,-1.3227,-1.3821,-1.4412,-1.5061,-1.5455,-1.6026,-1.6601,-1.709,-1.7342,-1.7342,-1.7342,-1.7342,-1.7342,-1.7342,-1.7342,-1.7342]}]]